[[{"header":{"parameterUnit":"m.s-1","parameterCategory":1,"la1":30.6,"la2":28.766,"lo1":-90.7593,"lo2":-88.6598,"dy":0.0162,"dx":0.0183,"nx":116,"ny":114,"refTime":"2024-04-20T12:00:00:Z","depth":0,"parameterNumber":2,"parameterNumberName":"U-component_of_WINDS"},"data":[0.0,0.0,0.0,0.0,0.0,0.0,0.0,0.0,0.0,0.0,0.0,0.0,0.0,0.0,0.0,0.0,0.0,0.0,0.0,0.0,0.0,0.0,0.0,0.0,0.0,0.0,0.0,0.0,0.0,0.0,0.0,0.0,0.0,0.0,0.0,0.0,0.0,0.0,0.0,0.0,0.0,0.0,0.0,0.0,0.0,0.0,0.0,0.0,0.0,0.0,0.0,0.0,0.0,0.0,0.0,0.0,0.0,0.0,0.0,0.0,0.0,0.0,0.0,0.0,0.0,0.0,0.0,0.0,0.0,0.0,0.0,0.0,0.0,0.0,0.0,0.0,0.0,0.0,0.0,0.0,0.0,0.0,0.0,0.0,0.0,0.0,0.0,0.0,0.0,0.0,0.0,0.0,0.0,0.0,0.0,0.0,0.0,0.0,0.0,0.0,0.0,0.0,0.0,0.0,0.0,0.0,0.0,0.0,0.0,0.0,0.0,0.0,0.0,0.0,0.0,0.0,0.0,0.0,0.0,0.0,0.0,0.0,0.0,0.0,0.0,0.0,0.0,0.0,0.0,0.0,0.0,0.0,0.0,0.0,0.0,0.0,0.0,0.0,0.0,0.0,0.0,0.0,0.0,0.0,0.0,0.0,0.0,0.0,0.0,0.0,0.0,0.0,0.0,0.0,0.0,0.0,0.0,0.0,0.0,0.0,0.0,0.0,0.0,0.0,0.0,0.0,0.0,0.0,0.0,0.0,0.0,0.0,0.0,0.0,0.0,0.0,0.0,0.0,0.0,0.0,0.0,0.0,0.0,0.0,0.0,0.0,0.0,0.0,0.0,0.0,0.0,0.0,0.0,0.0,0.0,0.0,0.0,0.0,0.0,0.0,0.0,0.0,0.0,0.0,0.0,0.0,0.0,0.0,0.0,0.0,0.0,0.0,0.0,0.0,0.0,0.0,0.0,0.0,0.0,0.0,0.0,0.0,0.0,0.0,0.0,0.0,0.0,0.0,0.0,0.0,0.0,0.0,0.0,0.0,0.0,0.0,0.0,0.0,0.0,0.0,0.0,0.0,0.0,0.0,0.0,0.0,0.0,0.0,0.0,0.0,0.0,0.0,0.0,0.0,0.0,0.0,0.0,0.0,0.0,0.0,0.0,0.0,0.0,0.0,0.0,0.0,0.0,0.0,0.0,0.0,0.0,0.0,0.0,0.0,0.0,0.0,0.0,0.0,0.0,0.0,0.0,0.0,0.0,0.0,0.0,0.0,0.0,0.0,0.0,0.0,0.0,0.0,0.0,0.0,0.0,0.0,0.0,0.0,0.0,0.0,0.0,0.0,0.0,0.0,0.0,0.0,0.0,0.0,0.0,0.0,0.0,0.0,0.0,0.0,0.0,0.0,0.0,0.0,0.0,0.0,0.0,0.0,0.0,0.0,0.0,0.0,0.0,0.0,0.0,0.0,0.0,0.0,0.0,0.0,0.0,0.0,0.0,0.0,0.0,0.0,0.0,0.0,0.0,0.0,0.0,0.0,0.0,0.0,0.0,0.0,0.0,0.0,0.0,0.0,0.0,0.0,0.0,0.0,0.0,0.0,0.0,0.0,0.0,0.0,0.0,0.0,0.0,0.0,0.0,0.0,0.0,0.0,0.0,0.0,0.0,0.0,0.0,0.0,0.0,0.0,0.0,0.0,0.0,0.0,0.0,0.0,0.0,0.0,0.0,0.0,0.0,0.0,0.0,0.0,0.0,0.0,0.0,0.0,0.0,0.0,0.0,0.0,0.0,0.0,0.0,0.0,0.0,0.0,0.0,0.0,0.0,0.0,0.0,0.0,0.0,0.0,0.0,0.0,0.0,0.0,0.0,0.0,0.0,0.0,0.0,0.0,0.0,0.0,0.0,0.0,0.0,0.0,0.0,0.0,0.0,0.0,0.0,0.0,0.0,0.0,0.0,0.0,0.0,0.0,0.0,0.0,0.0,0.0,0.0,0.0,0.0,0.0,0.0,0.0,0.0,0.0,0.0,0.0,0.0,0.0,0.0,0.0,0.0,0.0,0.0,0.0,0.0,0.0,0.0,0.0,0.0,0.0,0.0,0.0,0.0,0.0,0.0,0.0,0.0,0.0,0.0,0.0,0.0,0.0,0.0,0.0,0.0,0.0,0.0,0.0,0.0,0.0,0.0,0.0,0.0,0.0,0.0,0.0,0.0,0.0,0.0,0.0,0.0,0.0,0.0,0.0,0.0,0.0,0.0,0.0,0.0,0.0,0.0,0.0,0.0,0.0,0.0,0.0,0.0,0.0,0.0,0.0,0.0,0.0,0.0,0.0,0.0,0.0,0.0,0.0,0.0,0.0,0.0,0.0,0.0,0.0,0.0,0.0,0.0,0.0,0.0,0.0,0.0,0.0,0.0,0.0,0.0,0.0,0.0,0.0,0.0,0.0,0.0,0.0,0.0,0.0,0.0,0.0,0.0,0.0,0.0,0.0,0.0,0.0,0.0,0.0,0.0,0.0,0.0,0.0,0.0,0.0,0.0,0.0,0.0,0.0,0.0,0.0,0.0,0.0,0.0,0.0,0.0,0.0,0.0,0.0,0.0,0.0,0.0,0.0,0.0,0.0,0.0,0.0,0.0,0.0,0.0,0.0,0.0,0.0,0.0,0.0,0.0,0.0,0.0,0.0,0.0,0.0,0.0,0.0,0.0,0.0,0.0,0.0,0.0,0.0,0.0,0.0,0.0,0.0,0.0,0.0,0.0,0.0,0.0,0.0,0.0,0.0,0.0,0.0,0.0,0.0,0.0,0.0,0.0,0.0,0.0,0.0,0.0,0.0,0.0,0.0,0.0,0.0,0.0,0.0,0.0,0.0,0.0,0.0,0.0,0.0,0.0,0.0,0.0,0.0,0.0,0.0,0.0,0.0,0.0,0.0,0.0,0.0,0.0,0.0,0.0,0.0,0.0,0.0,0.0,0.0,0.0,0.0,0.0,0.0,0.0,0.0,0.0,0.0,0.0,0.0,0.0,0.0,0.0,0.0,0.0,0.0,0.0,0.0,0.0,0.0,0.0,0.0,0.0,0.0,0.0,0.0,0.0,0.0,0.0,0.0,0.0,0.0,0.0,0.0,0.0,0.0,0.0,0.0,0.0,0.0,0.0,0.0,0.0,0.0,0.0,0.0,0.0,0.0,0.0,0.0,0.0,0.0,0.0,0.0,0.0,0.0,0.0,0.0,0.0,0.0,0.0,0.0,0.0,0.0,0.0,0.0,0.0,0.0,0.0,0.0,0.0,0.0,0.0,0.0,0.0,0.0,0.0,0.0,0.0,0.0,0.0,0.0,0.0,0.0,0.0,0.0,0.0,0.0,0.0,0.0,0.0,0.0,0.0,0.0,0.0,0.0,0.0,0.0,0.0,0.0,0.0,0.0,0.0,0.0,0.0,0.0,0.0,0.0,0.0,0.0,0.0,0.0,0.0,0.0,0.0,0.0,0.0,0.0,0.0,0.0,0.0,0.0,0.0,0.0,0.0,0.0,0.0,0.0,0.0,0.0,0.0,0.0,0.0,0.0,0.0,0.0,0.0,0.0,0.0,0.0,0.0,0.0,0.0,0.0,0.0,0.0,0.0,0.0,0.0,0.0,0.0,0.0,0.0,0.0,0.0,0.0,0.0,0.0,0.0,0.0,0.0,0.0,0.0,0.0,0.0,0.0,0.0,0.0,0.0,0.0,0.0,0.0,0.0,0.0,0.0,0.0,0.0,0.0,0.0,0.0,0.0,0.0,0.0,0.0,0.0,0.0,0.0,0.0,0.0,0.0,0.0,0.0,0.0,0.0,0.0,0.0,0.0,0.0,0.0,0.0,0.0,0.0,0.0,0.0,0.0,0.0,0.0,0.0,0.0,0.0,0.0,0.0,0.0,0.0,0.0,0.0,0.0,0.0,0.0,0.0,0.0,0.0,0.0,0.0,0.0,0.0,0.0,0.0,0.0,0.0,0.0,0.0,0.0,0.0,0.0,0.0,0.0,0.0,0.0,0.0,0.0,0.0,0.0,0.0,0.0,0.0,0.0,0.0,0.0,0.0,0.0,0.0,0.0,0.0,0.0,0.0,0.0,0.0,0.0,0.0,0.0,0.0,0.0,0.0,0.0,0.0,0.0,0.0,0.0,0.0,0.0,0.0,0.0,0.0,0.0,0.0,0.0,0.0,0.0,0.0,0.0,0.0,0.0,0.0,0.0,0.0,0.0,0.0,0.0,0.0,0.0,0.0,0.0,0.0,0.0,0.0,0.0,0.0,0.0,0.0,0.0,0.0,0.0,0.0,0.0,0.0,0.0,0.0,0.0,0.0,0.0,0.0,0.0,0.0,0.0,0.0,0.0,0.0,0.0,0.0,0.0,0.0,0.0,0.0,0.0,0.0,0.0,0.0,0.0,0.0,0.0,0.0,0.0,0.0,0.0,0.0,0.0,0.0,0.0,0.0,0.0,0.0,0.0,0.0,0.0,0.0,0.0,0.0,0.0,0.0,0.0,0.0,0.0,0.0,0.0,0.0,0.0,0.0,0.0,0.0,0.0,0.0,0.0,0.0,0.0,0.0,0.0,0.0,0.0,0.0,0.0,0.0,0.0,0.0,0.0,0.0,0.0,0.0,0.0,0.0,0.0,0.0,0.0,0.0,0.0,0.0,0.0,0.0,0.0,0.0,0.0,0.0,0.0,0.0,0.0,0.0,0.0,0.0,0.0,0.0,0.0,0.0,0.0,0.0,0.0,0.0,0.0,0.0,0.0,0.0,0.0,0.0,0.0,0.0,0.0,0.0,0.0,0.0,0.0,0.0,0.0,0.0,0.0,0.0,0.0,0.0,0.0,0.0,0.0,0.0,0.0,0.0,0.0,0.0,0.0,0.0,0.0,0.0,0.0,0.0,0.0,0.0,0.0,0.0,0.0,0.0,0.0,0.0,0.0,0.0,0.0,0.0,0.0,0.0,0.0,0.0,0.0,0.0,0.0,0.0,0.0,0.0,0.0,0.0,0.0,0.0,0.0,0.0,0.0,0.0,0.0,0.0,0.0,0.0,0.0,0.0,0.0,0.0,0.0,0.0,0.0,0.0,0.0,0.0,0.0,0.0,0.0,0.0,0.0,0.0,0.0,0.0,0.0,0.0,0.0,0.0,0.0,0.0,0.0,0.0,0.0,0.0,0.0,0.0,0.0,0.0,0.0,0.0,0.0,0.0,0.0,0.0,0.0,0.0,0.0,0.0,0.0,0.0,0.0,0.0,0.0,0.0,0.0,0.0,0.0,0.0,0.0,0.0,0.0,0.0,0.0,0.0,0.0,0.0,0.0,0.0,0.0,0.0,0.0,0.0,0.0,0.0,0.0,0.0,0.0,0.0,0.0,0.0,0.0,0.0,0.0,0.0,0.0,0.0,0.0,0.0,0.0,0.0,0.0,0.0,0.0,0.0,0.0,0.0,0.0,0.0,0.0,0.0,0.0,0.0,0.0,0.0,0.0,0.0,0.0,0.0,0.0,0.0,0.0,0.0,0.0,0.0,0.0,0.0,0.0,0.0,0.0,0.0,0.0,0.0,0.0,0.0,0.0,0.0,0.0,0.0,0.0,0.0,0.0,0.0,0.0,0.0,0.0,0.0,0.0,0.0,0.0,0.0,0.0,0.0,0.0,0.0,0.0,0.0,0.0,0.0,0.0,0.0,0.0,0.0,0.0,0.0,0.0,0.0,0.0,0.0,0.0,0.0,0.0,0.0,0.0,0.0,0.0,0.0,0.0,0.0,0.0,0.0,0.0,0.0,0.0,0.0,0.0,0.0,0.0,0.0,0.0,0.0,0.0,0.0,0.0,0.0,0.0,0.0,0.0,0.0,0.0,0.0,0.0,0.0,0.0,0.0,0.0,0.0,0.0,0.0,0.0,0.0,0.0,0.0,0.0,0.0,0.0,0.0,0.0,0.0,0.0,0.0,0.0,0.0,0.0,0.0,0.0,0.0,0.0,0.0,0.0,0.0,0.0,0.0,0.0,0.0,0.0,0.0,0.0,0.0,0.0,0.0,0.0,0.0,0.0,0.0,0.0,0.0,0.0,0.0,0.0,0.0,-2.7629,0.0,0.0,0.0,0.0,0.0,0.0,0.0,0.0,0.0,0.0,0.0,0.0,0.0,0.0,0.0,0.0,0.0,0.0,0.0,0.0,0.0,0.0,0.0,0.0,-2.1417,-2.2341,-2.1896,-2.2729,-2.2929,-2.2218,-2.2227,0.0,0.0,0.0,0.0,-2.1257,-2.1646,-2.2252,-2.3076,-2.4096,-2.5349,-2.6743,-2.5522,-2.4087,-2.2452,0.0,0.0,0.0,0.0,0.0,0.0,0.0,0.0,0.0,0.0,0.0,0.0,0.0,0.0,0.0,0.0,0.0,0.0,0.0,0.0,0.0,0.0,0.0,0.0,0.0,0.0,0.0,0.0,0.0,0.0,0.0,0.0,0.0,0.0,0.0,0.0,0.0,0.0,0.0,0.0,0.0,0.0,0.0,0.0,0.0,0.0,0.0,0.0,0.0,0.0,0.0,0.0,0.0,0.0,0.0,0.0,0.0,0.0,0.0,0.0,0.0,0.0,0.0,0.0,0.0,0.0,0.0,0.0,0.0,0.0,0.0,-3.0241,0.0,0.0,0.0,0.0,0.0,0.0,0.0,0.0,0.0,0.0,0.0,0.0,0.0,0.0,0.0,0.0,0.0,0.0,0.0,0.0,0.0,-1.9889,-2.0824,-2.2538,-2.3631,-2.3736,-2.4615,-2.4821,-2.4088,-2.4112,-2.3824,-2.3067,-2.3084,-2.2828,-2.2144,-2.2947,-2.4075,-2.5552,-2.7121,-2.8853,-3.0712,-3.0203,-2.9189,-2.7729,-2.6224,0.0,0.0,0.0,0.0,0.0,0.0,0.0,0.0,0.0,0.0,0.0,0.0,0.0,0.0,0.0,0.0,0.0,0.0,0.0,0.0,0.0,0.0,0.0,0.0,0.0,0.0,0.0,0.0,0.0,0.0,0.0,0.0,0.0,0.0,0.0,0.0,0.0,0.0,0.0,0.0,0.0,0.0,0.0,0.0,0.0,0.0,0.0,0.0,0.0,0.0,0.0,0.0,0.0,0.0,0.0,0.0,0.0,0.0,0.0,0.0,0.0,0.0,0.0,-3.3249,-3.3766,-3.4405,-3.4455,-3.4848,-3.5562,-3.8039,-3.7287,-3.4235,-3.2969,0.0,0.0,0.0,0.0,0.0,0.0,0.0,0.0,0.0,0.0,0.0,0.0,0.0,0.0,0.0,0.0,0.0,0.0,0.0,-2.0905,-2.2424,-2.4138,-2.5478,-2.6269,-2.7184,-2.7384,-2.665,-2.6738,-2.6428,-2.5649,-2.5624,-2.5587,-2.5479,-2.632,-2.7102,-2.7781,-3.0457,-3.2256,-3.3229,-3.3846,-3.4039,-3.3643,-2.9298,-2.749,-2.7534,0.0,0.0,0.0,0.0,0.0,0.0,0.0,0.0,0.0,0.0,0.0,0.0,0.0,0.0,0.0,0.0,0.0,0.0,0.0,0.0,0.0,0.0,0.0,0.0,0.0,0.0,0.0,0.0,0.0,0.0,0.0,0.0,0.0,0.0,0.0,0.0,0.0,0.0,0.0,0.0,0.0,-2.3909,-2.6774,0.0,0.0,0.0,0.0,0.0,0.0,0.0,0.0,0.0,0.0,0.0,0.0,0.0,-3.2768,-3.4503,-3.6346,-3.7394,-3.7642,-3.9438,-4.0334,-4.0461,-4.0461,-4.0531,-4.0623,-4.0659,0.0,-3.6696,-3.5155,0.0,0.0,0.0,0.0,0.0,0.0,0.0,0.0,0.0,0.0,0.0,0.0,0.0,0.0,0.0,0.0,0.0,0.0,0.0,0.0,0.0,-2.6001,-2.7727,-2.8039,-2.9368,-2.9698,-2.8515,-2.8115,-2.7569,-2.6826,-2.6369,-2.6356,-2.6826,-2.8527,-3.0643,-3.3172,-3.5034,-3.6113,-3.6359,-3.6692,-3.6928,-3.6925,-3.4785,-3.2704,-3.0683,-2.8692,0.0,0.0,0.0,0.0,0.0,0.0,0.0,0.0,0.0,0.0,0.0,0.0,0.0,0.0,0.0,0.0,0.0,0.0,0.0,0.0,0.0,0.0,0.0,0.0,0.0,0.0,0.0,0.0,0.0,0.0,0.0,0.0,0.0,0.0,0.0,0.0,0.0,0.0,0.0,-2.4274,-2.8582,-3.1233,-3.029,-2.8255,0.0,0.0,0.0,0.0,0.0,0.0,0.0,0.0,0.0,-3.4954,-3.5719,-3.6845,-3.8487,-4.0096,-4.1131,-4.1555,-4.2444,-4.2903,-4.2903,-4.2903,-4.2903,-4.2868,-4.2719,-4.1788,-4.0264,-3.8435,-3.6822,-3.5403,0.0,0.0,0.0,0.0,-3.186,-3.162,0.0,0.0,0.0,0.0,0.0,0.0,0.0,0.0,0.0,0.0,0.0,0.0,-2.53,-2.8229,-3.0173,-3.0366,-3.1671,-3.2101,-3.1088,-2.9904,-2.9026,-2.8572,-2.7658,-2.7502,-2.8323,-3.0908,-3.3835,-3.7136,-3.8101,-3.8504,-3.8345,-3.8345,-3.8414,-3.8504,-3.8527,-3.6977,-3.4234,-3.24,-3.0285,-2.7946,0.0,0.0,0.0,0.0,0.0,0.0,0.0,0.0,0.0,0.0,0.0,0.0,0.0,0.0,0.0,0.0,0.0,0.0,0.0,0.0,0.0,0.0,0.0,0.0,0.0,0.0,0.0,0.0,0.0,0.0,0.0,0.0,0.0,0.0,0.0,0.0,0.0,-2.7787,-3.1778,-3.5002,-3.3999,-3.2101,0.0,0.0,0.0,0.0,0.0,0.0,-3.4577,-3.5485,-3.6719,-3.8508,-3.942,-4.045,-4.164,-4.2617,-4.336,-4.3886,-4.3886,-4.3886,-4.3886,-4.3886,-4.3886,-4.3886,-4.3886,-4.3605,-4.2961,-4.1258,-3.9372,-3.7466,-3.7212,-3.6168,-3.4858,-3.6043,-3.6026,-3.5783,0.0,0.0,0.0,0.0,0.0,0.0,0.0,0.0,0.0,0.0,0.0,-2.6128,-2.8588,-3.1048,-3.2882,-3.3761,-3.4392,-3.487,-3.5169,-3.2842,-3.1601,-3.193,-3.0513,-3.0054,-3.0799,-3.3912,-3.6201,-3.7474,-3.7979,-3.8196,-3.8196,-3.8196,-3.8196,-3.8253,-3.8345,-3.8555,-3.8705,-3.6262,-3.4931,-3.4089,-2.9748,0.0,0.0,0.0,0.0,0.0,0.0,0.0,0.0,0.0,0.0,0.0,0.0,0.0,0.0,0.0,0.0,0.0,0.0,0.0,0.0,0.0,0.0,0.0,0.0,0.0,0.0,0.0,0.0,0.0,0.0,0.0,0.0,0.0,0.0,0.0,0.0,0.0,0.0,-3.7671,-3.9294,0.0,0.0,0.0,0.0,-3.2771,-3.4171,-3.638,-3.9108,-4.0075,-4.1463,-4.3464,-4.3617,-4.3664,-4.3734,-4.3816,-4.3851,-4.3886,-4.3886,-4.3886,-4.3886,-4.3886,-4.3886,-4.3886,-4.3886,-4.3886,-4.3781,-4.2996,-4.2118,-4.1192,-4.0066,-3.9549,-3.9429,-3.9193,-3.8798,-3.8538,0.0,0.0,0.0,0.0,0.0,-1.7532,-1.8001,-1.8819,-1.9783,-2.086,-2.4462,-2.7464,-2.8941,-3.2194,-3.4481,-3.5135,-3.5949,-3.6289,-3.5901,-3.4174,-3.355,-3.448,-3.3045,-3.3393,-3.596,-3.7122,-3.836,-3.9618,-3.9505,-3.9448,-3.9545,-3.9545,-3.9593,-3.9665,-3.9713,-3.9903,-4.0055,-3.8256,-3.6664,-3.5179,-3.3073,-2.9839,0.0,0.0,0.0,0.0,0.0,0.0,0.0,0.0,0.0,0.0,0.0,0.0,0.0,0.0,0.0,0.0,0.0,0.0,0.0,0.0,0.0,0.0,0.0,0.0,0.0,0.0,0.0,0.0,0.0,0.0,0.0,0.0,0.0,0.0,0.0,0.0,0.0,-3.8888,-3.9245,0.0,-3.7502,-3.826,-3.8344,-3.7304,-3.9458,-4.1301,-4.23,-4.2639,-4.3392,-4.4624,-4.4659,-4.515,-4.6133,-4.6133,-4.6414,-4.6906,-4.6906,-4.6906,-4.6906,-4.6871,-4.6871,-4.6871,-4.6871,-4.659,-4.6098,-4.5302,-4.4237,-4.3031,-4.2604,-4.2154,-4.1717,-4.1605,-4.1102,-4.0588,0.0,0.0,0.0,0.0,0.0,-1.7497,-1.8041,-1.9081,-2.0362,-2.1937,-2.5918,-2.9218,-3.0671,-3.3828,-3.5952,-3.622,-3.6728,-3.7039,-3.7092,-3.5332,-3.4877,-3.6193,-3.5116,-3.5852,-3.8773,-3.9091,-3.9674,-4.0645,-4.0436,-4.0313,-4.0362,-4.0585,-4.0576,-4.0436,-4.0709,-4.0749,-4.0563,-3.9686,-3.8558,-3.7269,-3.6063,-3.3565,-3.0327,0.0,0.0,0.0,0.0,0.0,0.0,0.0,0.0,0.0,0.0,0.0,0.0,0.0,0.0,0.0,0.0,0.0,0.0,0.0,0.0,0.0,0.0,0.0,0.0,0.0,0.0,0.0,0.0,0.0,0.0,0.0,0.0,0.0,0.0,0.0,-3.7318,-3.9517,-4.0024,-4.0101,-3.9938,-4.0609,-4.1174,-4.1456,-4.324,-4.4518,-4.5045,-4.508,-4.5431,-4.6239,-4.6239,-4.6765,-4.7783,-4.7783,-4.8064,-4.8591,-4.8591,-4.8591,-4.8556,-4.8495,-4.8457,-4.8363,-4.8492,-4.8201,-4.7611,-4.7166,-4.6354,-4.5361,-4.4308,-4.3605,-4.3184,-4.3184,-4.2833,-4.2377,0.0,0.0,0.0,0.0,0.0,-1.8134,-1.8205,-1.9551,-2.1659,-2.4642,-2.8102,-3.1297,-3.3871,-3.6022,-3.7222,-3.7071,-3.6731,-3.7206,-3.8977,-3.6399,-3.5508,-3.7096,-3.6784,-3.7317,-3.8942,-3.9655,-4.0135,-4.0322,-4.0627,-4.0676,-4.0554,-4.1146,-4.1036,-4.039,-4.1104,-4.1112,-4.0578,-4.07,-4.082,-4.0745,-3.8794,-3.7756,-3.6845,0.0,0.0,0.0,0.0,0.0,0.0,0.0,0.0,0.0,0.0,0.0,0.0,0.0,0.0,0.0,0.0,0.0,0.0,0.0,0.0,0.0,0.0,0.0,0.0,0.0,0.0,0.0,0.0,0.0,0.0,0.0,0.0,0.0,-3.1435,-3.5542,-3.8925,-3.9786,-4.1976,-4.3308,-4.2914,-4.3535,-4.4308,-4.5115,-4.5185,-4.5852,-4.7327,-4.7422,-4.7774,-4.8486,-4.8521,-4.8582,-4.8687,-4.8696,-4.8696,-4.8635,-4.8635,-4.8635,-4.8635,-4.8635,-4.8494,-4.8247,-4.8574,-4.8519,-4.8188,-4.8443,-4.853,-4.8214,-4.522,-4.3992,-4.3957,-4.3957,-4.3886,-4.3851,0.0,0.0,0.0,-1.7916,-1.8048,-1.8155,-1.8266,-1.9584,-2.1324,-2.3387,-2.755,-3.0988,-3.258,-3.5374,-3.6974,-3.6553,-3.6444,-3.6942,-3.8282,-3.6635,-3.6432,-3.8241,-3.9778,-4.0674,-4.0766,-4.0574,-4.0796,-4.1405,-4.128,-4.1427,-4.1808,-4.1959,-4.1933,-4.1764,-4.1933,-4.209,-4.2057,-4.1569,-4.1479,-4.1585,-4.0504,-3.8807,-3.674,0.0,0.0,0.0,0.0,0.0,0.0,0.0,0.0,0.0,0.0,0.0,0.0,0.0,0.0,0.0,0.0,0.0,0.0,0.0,0.0,0.0,0.0,0.0,0.0,0.0,0.0,0.0,0.0,0.0,0.0,0.0,0.0,-3.735,-3.5827,-3.8852,-4.1413,-4.1945,-4.3373,-4.4399,-4.446,-4.515,-4.5898,-4.6695,-4.7257,-4.7748,-4.817,-4.8028,-4.8258,-4.8968,-4.9004,-4.9536,-5.0708,-5.0955,-5.1365,-5.1891,-5.1891,-5.1891,-5.1891,-5.1891,-5.1606,-5.1078,-5.1086,-5.0761,-5.023,-4.9609,-4.9363,-4.9223,-4.7783,-4.653,-4.5477,-4.4975,-4.4062,-4.3253,0.0,0.0,0.0,-1.7947,-1.807,-1.8155,-1.8301,-1.9619,-2.1521,-2.4077,-2.7771,-3.0968,-3.3071,-3.5362,-3.6676,-3.643,-3.6615,-3.697,-3.7494,-3.6964,-3.748,-3.9436,-4.058,-4.117,-4.1265,-4.1157,-4.1243,-4.1604,-4.1895,-4.2193,-4.2471,-4.2758,-4.2671,-4.24,-4.2651,-4.2698,-4.2568,-4.2211,-4.2012,-4.1867,-4.1526,-4.0308,-3.8615,-3.7574,-3.6217,-3.4641,-3.2908,-3.2252,-3.1978,-3.029,0.0,0.0,0.0,0.0,0.0,0.0,0.0,0.0,0.0,0.0,0.0,0.0,0.0,0.0,0.0,0.0,0.0,0.0,0.0,0.0,0.0,0.0,0.0,0.0,-3.8475,-4.1056,-4.0882,-4.2372,-4.3628,-4.4024,-4.496,-4.5685,-4.6007,-4.673,-4.7477,-4.831,-4.8766,-4.9293,-4.9934,-4.9799,-4.9866,-5.016,-5.0637,-5.1073,-5.149,-5.2164,-5.2734,-5.3218,-5.3218,-5.3218,-5.3218,-5.3218,-5.2901,-5.2396,-5.2486,-5.2232,-5.1688,-5.0656,-5.0198,0.0,0.0,0.0,0.0,0.0,-4.5747,-4.4776,0.0,0.0,0.0,-1.7922,-1.8091,-1.8123,-1.8274,-1.9586,-2.1935,-2.572,-2.8334,-3.115,-3.4438,-3.5668,-3.6326,-3.6492,-3.7008,-3.7241,-3.7005,-3.7685,-3.8818,-4.0369,-4.0038,-4.0147,-4.0918,-4.1361,-4.1571,-4.1563,-4.2527,-4.2963,-4.2927,-4.3503,-4.3389,-4.2751,-4.3322,-4.3247,-4.277,-4.2799,-4.245,-4.1915,-4.1936,-4.1753,-4.1213,-3.9041,-3.8942,-3.9447,-3.5789,-3.4977,-3.5296,-3.3032,0.0,0.0,0.0,0.0,0.0,0.0,0.0,0.0,0.0,0.0,0.0,0.0,0.0,0.0,0.0,0.0,0.0,0.0,0.0,0.0,0.0,0.0,0.0,0.0,-4.1538,-4.357,-4.5716,-4.5695,-4.5608,-4.594,-4.6644,-4.724,-4.7623,-4.8345,-4.9118,-4.989,-5.0057,-5.0697,-5.2067,0.0,0.0,0.0,0.0,-5.2713,-5.1775,-5.2799,-5.3394,-5.3436,-5.3436,-5.3436,-5.3436,-5.3436,-5.3258,-5.2918,-5.3203,-5.3117,-5.2704,-5.1616,-5.1049,-5.0733,-4.9153,-4.8495,-4.8521,-4.8598,-4.808,-4.7317,0.0,0.0,-1.7647,-1.7916,-1.7994,-1.8059,-1.82,-1.9532,-2.1895,-2.572,-2.8303,-3.1097,-3.4438,-3.5604,-3.6092,-3.5975,-3.6878,-3.7818,-3.8657,-4.0344,-4.0952,-4.0149,-4.0469,-4.0793,-4.0977,-4.1277,-4.181,-4.2603,-4.3174,-4.3722,-4.4258,-4.4476,-4.4415,-4.4202,-4.4421,-4.4442,-4.43,-4.3681,-4.3158,-4.2636,-4.2078,-4.1502,-4.0943,-4.0388,-4.0308,-4.0412,-3.964,-3.9468,-3.942,-3.8131,-3.6829,-3.5968,-3.7115,0.0,0.0,0.0,0.0,0.0,0.0,0.0,0.0,0.0,0.0,0.0,0.0,0.0,0.0,0.0,0.0,0.0,0.0,0.0,0.0,-4.0298,-4.3407,-4.5857,-4.7025,-4.757,-4.7657,-4.7149,-4.8164,-4.8983,-4.9231,-4.996,-5.0733,-5.1505,-5.2137,-5.2656,-5.2944,-5.2723,-5.2526,-5.2488,-5.2669,-5.2962,-5.3326,-5.383,-5.4419,-5.5051,0.0,0.0,-5.5051,-5.5051,-5.4745,-5.4141,-5.4119,-5.376,-5.325,-5.2916,-5.1997,-5.0733,-4.9153,-4.8556,-4.8607,-4.9064,-4.8444,-4.7508,0.0,-1.7199,-1.7816,-1.7939,-1.7961,-1.8005,-1.8113,-1.9487,-2.1618,-2.4691,-2.7111,-2.9817,-3.3094,-3.3707,-3.4117,-3.4703,-3.5613,-3.694,-3.8759,-3.9791,-4.0276,-4.025,-4.0405,-4.0587,-4.0741,-4.1478,-4.2098,-4.2576,-4.36,-4.4264,-4.4615,-4.4699,-4.4637,-4.4615,-4.4699,-4.4692,-4.4692,-4.4422,-4.3704,-4.2775,-4.2584,-4.1857,-4.0894,-4.0858,-4.0786,-4.0714,-4.0786,-4.0776,-4.072,-4.0214,-3.9494,-3.8986,-3.9795,-3.8258,-3.5378,0.0,0.0,0.0,0.0,0.0,0.0,0.0,0.0,0.0,0.0,0.0,0.0,0.0,0.0,-3.3741,-3.6399,0.0,-4.1019,-4.362,-4.5737,-4.7512,-4.8778,-4.9036,-4.9046,-4.8912,-4.9624,-5.0362,-5.0795,-5.1575,-5.2172,-5.2558,-5.2944,-5.3331,-5.3717,-5.3583,-5.3406,-5.3281,-5.3796,-5.4008,-5.3789,-5.4536,-5.5121,-5.5507,-5.5507,-5.5507,-5.5507,-5.5507,-5.5326,-5.4998,-5.494,-5.4729,-5.4365,-5.3535,-5.2488,-5.1329,-5.0171,-4.9223,-4.8617,-4.9301,-4.8872,-4.8045,0.0,0.0,-1.7772,-1.795,-1.795,-1.7927,-1.807,-1.9326,-2.1145,-2.359,-2.5636,-2.8047,-3.121,-3.1397,-3.1863,-3.3367,-3.4343,-3.5906,-3.83,-3.8687,-3.9317,-4.0441,-4.0263,-4.0238,-4.051,-4.1562,-4.2151,-4.2286,-4.3701,-4.4445,-4.4615,-4.4643,-4.4643,-4.4615,-4.4643,-4.4643,-4.4637,-4.4886,-4.4107,-4.2757,-4.3047,-4.2226,-4.0847,-4.0871,-4.0834,-4.0704,-4.0799,-4.0847,-4.0847,-4.0871,-4.0894,-4.0894,-4.0894,-4.0894,-3.9536,-3.2546,-3.2949,0.0,0.0,0.0,0.0,0.0,0.0,0.0,0.0,0.0,-3.3445,-3.5152,-3.5926,-3.7291,-4.0696,-4.2184,-4.3814,-4.6774,-4.7785,-4.8692,-5.0058,-5.0188,-5.0295,-5.0673,-5.0964,-5.14,-5.2172,-5.2944,-5.3401,-5.3401,-5.3541,-5.3892,-5.4524,-5.4524,-5.4415,-5.4125,-5.5008,-5.5078,-5.4125,-5.5043,-5.5507,-5.5507,-5.5507,-5.5507,-5.5507,-5.5507,-5.5507,-5.5507,-5.5507,-5.5507,-5.5402,-5.4138,-5.3085,-5.2172,-5.1575,-5.0382,-4.9047,-4.9504,-4.9188,-4.8495,0.0,0.0,0.0,-1.785,-1.7894,-1.7916,-1.8005,-1.8823,-2.0462,-2.328,-2.453,-2.6311,-2.9297,-2.9678,-3.0543,-3.2561,-3.4273,-3.6012,-3.777,-3.9445,-4.0401,-4.051,-4.0263,-4.0238,-4.051,-4.1053,-4.1644,-4.2286,-4.3132,-4.391,-4.4615,-4.472,-4.4692,-4.4615,-4.472,-4.4776,-4.4776,-4.4803,-4.408,-4.2885,-4.2911,-4.2043,-4.0762,-4.0847,-4.0834,-4.0714,-4.0738,-4.0738,-4.0762,-4.0847,-4.0894,-4.0894,-4.0894,-4.0894,-4.0216,-3.6768,0.0,-3.5521,-3.1153,-3.0246,0.0,-3.2508,-3.4074,-3.565,0.0,0.0,-3.9885,-3.9249,-4.0357,-4.2048,-4.3951,-4.4619,-4.5528,-4.749,-4.8644,-4.9424,-4.9723,-5.09,-5.1751,-5.1806,-5.1849,-5.2207,-5.298,-5.3752,-5.4173,-5.4173,-5.484,-5.5297,-5.5367,-5.5367,-5.5332,-5.5314,-5.5432,-5.5467,-5.5314,-5.5467,-5.5507,-5.5507,-5.5507,-5.5507,-5.5507,-5.5507,-5.5507,-5.5507,-5.5507,-5.5507,-5.5507,-5.5332,-5.4384,-5.3078,-5.2973,-5.1997,-5.0557,-4.9925,-4.9223,-4.8591,0.0,0.0,0.0,-1.7681,-1.7726,-1.776,-1.7884,-1.8609,-1.9944,-2.2089,-2.3177,-2.477,-2.7453,-2.7861,-2.8548,-2.9935,-3.2195,-3.4356,-3.6307,-3.8629,-4.0055,-4.0254,-4.0163,-4.0163,-4.0263,-4.0883,-4.1365,-4.1774,-4.2494,-4.3328,-4.4184,-4.4238,-4.4477,-4.4831,-4.4886,-4.4674,-4.4265,-4.4373,-4.3562,-4.2259,-4.2334,-4.1763,-4.0799,-4.0871,-4.0847,-4.0744,-4.0087,-3.9529,0.0,0.0,-3.9617,-3.9412,-4.055,-4.0123,-3.8773,-3.656,-3.6829,0.0,-3.6933,0.0,0.0,0.0,-3.8056,-3.9158,-3.9859,-4.0964,-4.1858,-4.1852,-4.2943,-4.4184,-4.5245,-4.647,-4.7605,0.0,-4.9256,-5.004,-5.0908,-5.1472,-5.2151,-5.3197,-5.2772,-5.2537,-5.2883,-5.4169,-5.471,-5.4068,-5.4915,-5.5507,-5.5507,-5.5507,-5.5507,-5.5507,-5.5507,-5.5507,-5.5507,-5.5507,-5.5507,-5.5507,-5.5507,-5.5507,-5.5507,-5.5507,-5.5507,-5.5507,-5.5507,-5.5507,-5.5507,-5.5507,-5.5121,-5.4489,-5.4033,-5.319,-5.2059,-5.0338,-4.9477,-4.9048,0.0,0.0,0.0,-1.7484,-1.7531,-1.7601,-1.776,-1.8518,-1.9565,-2.0972,-2.1914,-2.3281,-2.5391,-2.575,-2.6193,-2.7112,-2.9902,-3.2493,-3.4569,-3.7494,-3.946,-4.0129,-4.0163,-4.0188,-4.0213,-4.0722,-4.1155,-4.1461,-4.2005,-4.2704,-4.356,-4.356,-4.3833,-4.4346,-4.4346,-4.4099,-4.3639,-4.3743,-4.3039,-4.1852,-4.195,-4.1585,-4.0894,-4.0894,-4.0665,-4.025,-3.9245,-3.8474,-3.7983,0.0,-3.7817,-3.8055,-3.8724,-3.851,-3.7656,-3.6326,-3.725,-3.8798,-3.9494,0.0,0.0,-3.9456,-4.0535,-4.1435,-4.1493,-4.2083,-4.2828,-4.3572,-4.4517,-4.5437,-4.6334,-4.7672,-4.8757,-4.918,-4.9756,-5.0519,-5.157,-5.1894,-5.2474,-5.3605,-5.3218,-5.2666,-5.2184,-5.3877,-5.4811,-5.4319,-5.5043,-5.5507,-5.5507,-5.5507,-5.5507,-5.5507,-5.5507,-5.5507,-5.5507,-5.5507,-5.5507,-5.5507,-5.5507,-5.5507,-5.5507,-5.5507,-5.5507,-5.5507,-5.5448,-5.5448,-5.5383,-5.5389,-5.5359,-5.5289,-5.4694,-5.4192,-5.3484,-5.138,-5.0187,-4.9521,0.0,0.0,0.0,0.0,-1.7365,-1.7507,-1.7749,-1.8472,-1.9299,-2.0139,-2.0892,-2.1812,-2.2962,-2.3168,-2.3596,-2.4534,-2.7832,-3.0751,-3.2854,-3.632,-3.8914,-4.0254,-4.0288,-4.0337,-4.0485,-4.0519,-4.0861,-4.1587,-4.1622,-4.1997,-4.274,-4.274,-4.2774,-4.2748,-4.2748,-4.2826,-4.2945,-4.2945,-4.2574,-4.1974,-4.1999,-4.1585,-4.0894,-4.0894,-4.0191,-3.9035,-3.8292,-3.8032,-3.7602,-3.496,-3.5717,-3.7356,-3.4871,-3.5805,0.0,-3.7425,-3.7754,0.0,0.0,0.0,-3.9211,-3.8985,-4.0515,-4.2127,-4.2241,-4.2828,-4.3606,-4.4412,-4.519,-4.6167,-4.7738,-4.8069,-4.846,-4.9507,-5.0321,-5.0828,-5.1016,-5.2321,-5.3003,-5.233,-5.2862,-5.2575,0.0,-5.2618,-5.4319,-5.5391,-5.5472,-5.5507,-5.5507,-5.5507,-5.5507,-5.5507,-5.5507,-5.5507,-5.5507,-5.5507,-5.5507,-5.5507,-5.5507,-5.5507,-5.5507,-5.5507,-5.5507,-5.5478,-5.5289,-5.5199,-5.5199,-5.5083,-5.5022,-5.5022,-5.4987,-5.5044,-5.4919,-5.3381,-5.1555,-4.9757,0.0,0.0,0.0,0.0,0.0,-1.7389,-1.7566,-1.832,-1.9157,-2.0009,-2.1366,0.0,0.0,0.0,0.0,0.0,-2.6929,-2.9413,-3.1428,-3.4699,-3.7331,-3.8971,-3.9571,-4.0054,-4.0485,-4.051,-4.0671,-4.1018,-4.1018,-4.1445,-4.223,-4.223,-4.2505,-4.3021,-4.3021,-4.2771,-4.228,-4.228,-4.1916,-4.1274,-4.1274,-4.1136,-4.0884,-4.0573,-3.919,-3.719,0.0,-3.4453,-3.3856,-3.2403,-3.2501,-3.3291,-3.3661,-3.3904,-3.4355,-3.5747,-3.691,-3.8042,0.0,0.0,-4.0715,-4.0941,-4.198,-4.2985,-4.3017,-4.4012,-4.5049,-4.5512,-4.559,-4.5792,-4.6576,-4.6618,-4.6866,-4.7822,-4.847,-4.9555,-5.1519,-5.1542,-5.1974,-5.3824,-5.296,0.0,0.0,0.0,0.0,-5.3335,-5.4649,-5.5507,-5.5507,-5.5507,-5.5507,-5.5507,-5.5507,-5.5507,-5.5507,-5.5507,-5.5507,-5.5507,-5.5264,-5.5144,-5.5144,-5.5144,-5.5299,-5.5478,-5.5448,-5.5324,-5.5199,-5.5139,-5.5079,-5.4992,-5.4992,-5.5022,-5.5013,-5.449,-5.3597,-5.2299,0.0,0.0,0.0,0.0,0.0,0.0,0.0,0.0,0.0,0.0,0.0,0.0,0.0,0.0,0.0,0.0,0.0,-2.7906,-2.9916,-3.2796,-3.5269,-3.7222,-3.7808,-3.8319,-3.8745,-3.9052,-3.9255,-3.9326,-4.0099,-4.0715,-4.1292,-4.1522,-4.1895,-4.2378,-4.2378,-4.2102,-4.1619,-4.1619,-4.1343,-4.0825,-4.0089,-3.9789,-3.9683,-3.8356,-3.6615,0.0,-3.2235,-3.0834,-3.0046,-2.9234,-2.9813,-3.0984,-3.1845,-3.2914,-3.411,-3.5623,-3.7047,-3.8618,0.0,-4.1556,-4.1754,-4.2506,-4.3544,-4.4381,-4.4381,-4.5331,-4.6374,-4.6812,-4.6638,-4.6239,-4.5779,-4.5614,-4.5866,-4.6673,-4.7315,-4.8802,-5.1928,-5.1824,-5.2129,-5.3908,-5.2797,0.0,0.0,0.0,0.0,-5.2819,-5.3965,-5.4774,-5.4889,-5.4803,-5.4934,-5.5507,-5.5389,-5.5389,-5.5507,-5.5507,-5.5507,-5.5478,-5.5144,-5.4992,-5.4992,-5.4869,-5.4769,-5.4717,-5.4959,-5.4885,-5.463,-5.4774,-5.49,-5.49,-5.4838,-5.4869,-5.49,-5.49,-5.4678,-5.4056,0.0,0.0,0.0,0.0,0.0,0.0,0.0,0.0,0.0,0.0,0.0,0.0,0.0,0.0,0.0,0.0,0.0,0.0,-2.8217,-3.0576,-3.2836,-3.5005,-3.5183,-3.5352,-3.5525,-3.6376,-3.6752,-3.6774,-3.8754,-3.9697,-3.9722,-4.0302,-4.0573,-4.0573,-4.0607,-4.0607,-4.0596,-4.0607,-4.0607,-4.0423,-3.843,-3.7638,-3.7356,-3.4619,-3.2844,-3.1492,-2.9052,0.0,0.0,-2.5852,0.0,0.0,0.0,-3.2809,-3.6694,-3.7113,-3.8241,-3.9662,-4.0989,-4.1731,-4.2433,-4.3621,-4.5002,-4.6088,-4.6122,-4.6703,-4.7387,-4.7996,-4.7831,-4.699,0.0,0.0,-4.5052,-4.5787,-4.6728,-4.8535,-5.1977,-5.3006,-5.3196,0.0,0.0,0.0,0.0,0.0,0.0,-5.3709,0.0,-5.3482,-5.3824,-5.3509,-5.4,-5.5413,-5.5144,-5.5113,-5.5448,-5.5478,-5.5448,-5.5419,-5.5113,-5.4961,-5.493,-5.462,-5.4061,-5.3387,-5.3956,-5.3996,-5.3659,-5.4025,-5.4431,-5.4749,-5.456,-5.4623,-5.478,-5.478,-5.4873,-5.4752,0.0,0.0,0.0,0.0,0.0,0.0,0.0,0.0,0.0,0.0,0.0,0.0,0.0,0.0,0.0,0.0,0.0,0.0,-2.6107,-2.7967,-2.9972,-3.2003,-3.2777,-3.3638,-3.4669,-3.4916,-3.505,-3.5129,-3.5625,-3.5882,-3.5916,-3.6058,-3.6173,-3.6232,-3.6846,-3.6816,-3.633,-3.6866,-3.6756,-3.6162,-3.5626,-3.5104,-3.4529,-3.3489,-3.1428,0.0,0.0,0.0,0.0,0.0,0.0,0.0,0.0,-3.4411,-3.5641,-3.8333,-3.9478,-4.0426,-4.2837,-4.3857,-4.4365,-4.5026,-4.5513,-4.5953,-4.6496,-4.7174,-4.7146,-4.5113,-4.3746,-4.1975,0.0,0.0,0.0,-4.162,-4.4526,0.0,-5.0414,-5.1451,0.0,0.0,0.0,-5.3044,-5.3723,-5.3721,0.0,0.0,-5.3758,-5.4244,-5.4305,-5.4244,-5.4391,-5.4745,-5.4652,-5.4652,-5.4745,-5.4992,-5.4869,-5.4399,-5.4557,-5.4494,-5.4239,-5.4175,-5.4126,-5.4217,-5.4353,-5.4284,-5.406,-5.4161,-5.4237,-5.4335,-5.4303,-5.4399,-5.4592,-5.4592,-5.4623,-5.4586,0.0,0.0,0.0,0.0,0.0,0.0,0.0,0.0,0.0,0.0,0.0,0.0,0.0,0.0,0.0,0.0,0.0,0.0,0.0,-2.6071,-2.7495,-2.8968,-2.9589,-3.0265,-3.1057,-3.1429,-3.1652,-3.1741,-3.2658,-3.3105,-3.3105,-3.3364,-3.3526,-3.3563,-3.4036,-3.3984,-3.3634,-3.4405,-3.4492,0.0,0.0,-3.2789,-3.1974,-3.049,-2.8591,0.0,0.0,0.0,0.0,0.0,0.0,-3.4379,-3.5829,-3.6762,-3.7755,-4.0187,0.0,-4.1882,-4.3903,-4.4613,-4.498,-4.5529,-4.6055,-4.6164,-4.5467,-4.5843,-4.5363,-4.1824,-4.0346,0.0,0.0,0.0,0.0,0.0,0.0,0.0,-5.0335,-5.143,-5.2059,0.0,-5.2672,0.0,-5.4129,-5.398,-5.3572,0.0,-5.3349,-5.361,-5.3762,-5.361,-5.3829,-5.4494,-5.4335,-5.4335,-5.4494,-5.4683,-5.4589,-5.4207,-5.4239,-5.4175,-5.398,-5.385,-5.3701,-5.3552,0.0,-5.3891,-5.361,-5.3864,-5.4076,-5.4173,-5.4143,-5.4207,-5.4367,-5.4303,-5.4367,-5.4463,0.0,0.0,0.0,0.0,0.0,0.0,0.0,0.0,0.0,0.0,-2.2119,0.0,0.0,0.0,0.0,0.0,0.0,0.0,0.0,0.0,0.0,-2.6149,-2.6289,-2.6435,-2.6631,0.0,0.0,0.0,0.0,0.0,-3.0567,-3.1081,-3.1374,-3.139,-3.1496,-3.1461,-3.1442,-3.2231,-3.2511,-3.2318,-3.1229,-3.029,-2.9383,0.0,0.0,0.0,0.0,0.0,0.0,0.0,-3.4812,-3.627,-3.7636,-3.9322,-4.1037,-4.2174,-4.286,-4.3441,-4.4477,-4.4665,-4.4818,-4.5635,-4.6481,-4.6617,-4.4578,-4.4171,-4.3024,-3.8965,0.0,-3.5878,-3.2912,0.0,-3.7037,-3.9882,0.0,-4.6558,-5.0344,-5.1708,-5.2317,-5.2345,-5.2323,-5.2705,-5.3646,-5.3514,-5.3448,-5.3484,-5.2838,-5.2597,-5.2863,-5.2627,-5.3042,-5.4333,-5.4078,-5.4045,-5.4335,-5.4399,-5.4399,-5.4335,-5.411,-5.398,-5.3915,-5.3618,-5.3132,-5.2516,-5.3205,0.0,-5.2909,-5.3464,-5.3882,-5.4141,-5.4013,-5.4045,-5.4175,-5.4045,-5.4175,-5.4399,0.0,0.0,0.0,0.0,0.0,0.0,0.0,0.0,0.0,0.0,-2.326,-2.3203,0.0,0.0,0.0,0.0,0.0,0.0,0.0,0.0,0.0,0.0,-2.4642,-2.5002,0.0,0.0,0.0,0.0,0.0,0.0,-2.6669,-2.6788,-2.6884,-2.7014,-2.7682,-2.7678,-2.7199,-2.7897,-2.7821,-2.7273,-2.6987,-2.6381,-2.5645,0.0,0.0,0.0,0.0,0.0,0.0,0.0,-3.6465,-3.9009,-4.0152,-4.0847,-4.1611,-4.3242,-4.3542,-4.3666,-4.5036,-4.5001,-4.4919,-4.6278,-4.6743,-4.7073,-4.7844,-4.5418,0.0,0.0,0.0,-3.2208,-3.1685,-3.3574,0.0,-4.0556,0.0,0.0,0.0,0.0,-5.1459,0.0,0.0,0.0,0.0,0.0,0.0,0.0,0.0,-5.3343,-5.3376,-5.3309,-5.3413,-5.3651,-5.3618,-5.3584,-5.3651,-5.3982,-5.3982,-5.3651,-5.3916,-5.3849,-5.3584,-5.3551,-5.3415,-5.331,-5.3449,0.0,-5.3376,-5.3516,-5.3617,-5.3782,-5.3783,-5.3882,-5.4013,-5.4013,-5.4045,-5.4078,0.0,0.0,0.0,0.0,0.0,0.0,0.0,-2.1167,-2.258,-2.5161,-2.5394,-2.5314,-2.5407,-2.4332,-2.396,0.0,0.0,0.0,0.0,0.0,0.0,0.0,0.0,0.0,0.0,0.0,0.0,0.0,0.0,0.0,0.0,0.0,0.0,0.0,0.0,0.0,0.0,0.0,0.0,0.0,0.0,0.0,0.0,0.0,0.0,0.0,0.0,0.0,0.0,0.0,-3.4569,-3.836,-4.0655,-4.1629,-4.2245,-4.376,-4.4105,-4.4272,-4.526,-4.5054,-4.4953,-4.6413,-4.6786,-4.6157,-4.3681,0.0,0.0,0.0,0.0,-2.7424,-2.7427,0.0,0.0,0.0,0.0,0.0,0.0,0.0,0.0,0.0,0.0,0.0,0.0,0.0,0.0,0.0,0.0,-5.306,-5.3484,-5.3518,-5.3518,-5.3518,-5.3518,-5.3518,-5.3518,-5.3651,-5.3651,-5.3518,-5.3651,-5.3651,-5.3518,-5.3518,-5.3518,-5.3518,-5.3518,0.0,-5.2912,-5.3345,-5.3307,-5.3038,-5.341,-5.3684,-5.3849,-5.3849,-5.3948,-5.411,0.0,0.0,0.0,0.0,0.0,0.0,0.0,-2.1528,-2.3251,-2.6246,-2.6992,-2.6989,-2.6322,-2.5273,-2.453,0.0,0.0,0.0,0.0,0.0,0.0,0.0,0.0,0.0,0.0,0.0,0.0,0.0,0.0,0.0,0.0,0.0,0.0,0.0,0.0,0.0,0.0,0.0,0.0,0.0,0.0,0.0,0.0,0.0,0.0,0.0,0.0,0.0,0.0,0.0,-3.1907,-3.5563,-3.919,-4.1248,-4.2533,-4.341,-4.407,-4.4647,-4.5153,-4.4961,-4.4919,-4.6244,-4.6549,-4.5162,-3.9756,-3.7775,0.0,0.0,-2.4765,-2.3836,-2.4725,0.0,0.0,0.0,0.0,0.0,0.0,0.0,0.0,0.0,0.0,0.0,0.0,0.0,0.0,0.0,0.0,0.0,-5.3484,-5.3518,-5.3518,-5.3518,-5.3518,-5.3518,-5.3518,-5.3518,-5.3518,-5.3518,-5.3518,-5.3518,-5.3518,-5.3518,-5.3518,-5.3518,-5.3518,0.0,0.0,-5.3169,-5.3024,-5.2394,-5.3171,-5.3551,-5.3651,-5.3684,-5.3882,-5.411,0.0,0.0,0.0,0.0,0.0,0.0,0.0,-2.1504,-2.3834,-2.6661,-2.6659,-2.6837,-2.7944,-2.7143,-2.6087,0.0,0.0,0.0,0.0,0.0,0.0,0.0,0.0,0.0,0.0,0.0,0.0,0.0,0.0,0.0,0.0,0.0,0.0,0.0,0.0,0.0,0.0,0.0,0.0,0.0,0.0,0.0,0.0,0.0,0.0,0.0,0.0,0.0,0.0,0.0,0.0,-3.063,-3.4878,-3.8824,-4.1789,-4.1418,0.0,0.0,-4.4599,-4.4637,-4.4818,-4.5602,-4.5805,-4.501,-4.192,0.0,0.0,-3.0462,-2.6006,-2.3959,-2.7748,-2.798,-3.0213,0.0,0.0,0.0,0.0,0.0,0.0,0.0,0.0,0.0,0.0,0.0,0.0,0.0,0.0,0.0,-5.3518,-5.3518,-5.3518,-5.3518,-5.3518,-5.3518,-5.3518,-5.3518,-5.3518,-5.3518,-5.3518,-5.3518,-5.3518,-5.3518,-5.3518,-5.3518,-5.3518,0.0,0.0,-5.3169,-5.3024,-5.2394,-5.3171,-5.3518,-5.3517,-5.3651,-5.3717,-5.3783,0.0,0.0,0.0,0.0,0.0,0.0,-2.0016,-2.1628,-2.37,-2.6609,-2.682,-2.6968,-2.7572,-2.691,-2.5954,-2.4735,0.0,0.0,0.0,0.0,0.0,0.0,0.0,0.0,0.0,0.0,0.0,0.0,0.0,0.0,0.0,0.0,0.0,0.0,0.0,0.0,0.0,0.0,0.0,0.0,0.0,0.0,0.0,0.0,0.0,0.0,0.0,0.0,0.0,0.0,0.0,0.0,-2.9769,-3.3172,0.0,0.0,-4.1509,-4.3019,-4.3944,-4.4376,-4.4784,-4.5534,-4.6041,-4.497,-3.966,0.0,0.0,-2.7564,-2.3928,-2.2376,-2.4028,-2.3661,-2.5525,0.0,0.0,0.0,0.0,0.0,0.0,0.0,0.0,0.0,0.0,0.0,0.0,0.0,0.0,0.0,-5.3484,-5.3518,-5.3518,-5.3518,-5.3518,-5.3518,-5.3518,-5.3518,-5.3518,-5.3518,-5.3518,-5.3518,-5.3518,-5.3518,-5.3518,-5.3518,-5.3518,0.0,0.0,-5.2985,-5.2757,-5.1786,-5.3022,-5.3518,-5.3551,-5.3651,-5.3783,-5.3915,0.0,0.0,0.0,0.0,0.0,-1.8513,-1.9896,-2.1564,-2.3482,-2.58,-2.6197,-2.6345,-2.6619,-2.5555,-2.4595,-2.3948,-2.3526,0.0,0.0,0.0,0.0,0.0,0.0,0.0,0.0,0.0,-2.3653,-2.323,-2.3904,0.0,0.0,0.0,0.0,0.0,0.0,0.0,0.0,0.0,0.0,0.0,0.0,0.0,0.0,0.0,0.0,0.0,0.0,0.0,0.0,0.0,0.0,0.0,0.0,0.0,0.0,0.0,-3.9645,-4.1635,-4.294,-4.3907,-4.4716,-4.5229,-4.5151,-4.3306,0.0,0.0,-3.2039,-2.4849,-2.2062,-2.0937,-2.0963,-2.0306,-2.185,-2.8273,0.0,0.0,0.0,0.0,0.0,0.0,0.0,0.0,0.0,0.0,0.0,0.0,0.0,0.0,-5.3484,-5.3518,-5.3518,-5.3518,-5.3518,-5.3518,-5.3518,-5.3518,-5.3518,-5.3518,-5.3518,-5.3381,-5.3168,-5.3381,-5.3381,-5.3135,-5.3381,0.0,0.0,-5.2948,-5.2719,-5.1649,-5.2985,-5.3518,-5.3551,-5.3651,-5.3783,-5.3915,0.0,0.0,0.0,0.0,0.0,0.0,-1.8868,-2.1276,-2.3295,-2.411,-2.438,-2.473,-2.5241,-2.3126,-2.1941,-2.2671,-2.2353,0.0,0.0,0.0,0.0,0.0,0.0,0.0,0.0,0.0,-2.2189,-2.2313,-2.2397,-2.2813,-2.3493,0.0,0.0,0.0,0.0,0.0,0.0,0.0,0.0,0.0,0.0,0.0,0.0,0.0,0.0,0.0,0.0,0.0,0.0,0.0,0.0,0.0,0.0,-2.6681,-2.8213,0.0,-3.6955,-4.0539,-4.1536,-4.3182,-4.4615,-4.4615,-4.2566,-3.9453,0.0,0.0,-2.7683,-2.3403,-2.1225,-2.01,-2.0115,-1.9461,-2.0804,-2.6589,-2.9031,0.0,0.0,0.0,0.0,0.0,0.0,0.0,0.0,0.0,0.0,0.0,0.0,0.0,-5.3518,-5.3518,-5.3518,-5.3518,-5.3518,-5.3518,-5.3518,-5.3518,-5.3518,-5.3518,-5.3518,-5.3096,-5.232,-5.3134,-5.3094,0.0,0.0,0.0,0.0,-5.3169,-5.3024,-5.2359,-5.3203,-5.3518,-5.3551,-5.3651,-5.3717,-5.375,0.0,0.0,0.0,0.0,0.0,0.0,0.0,-1.9278,-2.0751,-2.2592,-2.2018,-2.2056,-2.3743,-2.1966,-2.0941,-2.1662,-2.1398,0.0,0.0,0.0,0.0,0.0,0.0,0.0,0.0,-2.2774,-2.3414,-2.3463,-2.4184,-2.4378,-2.4127,-2.4486,-2.3998,0.0,0.0,0.0,0.0,0.0,0.0,0.0,0.0,0.0,0.0,0.0,0.0,0.0,0.0,0.0,0.0,0.0,0.0,0.0,0.0,0.0,0.0,-2.7968,-3.1588,-3.5093,-3.5957,-3.7128,-3.7991,-3.7478,-3.7477,-3.644,-3.2193,0.0,-2.8172,-2.3351,-2.1115,-1.9853,-1.9298,-1.9003,-2.0947,-2.7472,-2.8558,0.0,0.0,0.0,0.0,0.0,0.0,0.0,0.0,0.0,0.0,0.0,0.0,0.0,-5.3484,-5.3518,-5.3518,-5.3518,-5.3518,-5.3518,-5.3518,-5.3518,-5.3518,-5.3518,-5.3518,-5.3062,-5.2349,-5.3134,-5.306,0.0,0.0,0.0,0.0,-5.3169,-5.3024,-5.2394,-5.3171,-5.3518,-5.3518,-5.3551,-5.3617,-5.3717,0.0,0.0,0.0,0.0,0.0,0.0,0.0,-1.8242,-1.9439,-2.0956,-2.0382,-2.0479,-2.2117,-2.071,-1.9954,-2.0804,-2.0619,0.0,0.0,0.0,0.0,0.0,0.0,0.0,-2.1324,-2.2132,-2.298,-2.3885,-2.4497,-2.4713,-2.4645,-2.4861,-2.3967,-2.2194,-2.242,0.0,0.0,0.0,0.0,0.0,0.0,0.0,-2.0683,0.0,0.0,0.0,0.0,0.0,0.0,0.0,0.0,0.0,0.0,0.0,0.0,0.0,-2.717,-2.9526,0.0,-3.3603,-3.4507,-3.4046,-3.3869,0.0,0.0,0.0,-2.6033,-2.258,-2.2147,-2.168,-1.9232,-2.06,-2.2965,-2.5574,0.0,0.0,0.0,0.0,0.0,0.0,0.0,0.0,0.0,0.0,0.0,0.0,0.0,0.0,-5.3484,-5.3518,-5.3518,-5.3518,-5.3518,-5.3518,-5.3518,-5.3518,-5.3518,-5.3518,-5.3518,-5.3062,-5.2349,-5.3134,-5.306,0.0,0.0,0.0,0.0,-5.331,-5.3205,-5.2798,-5.3277,-5.3518,-5.3518,-5.3518,-5.3551,-5.3617,0.0,0.0,0.0,0.0,0.0,0.0,0.0,-1.7922,-1.9148,-1.924,-1.933,-1.9659,-2.0397,-1.9361,-1.9015,-1.9989,0.0,0.0,0.0,0.0,0.0,0.0,0.0,0.0,-2.1071,-2.0507,-2.1324,-2.3702,-2.37,-2.416,-2.5056,-2.443,-2.3323,-2.1845,-2.1359,-2.0659,-1.9868,-1.9822,-1.8972,-1.7723,-1.8337,-1.9085,0.0,0.0,0.0,0.0,0.0,0.0,0.0,0.0,0.0,0.0,0.0,0.0,0.0,0.0,0.0,0.0,0.0,-3.1827,-3.3127,-3.3093,-3.1218,-2.9228,0.0,0.0,0.0,-2.1654,-2.4158,-2.503,-2.0504,-2.4225,-2.6653,-2.2631,0.0,0.0,0.0,0.0,0.0,0.0,0.0,0.0,0.0,0.0,0.0,0.0,0.0,0.0,-5.3518,-5.3518,-5.3518,-5.3518,-5.3518,-5.3518,-5.3518,-5.3518,-5.3484,-5.3415,-5.3484,-5.306,-5.2235,-5.3098,-5.306,0.0,0.0,0.0,0.0,-5.3518,-5.3518,-5.3518,-5.3518,-5.3518,-5.3518,-5.3518,-5.3518,-5.3518,0.0,0.0,0.0,0.0,0.0,0.0,0.0,0.0,0.0,0.0,-1.7565,-1.7505,-1.8259,-1.805,-1.8173,0.0,0.0,0.0,0.0,0.0,0.0,0.0,0.0,0.0,-2.0115,-2.0701,-2.1859,-2.3565,-2.4308,-2.5036,-2.5796,-2.6249,-2.5144,-2.2718,-2.2597,-2.1511,-1.9697,-1.8976,-1.8533,-1.8245,-1.7859,-1.8527,0.0,0.0,0.0,0.0,-2.2363,-2.2528,0.0,0.0,0.0,0.0,0.0,0.0,0.0,0.0,-2.3448,-2.3506,-2.4725,0.0,-2.6492,-2.5925,-2.5735,-2.5345,0.0,0.0,0.0,0.0,0.0,0.0,0.0,0.0,0.0,0.0,0.0,0.0,0.0,0.0,0.0,0.0,0.0,0.0,0.0,0.0,0.0,0.0,0.0,-5.3518,-5.3518,-5.3518,-5.3518,-5.3518,-5.3518,-5.3518,-5.3518,-5.3518,-5.3172,-5.2513,-5.3173,-5.2732,-5.136,-5.2809,-5.306,0.0,0.0,0.0,-5.3518,-5.3518,-5.3518,-5.3518,-5.3518,-5.3518,-5.3518,-5.3518,-5.3518,-5.3518,0.0,0.0,0.0,0.0,0.0,0.0,0.0,0.0,0.0,0.0,0.0,-1.6919,-1.7075,-1.7387,0.0,0.0,0.0,0.0,0.0,0.0,0.0,0.0,0.0,-1.8592,-1.9641,-2.0241,-2.1874,-2.4504,-2.5291,-2.6138,-2.7015,-2.7081,-2.5766,-2.3273,-2.2312,-2.087,-1.9081,-1.8542,-1.8155,-1.7922,-1.7819,0.0,0.0,0.0,0.0,0.0,-2.1832,-2.2085,0.0,-2.2609,-2.2414,-2.2254,0.0,0.0,0.0,0.0,-2.294,-2.2729,-2.3117,-2.402,-2.5086,-2.603,-2.5578,-2.5055,-2.5627,0.0,0.0,0.0,0.0,0.0,0.0,0.0,0.0,0.0,0.0,0.0,0.0,0.0,0.0,0.0,0.0,0.0,0.0,0.0,0.0,0.0,0.0,-5.3518,-5.3518,-5.3518,-5.3518,-5.3518,-5.3518,-5.3518,-5.3518,-5.3518,-5.3034,-5.2119,-5.3068,-5.278,-5.1507,-5.2887,-5.3275,0.0,0.0,0.0,-5.3484,-5.3067,-5.3138,-5.3518,-5.3518,-5.3518,-5.3518,-5.3518,-5.3518,-5.345,0.0,0.0,0.0,0.0,0.0,0.0,0.0,0.0,0.0,0.0,0.0,0.0,0.0,0.0,0.0,0.0,0.0,0.0,0.0,0.0,0.0,0.0,-1.724,-1.7529,-1.9483,-1.9751,-2.166,-2.5334,-2.6141,-2.7023,-2.8003,-2.7702,-2.6237,-2.3801,-2.1814,-2.0036,-1.8548,-1.849,-1.8071,-1.7506,-1.7994,0.0,0.0,0.0,0.0,0.0,0.0,0.0,0.0,-2.2255,-2.2302,-2.23,-2.2586,0.0,0.0,0.0,0.0,0.0,-2.3033,-2.4576,-2.6506,-2.9161,-2.7732,-2.6409,-2.9241,0.0,0.0,0.0,0.0,0.0,0.0,0.0,0.0,0.0,0.0,0.0,0.0,0.0,0.0,0.0,0.0,0.0,0.0,0.0,0.0,0.0,0.0,-5.3518,-5.3518,-5.3518,-5.3518,-5.3518,-5.3518,-5.3518,-5.3518,-5.3518,-5.3002,-5.2027,-5.3036,-5.3,-5.2062,-5.3037,-5.3518,-5.345,0.0,0.0,-5.3416,-5.2735,-5.2846,-5.3517,-5.3382,-5.3348,-5.3348,-5.3348,-5.3348,-5.3213,0.0,0.0,0.0,0.0,0.0,0.0,0.0,0.0,0.0,0.0,0.0,0.0,0.0,0.0,0.0,0.0,0.0,0.0,0.0,0.0,0.0,-1.8788,-1.8803,-1.9043,-1.9562,-2.0256,-2.161,-2.3682,-2.5694,-2.6854,-2.723,-2.9538,-2.8509,-2.4641,-2.3079,-2.1223,-1.9306,-1.9148,-1.8697,-1.8136,-1.8189,0.0,0.0,0.0,0.0,0.0,0.0,0.0,0.0,-2.1236,-2.1122,-2.0891,-2.2276,0.0,0.0,0.0,0.0,0.0,-2.3393,-2.5993,-2.8397,-2.9512,-2.8087,-2.704,-2.9317,0.0,0.0,0.0,0.0,0.0,0.0,0.0,0.0,0.0,0.0,0.0,0.0,0.0,0.0,0.0,0.0,0.0,0.0,0.0,0.0,0.0,0.0,-5.3518,-5.3518,-5.3518,-5.3518,-5.3518,-5.3518,-5.3518,-5.3518,-5.3518,-5.3033,-5.2175,-5.3068,-5.3031,-5.2179,-5.3103,-5.3518,-5.3484,0.0,-5.348,-5.3484,-5.3479,-5.3545,-5.3584,-5.28,-5.2522,-5.2629,-5.2629,-5.2629,-5.2524,0.0,0.0,0.0,0.0,0.0,0.0,0.0,0.0,0.0,0.0,0.0,0.0,0.0,0.0,0.0,0.0,0.0,0.0,0.0,0.0,-1.8403,-1.8821,-1.9389,-1.9809,-2.0074,-2.1241,-2.3047,-2.5535,-2.7404,-2.8637,-2.9237,-2.9305,-2.7539,-2.4196,-2.3063,-2.1153,-1.8805,-1.8657,-1.8227,-1.7643,0.0,0.0,0.0,0.0,0.0,0.0,0.0,0.0,0.0,0.0,-2.0953,-2.0951,-2.216,0.0,0.0,0.0,0.0,0.0,-2.2345,-2.4468,-2.7322,-3.2174,-3.1411,-3.0819,-3.58,0.0,0.0,0.0,0.0,0.0,0.0,0.0,0.0,0.0,0.0,0.0,0.0,0.0,0.0,0.0,0.0,0.0,0.0,0.0,0.0,0.0,0.0,0.0,-5.3518,-5.3518,-5.3518,-5.3518,-5.3518,-5.3518,-5.3518,-5.3518,-5.3034,-5.2119,-5.3036,-5.3033,-5.2123,-5.307,-5.3518,-5.3484,0.0,-5.313,-5.3484,-5.3058,-5.2901,-5.2904,-5.2485,-5.2059,-5.174,-5.174,-5.1447,-5.1038,0.0,0.0,0.0,0.0,0.0,0.0,0.0,0.0,0.0,0.0,0.0,0.0,0.0,0.0,0.0,0.0,0.0,0.0,0.0,-1.8518,-1.8578,-1.8981,-1.9295,-2.0024,-2.1224,-2.2342,-2.4358,-2.7358,-2.8908,-3.02,-3.1213,-2.867,-2.6178,-2.383,-2.267,-2.0689,-1.8189,-1.8143,-1.7675,-1.7113,0.0,0.0,0.0,0.0,0.0,0.0,0.0,0.0,0.0,0.0,0.0,0.0,0.0,0.0,0.0,-2.1296,-2.0487,-1.9762,-2.1702,-2.3219,-2.61,-3.369,0.0,-3.3127,-4.1433,0.0,0.0,0.0,0.0,0.0,0.0,0.0,0.0,0.0,0.0,0.0,0.0,0.0,0.0,0.0,0.0,0.0,0.0,0.0,0.0,0.0,0.0,0.0,-5.3518,-5.3518,-5.3484,-5.3551,-5.3551,-5.3551,-5.3618,-5.3618,-5.3172,-5.2364,-5.3107,-5.3106,-5.2364,-5.3141,-5.3518,-5.345,-5.2809,-5.2917,-5.345,-5.2841,-5.2464,-5.231,-5.2095,-5.1586,-5.0957,-5.0957,-5.0538,-4.9994,0.0,0.0,0.0,0.0,0.0,0.0,0.0,0.0,0.0,0.0,0.0,0.0,0.0,0.0,0.0,0.0,0.0,0.0,0.0,-1.8185,-1.8123,-1.9588,-1.8442,-1.955,-2.3392,-2.351,-2.4752,-2.7306,-2.8798,-3.0289,-3.166,-2.8315,-2.5926,-2.4353,-2.2345,-2.0264,-1.8189,-1.8143,-1.7675,-1.7049,-1.7789,0.0,0.0,0.0,0.0,0.0,0.0,0.0,0.0,0.0,0.0,0.0,0.0,0.0,-2.0359,-2.1169,-2.034,-1.9783,-2.2746,-2.421,-2.6182,-3.1765,-3.0491,0.0,-4.1784,-3.7303,0.0,-4.2441,0.0,0.0,0.0,0.0,0.0,0.0,0.0,0.0,0.0,0.0,0.0,0.0,0.0,0.0,0.0,0.0,0.0,0.0,0.0,0.0,-5.3518,-5.3518,-5.3551,-5.3684,-5.3684,-5.3783,-5.3948,-5.3948,-5.3782,-5.3415,-5.3484,-5.345,-5.3415,-5.345,-5.3518,-5.3484,-5.3582,-5.3549,-5.3484,-5.3582,-5.3146,-5.2418,-5.1553,-5.0887,-5.0435,-5.0435,-5.0397,-5.0352,0.0,0.0,0.0,0.0,0.0,0.0,0.0,0.0,0.0,0.0,0.0,-1.876,-1.8644,0.0,0.0,0.0,0.0,0.0,0.0,-1.7294,-1.7571,-1.8246,-1.8204,-1.9587,-2.2632,-2.3716,-2.5571,-2.8293,-2.9012,-2.9735,-3.0298,-2.7634,-2.5195,-2.2966,-2.2129,-2.0381,-1.7996,-1.8001,-1.7786,-1.7527,-1.775,-1.7463,0.0,0.0,0.0,0.0,0.0,0.0,0.0,0.0,-1.9358,-1.9943,-2.0638,-2.0475,-2.0094,-2.0467,-1.921,-1.8245,-2.0856,-2.252,-2.5222,-3.2505,-3.189,0.0,0.0,-3.9813,-3.807,0.0,0.0,0.0,0.0,0.0,0.0,0.0,0.0,0.0,0.0,0.0,0.0,0.0,0.0,0.0,0.0,0.0,0.0,0.0,0.0,0.0,-5.3518,-5.3584,-5.3651,-5.3717,-5.3717,-5.3816,-5.398,-5.398,-5.3915,-5.3817,-5.3651,-5.3584,-5.3518,-5.3518,-5.3518,-5.345,-5.3041,-5.287,-5.2903,-5.2451,-5.1809,-5.0995,-5.0143,-4.9701,-4.951,-4.967,-4.963,-4.9541,0.0,0.0,0.0,0.0,0.0,0.0,0.0,0.0,-1.8361,0.0,0.0,0.0,0.0,-1.8807,0.0,0.0,0.0,0.0,-1.7214,-1.7168,-1.7369,-1.7731,-1.8258,-1.951,-2.1652,-2.3302,-2.559,-2.8482,-2.8942,-2.9148,-2.9064,-2.6586,-2.4468,-2.2681,-2.1992,-2.0623,-1.885,-1.8389,-1.8155,-1.8053,-1.765,-1.7159,0.0,0.0,0.0,0.0,0.0,0.0,0.0,0.0,-1.8831,-1.9458,-2.0049,-2.0256,-2.0256,-2.036,-1.9486,-1.8856,-2.0496,-2.1892,-2.4687,-3.2226,0.0,0.0,-4.2034,-4.1295,0.0,0.0,0.0,0.0,0.0,0.0,0.0,0.0,0.0,0.0,0.0,0.0,0.0,0.0,0.0,0.0,0.0,0.0,0.0,0.0,0.0,0.0,0.0,-5.3717,-5.3816,-5.3882,-5.3882,-5.3948,-5.4143,-5.4143,-5.411,-5.4045,-5.3915,-5.3783,-5.3651,-5.3651,-5.3618,-5.3517,-5.2731,-5.2451,-5.2555,-5.1733,-5.0951,-5.0253,-4.9493,-4.92,-4.9241,-4.9331,-4.9291,-4.92,0.0,0.0,0.0,0.0,0.0,0.0,0.0,0.0,-1.7871,-1.8405,-1.847,0.0,0.0,0.0,0.0,0.0,0.0,0.0,-1.9303,-1.8016,-1.7561,-1.8431,-1.8565,-1.9283,-2.073,-2.235,-2.4615,-2.758,-2.8358,-2.8589,-2.8166,-2.5178,-2.3866,-2.3877,-2.1877,-2.0957,-2.0911,-1.9521,-1.8858,-1.8614,-1.7332,-1.6694,-1.653,0.0,0.0,0.0,0.0,0.0,0.0,0.0,-1.8378,-1.8847,-2.0323,-2.0891,-2.0994,-2.1041,-2.1586,-2.2228,-2.2341,-2.294,-2.483,0.0,0.0,0.0,0.0,0.0,0.0,0.0,0.0,0.0,0.0,0.0,0.0,0.0,0.0,0.0,0.0,0.0,0.0,0.0,0.0,0.0,0.0,0.0,0.0,0.0,0.0,0.0,0.0,-5.398,-5.4078,-5.4207,-5.4207,-5.4303,-5.4494,-5.4494,-5.4399,-5.4207,-5.4207,-5.4143,-5.398,-5.398,-5.3882,-5.3651,-5.2837,-5.2557,-5.252,-5.1733,-5.1027,-5.0448,-4.9821,-4.9613,-4.9613,-4.9613,-4.9613,-4.9573,0.0,0.0,0.0,0.0,0.0,0.0,0.0,0.0,-1.6884,-1.6561,-1.6944,0.0,0.0,0.0,0.0,0.0,0.0,0.0,-1.6391,-1.6342,-1.6523,-1.6952,-1.7462,-1.8246,-1.9235,-2.1284,-2.3702,-2.6406,-2.6125,-2.5727,-2.5183,-2.4283,-2.3078,-2.1785,-2.4207,-2.3291,-2.0115,-2.1745,-2.127,-1.9404,-1.8485,-1.8091,-1.8016,0.0,0.0,0.0,0.0,0.0,0.0,0.0,0.0,0.0,-1.9054,-2.0323,-2.2045,-2.4397,-2.3287,-2.2017,-2.5462,-2.5734,0.0,0.0,0.0,0.0,0.0,0.0,0.0,0.0,0.0,0.0,0.0,0.0,0.0,0.0,0.0,0.0,0.0,0.0,0.0,0.0,0.0,0.0,0.0,0.0,0.0,0.0,0.0,0.0,0.0,-5.4078,-5.4175,-5.4207,-5.4207,-5.4303,-5.4494,-5.4494,-5.4463,-5.4399,-5.4399,-5.4271,-5.398,-5.398,-5.365,-5.3009,-5.2208,-5.1667,-5.129,-5.0454,-5.0018,-4.986,-4.9661,-4.9613,-4.9613,-4.9773,-4.9733,-4.9582,0.0,0.0,0.0,0.0,0.0,0.0,-1.6316,-1.6285,-1.6207,-1.5982,-1.6403,-1.6754,0.0,0.0,0.0,0.0,0.0,0.0,0.0,-1.6153,-1.6259,-1.665,-1.7445,-1.8263,-1.9109,-2.0491,-2.2026,-2.3666,-2.4072,-2.3838,-2.3133,-2.3614,-2.3185,-2.2114,-2.4977,-2.4409,-2.139,-2.256,-2.1929,-2.0114,-1.942,-1.8931,-1.8586,0.0,0.0,0.0,0.0,0.0,0.0,0.0,0.0,0.0,-1.8381,-2.042,-2.2867,-2.4041,-2.4147,-2.4629,-2.7978,0.0,0.0,0.0,0.0,0.0,0.0,0.0,0.0,0.0,0.0,0.0,0.0,0.0,0.0,0.0,0.0,0.0,0.0,0.0,0.0,0.0,0.0,0.0,0.0,0.0,0.0,0.0,0.0,0.0,0.0,-5.4271,-5.4335,-5.4335,-5.4335,-5.4367,-5.4494,-5.4494,-5.4494,-5.4529,-5.4207,-5.3946,-5.3749,-5.3749,-5.3281,-5.2451,-5.1631,-5.0919,-5.0299,-4.986,-4.9733,-4.9733,-4.9733,-4.9733,-4.9701,-4.9852,-4.9733,-4.9501,0.0,0.0,-1.7609,-1.8282,0.0,0.0,-1.6978,-1.6219,-1.5697,-1.6194,-1.6418,-1.6326,0.0,0.0,0.0,-1.6831,-1.6848,-1.7227,-1.8027,-1.6949,-1.6601,-1.7289,-1.8195,-1.9061,-1.9869,-1.997,-2.008,-2.021,-2.2164,-2.2692,-2.1914,-2.3135,-2.3733,-2.3841,-2.4776,-2.4586,-2.3557,-2.2433,-2.1421,-2.0458,-1.9941,-1.9248,-1.8526,-1.7939,0.0,0.0,0.0,0.0,0.0,0.0,0.0,0.0,-1.8036,-2.0632,-2.3096,-2.1582,-2.4634,-2.8828,-3.0171,0.0,0.0,0.0,0.0,0.0,0.0,0.0,0.0,0.0,0.0,0.0,0.0,0.0,0.0,0.0,0.0,0.0,0.0,0.0,0.0,0.0,0.0,0.0,0.0,0.0,0.0,0.0,0.0,0.0,0.0,-5.4494,-5.4494,-5.4494,-5.4494,-5.4494,-5.4494,-5.4494,-5.4463,-5.4399,-5.3716,-5.3315,-5.3213,-5.3281,-5.2802,-5.1878,-5.1065,-5.0299,-4.9622,-4.9852,-4.9892,-4.9892,-4.9892,-4.9892,-4.9892,-4.9892,-4.9653,-4.934,0.0,0.0,-1.6848,-1.7581,0.0,0.0,-1.5902,-1.5352,-1.4938,-1.5137,-1.517,-1.5342,-1.5663,-1.6427,0.0,-1.6726,-1.7192,-1.7395,-1.7193,-1.7021,-1.7289,-1.8185,-1.9016,-1.9576,-1.9815,-1.9952,-1.9802,-1.9451,-2.0508,-2.1286,-2.1747,-2.2613,-2.3022,-2.3135,-2.5577,-2.4674,-2.1481,-2.2875,-2.1788,-1.9121,-1.8978,-1.882,-1.8616,-1.7953,-1.762,0.0,0.0,0.0,0.0,0.0,0.0,0.0,-1.7216,-1.8404,-2.013,-2.3428,-2.645,-2.9479,0.0,-3.3943,0.0,0.0,0.0,0.0,0.0,0.0,0.0,0.0,0.0,0.0,0.0,0.0,0.0,0.0,0.0,0.0,0.0,0.0,0.0,0.0,0.0,0.0,0.0,0.0,0.0,0.0,0.0,0.0,-5.4494,-5.4494,-5.4494,-5.4494,-5.4494,-5.4494,-5.4494,-5.4494,-5.4207,0.0,-5.3483,-5.2802,-5.1623,-5.2172,-5.2029,-5.1252,-5.0448,-5.001,-4.9852,-4.9892,-4.9892,-4.9892,-4.9892,-4.9892,-4.9892,-4.9892,-4.9653,-4.93,0.0,0.0,0.0,0.0,0.0,0.0,0.0,0.0,-1.5112,-1.5117,-1.5478,-1.5836,-1.6197,-1.6789,0.0,0.0,-1.7576,-1.7676,-1.738,-1.6934,-1.7061,-1.7971,-1.8969,-1.9432,-1.9294,-1.9015,-1.897,-1.914,-1.9234,-1.9924,-2.1258,-2.3028,-2.3872,-2.4024,-2.5399,-2.4453,-2.1854,-2.2213,-2.0934,-1.8772,-1.9435,-1.9309,-1.8677,-1.8315,-1.7778,-1.7097,-1.6492,0.0,0.0,0.0,0.0,0.0,0.0,0.0,-2.0109,-2.1576,-2.4347,-2.774,0.0,0.0,0.0,0.0,0.0,0.0,0.0,0.0,0.0,0.0,0.0,0.0,0.0,0.0,0.0,0.0,0.0,0.0,0.0,0.0,0.0,0.0,0.0,0.0,0.0,0.0,0.0,0.0,0.0,-5.4494,-5.4494,-5.4494,-5.4494,-5.4494,-5.4494,-5.4494,-5.4494,-5.4494,-5.4143,-5.3382,-5.3009,-5.2026,-5.0563,-5.0919,-5.0881,-5.0525,-5.0058,-4.9892,-4.9892,-4.9892,-4.9892,-4.9892,-4.9892,-4.9892,-4.9892,-4.9892,-4.9501,-4.8975,0.0,0.0,0.0,0.0,0.0,0.0,0.0,0.0,0.0,-1.5708,-1.6285,-1.6744,-1.6792,-1.7341,-1.7653,0.0,0.0,0.0,-1.7759,-1.7014,-1.6848,-1.7482,-1.8596,-1.898,-1.8587,-1.8047,-1.8208,-1.9123,-1.8646,-1.9596,-2.188,-2.4258,-2.5592,-2.5935,-2.5448,-2.429,-2.2611,-2.0997,-1.9563,-1.8426,-1.9578,-1.9357,-1.83,-1.8346,-1.762,-1.656,-1.6066,-1.5881,-1.5977,-1.653,0.0,0.0,0.0,0.0,-2.0002,-1.8386,-2.115,-2.5316,0.0,0.0,0.0,0.0,0.0,0.0,0.0,0.0,0.0,0.0,0.0,0.0,0.0,0.0,0.0,0.0,0.0,0.0,0.0,0.0,0.0,0.0,0.0,0.0,0.0,0.0,0.0,0.0,0.0,-5.4494,-5.4494,-5.4494,-5.4494,-5.4494,-5.4494,-5.4431,-5.4303,-5.4303,-5.3881,-5.2975,-5.2172,-5.1112,-4.9892,-4.9892,-4.9892,-4.9892,-4.9892,-4.9892,-4.9892,-4.9892,-4.9892,-4.9892,-4.9852,-4.9812,-4.9812,-4.9812,-4.9219,-4.8563,0.0,0.0,0.0,0.0,0.0,0.0,0.0,0.0,0.0,0.0,-1.6635,-1.6744,-1.6792,-1.7341,-1.7501,-1.7049,-1.7648,-1.7834,-1.7245,0.0,0.0,-1.7512,-1.8258,-1.8502,-1.8105,-1.8015,-1.84,-1.9286,-1.9815,-2.2254,-2.6436,-2.6692,-2.7604,-2.894,-2.7635,-2.4831,-2.1,-1.9453,-1.8012,-1.6813,-1.7015,-1.697,-1.6795,-1.6867,-1.6754,-1.6591,-1.6632,-1.6658,-1.6575,-1.6102,-1.5955,0.0,0.0,0.0,0.0,-1.6096,-2.0017,-2.4182,0.0,0.0,0.0,0.0,0.0,0.0,0.0,0.0,0.0,0.0,0.0,0.0,0.0,0.0,0.0,0.0,0.0,0.0,0.0,0.0,0.0,0.0,0.0,0.0,0.0,0.0,0.0,0.0,-5.4494,-5.4494,-5.4494,-5.4494,-5.4494,-5.4494,-5.4494,-5.4207,-5.355,-5.355,-5.2836,-5.1401,-5.057,-5.0097,-4.9892,-4.9892,-4.9892,-4.9892,-4.9892,-4.9892,-4.9892,-4.9892,-4.9892,-4.9892,-4.9533,-4.9381,-4.9381,-4.9381,-4.8811,-4.8133,0.0,0.0,0.0,0.0,0.0,0.0,0.0,0.0,0.0,0.0,0.0,-1.7925,-1.8016,-1.7931,-1.7777,-1.7555,-1.7592,-1.7342,-1.675,-1.734,-1.7512,-1.6965,-1.806,-1.8386,-1.7842,-1.7938,-1.8202,-1.8588,-1.856,-2.2232,-2.9251,-2.9251,-3.0013,-3.1435,-3.1288,-2.8233,-2.3211,-2.218,-1.9957,-1.7127,-1.7155,-1.7847,-1.873,-1.7624,-1.7936,0.0,0.0,0.0,0.0,0.0,-1.6244,-1.6244,-1.6244,0.0,0.0,0.0,0.0,0.0,0.0,0.0,0.0,0.0,0.0,0.0,0.0,0.0,0.0,0.0,0.0,0.0,0.0,0.0,0.0,0.0,0.0,0.0,0.0,0.0,0.0,0.0,0.0,0.0,0.0,0.0,0.0,0.0,-5.4494,-5.4494,-5.4494,-5.4494,-5.4494,-5.4494,-5.4494,-5.4175,-5.3416,-5.3382,-5.2629,-5.1065,-5.0292,-4.9773,-4.9541,-4.9541,-4.9693,-4.9892,-4.9892,-4.9892,-4.9892,-4.9892,-4.9892,-4.9892,-4.9493,-4.9331,-4.9291,-4.8975,-4.8521,-4.8007,0.0,0.0,0.0,0.0,0.0,0.0,0.0,0.0,0.0,0.0,0.0,0.0,-1.8749,0.0,0.0,0.0,-1.7226,-1.6757,-1.621,-1.7073,-1.7223,-1.6303,-1.7842,-1.8253,-1.7252,-1.759,-1.7744,-1.7761,-1.7486,-2.1757,-3.0209,-3.0872,-3.2287,-3.4334,-3.4385,-3.1657,-2.6908,-2.5978,-2.3163,-1.9371,-2.0147,-2.0653,-2.0867,0.0,0.0,-2.1774,-1.9075,0.0,0.0,0.0,0.0,0.0,0.0,0.0,0.0,0.0,0.0,0.0,0.0,0.0,0.0,0.0,0.0,0.0,0.0,0.0,0.0,0.0,0.0,0.0,0.0,0.0,0.0,0.0,0.0,0.0,0.0,0.0,0.0,0.0,0.0,0.0,0.0,0.0,0.0,0.0,-5.4494,-5.4494,-5.4494,-5.4494,-5.4494,-5.4494,-5.4335,-5.3881,-5.3078,-5.2699,-5.1918,-5.0794,-5.0097,-4.9582,-4.9291,-4.921,-4.9259,-4.9582,-4.9693,-4.9773,-4.9773,-4.9852,-4.9892,-4.9852,-4.9331,-4.9097,-4.9056,-4.8604,-4.8175,-4.7837,0.0,0.0,0.0,0.0,0.0,0.0,0.0,0.0,0.0,0.0,0.0,0.0,-1.8097,-1.8029,-1.7545,-1.6385,-1.6378,-1.618,-1.5595,-1.7381,-1.7604,-1.5728,-1.762,0.0,-1.6021,-1.6712,-1.709,-1.715,-1.7761,-2.165,-2.8584,-3.0813,-3.4118,-3.8131,-3.6058,-3.3933,-3.1727,-2.9894,0.0,0.0,0.0,0.0,0.0,0.0,0.0,0.0,0.0,0.0,0.0,0.0,0.0,0.0,0.0,0.0,0.0,0.0,0.0,0.0,0.0,0.0,0.0,0.0,0.0,0.0,0.0,0.0,0.0,0.0,0.0,0.0,0.0,0.0,0.0,0.0,0.0,0.0,0.0,0.0,0.0,0.0,0.0,0.0,0.0,0.0,0.0,0.0,-5.4494,-5.4494,-5.4494,-5.4494,-5.4494,-5.4494,-5.3815,-5.3078,-5.2279,-5.0805,-5.0018,-4.9971,-4.9501,-4.93,-4.9259,-4.8811,-4.8646,-4.8687,-4.9138,-4.9331,-4.9372,-4.9773,-4.9892,-4.9812,-4.8975,-4.8646,-4.8563,-4.8175,-4.7709,-4.7396,0.0,0.0,0.0,0.0,0.0,0.0,0.0,0.0,0.0,0.0,0.0,0.0,0.0,-1.835,-1.798,-1.759,-1.6884,-1.6199,-1.5551,-1.6216,-1.6528,-1.6247,-1.7491,-1.7629,-1.6443,-1.7683,-1.7669,-1.6275,-1.7624,-2.0763,-2.554,-2.739,-3.0942,-3.589,-3.9144,-3.7306,-3.1894,-3.4023,0.0,0.0,0.0,0.0,0.0,0.0,0.0,0.0,0.0,0.0,0.0,0.0,0.0,0.0,0.0,0.0,0.0,0.0,0.0,0.0,0.0,0.0,0.0,0.0,0.0,0.0,0.0,0.0,0.0,0.0,0.0,0.0,0.0,0.0,0.0,0.0,0.0,0.0,0.0,0.0,0.0,0.0,0.0,0.0,0.0,0.0,0.0,0.0,0.0,-5.3241,-5.4428,-5.341,-5.3085,-5.3781,-5.3516,-5.2768,-5.1516,-5.0416,-4.9892,-4.9892,-4.9461,-4.9138,-4.8811,-4.8427,-4.8049,-4.7794,-4.826,-4.8635,-4.8852,-4.9015,-4.9056,-4.9015,-4.8469,-4.8218,-4.8175,-4.7709,-4.7409,-4.7352,0.0,0.0,0.0,-1.9169,0.0,-1.9065,-1.8922,-1.896,-1.8998,-1.9036,0.0,0.0,0.0,0.0,-1.8793,-1.8397,-1.7853,-1.7164,-1.626,-1.6678,-1.6962,-1.6962,-1.8022,-1.8115,-1.7055,-1.8152,-1.7896,-1.6187,-1.7349,-1.9588,-2.2765,-2.462,-2.786,-3.2385,-3.6954,-3.7392,0.0,0.0,0.0,-2.8896,0.0,0.0,-3.0928,0.0,0.0,0.0,0.0,0.0,0.0,0.0,0.0,0.0,0.0,0.0,0.0,0.0,0.0,0.0,0.0,0.0,0.0,0.0,0.0,0.0,0.0,0.0,0.0,0.0,0.0,0.0,0.0,0.0,0.0,0.0,0.0,0.0,0.0,0.0,0.0,0.0,0.0,0.0,0.0,0.0,0.0,0.0,0.0,0.0,-5.3647,-5.2567,-5.2168,-5.2596,-5.2629,-5.199,-5.0717,-5.0175,-4.9892,-4.9892,-4.9461,-4.9056,-4.8563,-4.8175,-4.7752,-4.7309,-4.7624,-4.8007,-4.8396,-4.8521,-4.8604,-4.8563,-4.8175,-4.8007,-4.7922,-4.7482,-4.7352,-4.7439,-1.9381,-1.9685,-1.9818,-1.9741,-1.9789,-1.9669,-1.9227,-1.9084,-1.9065,-1.9159,0.0,0.0,0.0,0.0,0.0,-1.8685,-1.923,-1.9058,-1.769,-1.8877,-1.9061,-1.7788,-1.9174,-1.9282,-1.7758,-1.7938,-1.7683,-1.7015,-1.7015,-1.816,-2.0375,-2.2744,-2.5338,-2.8049,-2.9166,-3.3803,-4.0869,0.0,-4.2443,-3.9818,0.0,-3.9482,-3.6411,0.0,0.0,0.0,-3.6434,-3.5003,0.0,-3.1571,0.0,0.0,0.0,0.0,0.0,0.0,0.0,0.0,0.0,0.0,0.0,0.0,0.0,0.0,0.0,0.0,0.0,0.0,0.0,0.0,0.0,0.0,0.0,0.0,0.0,0.0,0.0,0.0,0.0,0.0,0.0,0.0,0.0,0.0,0.0,0.0,-5.2597,-5.2142,-5.2208,-5.2208,-5.1849,-5.1102,-5.1065,-5.0717,-4.9931,-4.9892,-4.9892,-4.9892,-4.9493,-4.9015,-4.8563,-4.8175,-4.7709,-4.7309,-4.7309,-4.7568,-4.8007,-4.8396,-4.8563,-4.8521,-4.8133,-4.7964,-4.7922,-4.7482,-4.7439,-4.7581,-2.1105,-2.1198,-2.1118,-2.0711,-2.0645,-2.0677,-2.0615,-2.0186,-2.0089,0.0,0.0,0.0,-2.0784,-2.1484,-2.1376,-2.0061,-2.0225,-1.9606,-1.7785,-1.8041,-1.8296,-1.8433,-1.8912,-1.8993,-1.8581,-1.865,-1.8138,-1.6925,-1.7455,-1.8003,-1.8628,-1.9854,-2.1432,-2.3316,-2.5993,-2.8984,-3.2367,-3.8035,0.0,-3.1173,-4.188,-4.1578,0.0,0.0,0.0,0.0,0.0,-3.8218,-3.675,0.0,-3.1484,-2.6626,0.0,0.0,0.0,0.0,0.0,0.0,-1.5857,0.0,0.0,0.0,0.0,0.0,0.0,-2.6724,0.0,0.0,0.0,0.0,0.0,0.0,0.0,0.0,0.0,0.0,0.0,0.0,0.0,0.0,0.0,0.0,0.0,0.0,0.0,0.0,-5.1107,-5.0834,-5.2142,-5.1667,-5.1327,-5.1102,-5.0525,-5.0136,-4.9892,-4.9582,-4.9582,-4.9892,-4.8852,-4.8438,-4.8563,-4.7837,-4.7439,-4.7309,-4.7309,-4.7396,-4.7525,-4.7624,-4.7666,-4.7624,-4.7568,-4.7495,-4.7482,-4.7352,-4.7439,-4.7624,-2.1657,-2.1867,-2.1967,-2.1851,-2.1865,-2.195,-2.2106,-2.1733,-2.1645,0.0,0.0,0.0,-2.3079,-2.4037,-2.3851,-2.1973,-2.1625,-2.0797,-1.9074,-1.8685,-1.8702,-1.9091,-1.9226,-1.9394,-1.9629,-1.9209,-1.8744,-1.818,-1.8047,-1.785,-1.753,-1.7987,-1.8644,-1.9521,-2.1161,-2.2896,0.0,0.0,0.0,0.0,-4.1167,0.0,0.0,-4.2542,-4.2862,0.0,0.0,0.0,-3.9985,-3.936,-3.5184,0.0,0.0,0.0,0.0,0.0,0.0,0.0,0.0,0.0,0.0,0.0,0.0,0.0,-2.183,-2.5727,-2.9842,0.0,0.0,0.0,0.0,0.0,0.0,0.0,0.0,0.0,0.0,0.0,0.0,0.0,0.0,0.0,0.0,-5.1921,-5.174,-5.174,-5.044,-5.0122,-5.1192,-5.0838,-5.0602,-5.0602,-5.0136,-4.9892,-4.9892,-4.9501,-4.9452,-4.9653,-4.8687,-4.8301,-4.8343,-4.7837,-4.7482,-4.7309,-4.7309,-4.7309,-4.7309,-4.7309,-4.7309,-4.7309,-4.7309,-4.7309,-4.7309,-4.7366,-4.7538,-4.7794,0.0,-2.2185,-2.2577,-2.3045,-2.3229,-2.3422,-2.3681,-2.3518,-2.3467,0.0,-2.4498,-2.5276,-2.604,-2.7081,-2.6746,-2.4358,-2.337,-2.2353,-2.1107,-2.0258,-1.9839,-1.9917,-1.9912,-2.0152,-2.0726,-1.9657,-1.9368,-1.9884,-1.8532,-1.7592,-1.7091,-1.6955,-1.6894,-1.6864,-1.6306,-1.7121,-1.9232,0.0,0.0,-4.0029,-3.9599,-4.2232,0.0,0.0,-4.3184,-4.3164,-4.3452,-4.3238,-4.2883,-4.3079,-3.8832,0.0,0.0,0.0,0.0,0.0,-2.2924,0.0,0.0,0.0,0.0,0.0,0.0,0.0,-2.2465,-2.6174,-2.9649,0.0,0.0,0.0,0.0,0.0,0.0,0.0,0.0,0.0,0.0,0.0,0.0,0.0,0.0,0.0,-5.1586,-5.1169,-5.0855,-5.0855,-5.026,-4.9892,-4.9852,-4.9852,-4.9812,-4.9773,-4.9773,-4.9773,-4.9773,-4.9372,-4.921,-4.925,-4.8687,-4.8301,-4.8007,-4.7964,-4.7666,-4.7309,-4.7309,-4.7309,-4.7309,-4.7309,-4.7309,-4.7352,-4.7352,-4.7352,-4.7352,-4.7538,-4.7794,-4.8049,-2.3766,-2.3422,-2.329,-2.3922,-2.4063,-2.4463,-2.564,-2.4928,-2.4855,-2.6553,-2.7385,-2.8252,-2.9415,-2.8876,-2.8188,-2.7679,-2.5531,-2.3887,-2.3101,-2.1455,-2.0767,-2.1276,-2.0843,-2.0726,-2.0951,-2.02,-1.9611,-1.9216,-1.7787,-1.7271,-1.7537,-1.7105,-1.6894,-1.6894,-1.6878,-1.7395,-1.8434,0.0,0.0,-3.3585,-3.8697,0.0,-4.4364,-4.5488,-4.5609,-4.5112,-4.497,-4.4699,-4.4195,0.0,-3.995,-3.674,0.0,0.0,0.0,0.0,0.0,0.0,0.0,0.0,0.0,0.0,0.0,0.0,-1.9405,-2.0734,-2.3033,0.0,0.0,0.0,0.0,0.0,0.0,0.0,0.0,0.0,0.0,0.0,0.0,0.0,0.0,0.0,-4.8225,-4.8885,-4.9349,-4.9349,-4.9662,-4.9773,-4.9421,-4.9452,-4.9219,-4.8852,-4.8852,-4.8852,-4.8852,-4.8438,-4.8427,-4.8728,-4.7922,-4.7709,-4.7964,-4.7581,-4.7396,-4.7309,-4.7309,-4.7309,-4.7309,-4.7309,-4.7396,-4.7538,-4.7538,-4.7538,-4.7581,-4.7837,-4.7964,-4.8049,-2.3814,-2.3607,-2.3763,-2.4703,-2.4904,-2.5628,-2.7667,-2.7185,-2.739,-2.9744,-3.0911,-3.139,-3.1032,-3.0731,0.0,0.0,0.0,0.0,0.0,-2.2084,-2.1216,-2.1216,-2.0595,-2.0591,-2.134,-2.0412,-2.0068,-2.04,-1.9036,-1.834,-1.8307,-1.796,0.0,0.0,-1.8011,0.0,0.0,0.0,-2.4761,-3.1114,-3.7187,0.0,-4.508,-4.6589,-4.6987,-4.6579,-4.5617,-4.5218,-4.4901,-4.3536,-4.1753,0.0,0.0,-3.4545,-3.1417,0.0,-2.7666,-2.7241,0.0,0.0,0.0,-2.4376,0.0,0.0,0.0,-2.2362,-2.3988,0.0,0.0,0.0,0.0,0.0,0.0,0.0,0.0,0.0,0.0,0.0,0.0,0.0,0.0,0.0,-4.6959,-4.7434,-4.7973,-4.8545,-4.8693,-4.8916,-4.93,-4.9087,-4.8811,-4.8604,-4.8604,-4.8604,-4.8604,-4.8218,-4.8091,-4.8301,-4.7624,-4.7439,-4.7624,-4.7439,-4.7309,-4.7309,-4.7309,-4.7352,-4.7482,-4.7482,-4.7624,-4.7922,-4.7709,-4.7666,-4.7837,-4.8049,-4.8175,-4.8175,-2.3548,-2.3569,-2.3947,-2.5057,-2.5544,-2.6572,-2.8873,-2.8846,-2.9535,-3.2168,-3.3784,0.0,0.0,0.0,0.0,0.0,0.0,0.0,0.0,0.0,-2.2636,-2.1655,-2.0767,-2.0767,-2.1844,-2.0753,-2.058,-2.1411,-2.0207,-1.9364,-1.8869,-1.8749,0.0,0.0,0.0,0.0,0.0,0.0,0.0,-3.2169,0.0,-4.1555,-4.5016,-4.7103,-4.7479,-4.6799,-4.597,-4.5693,-4.5555,-4.4699,0.0,-4.1934,-4.1738,-3.9124,0.0,0.0,0.0,0.0,0.0,0.0,0.0,0.0,0.0,-2.4741,0.0,0.0,0.0,0.0,0.0,0.0,0.0,0.0,0.0,0.0,0.0,0.0,0.0,0.0,0.0,0.0,0.0,0.0,0.0,-4.5279,-4.6354,-4.787,-4.7605,-4.7833,-4.8798,-4.8502,-4.8315,-4.8355,-4.8385,-4.8385,-4.8385,-4.8049,-4.788,-4.7837,-4.7482,-4.7309,-4.7309,-4.7309,-4.7309,-4.7309,-4.7309,-4.7396,-4.7538,-4.7581,-4.7837,-4.8218,-4.788,-4.788,-4.8091,-4.8301,-4.8343,-4.8343,-2.4321,-2.4007,-2.3849,-2.4552,-2.5681,-2.6806,-2.7675,-2.8248,-2.9535,0.0,0.0,0.0,0.0,0.0,0.0,0.0,0.0,0.0,-3.1628,0.0,0.0,-2.4967,-2.3268,-2.2413,-2.25,-2.1894,-2.108,-2.0038,-1.9338,-1.8912,-1.8719,-1.8646,0.0,0.0,-2.0539,0.0,0.0,0.0,-3.3498,0.0,-4.2479,-4.2331,0.0,-4.6344,-4.6705,-4.4315,-4.6369,-4.707,-4.6711,0.0,-4.3566,-4.2913,0.0,-3.8084,-3.6518,0.0,0.0,0.0,0.0,0.0,0.0,0.0,-2.8611,0.0,0.0,0.0,0.0,0.0,0.0,0.0,0.0,0.0,0.0,0.0,0.0,0.0,0.0,0.0,0.0,0.0,0.0,0.0,0.0,-4.0391,-4.3769,-4.6607,-4.6744,-4.6852,-4.723,-4.7209,-4.7273,-4.7452,-4.7439,-4.7439,-4.7439,-4.7396,-4.7396,-4.7396,-4.7352,-4.7309,-4.7309,-4.7309,-4.7309,-4.7309,-4.7309,-4.7309,-4.7352,-4.7495,-4.7752,-4.8049,-4.8175,-4.826,-4.8301,-4.848,-4.8438,-4.8343,-2.4036,-2.3789,-2.3819,-2.4485,-2.5053,-2.6183,-2.8423,-3.1898,0.0,0.0,0.0,0.0,0.0,0.0,0.0,0.0,0.0,-3.7482,0.0,0.0,0.0,0.0,0.0,0.0,-2.3199,-2.2244,-2.1274,-2.0325,-1.9648,-1.9301,-1.9271,0.0,0.0,0.0,-2.2621,0.0,-3.0836,0.0,-3.532,0.0,0.0,0.0,0.0,-4.614,-4.7434,-4.5808,-4.6184,-4.6736,-4.689,0.0,-4.4579,0.0,0.0,0.0,0.0,0.0,0.0,0.0,0.0,0.0,0.0,0.0,0.0,0.0,-2.7616,0.0,-2.369,0.0,0.0,0.0,0.0,0.0,0.0,0.0,0.0,0.0,0.0,0.0,0.0,0.0,0.0,0.0,0.0,0.0,0.0,0.0,-4.1998,-4.2065,-4.3678,-4.5556,-4.6611,-4.6741,-4.71,-4.7309,-4.7309,-4.7309,-4.7309,-4.7309,-4.7309,-4.7309,-4.7309,-4.7309,-4.7309,-4.7309,-4.7309,-4.7482,-4.7709,-4.7794,-4.8049,-4.8385,-4.8438,-4.8438,-4.848,-4.8563,-4.8521,-4.848,-2.3939,0.0,0.0,0.0,0.0,-2.6249,-2.9594,0.0,0.0,0.0,0.0,0.0,-4.3149,-4.2204,0.0,0.0,-4.2746,-4.1694,0.0,0.0,-3.3917,0.0,0.0,0.0,0.0,0.0,-2.1894,-2.0688,-2.0117,-1.9879,-1.9959,0.0,0.0,0.0,0.0,-2.776,-3.3084,0.0,0.0,-4.1662,-4.3246,-4.2751,-4.15,-4.5406,-4.7061,-4.7189,-4.6371,-4.6599,-4.6933,-4.4429,-4.4899,0.0,-4.3528,0.0,0.0,0.0,0.0,0.0,-3.6514,0.0,0.0,0.0,0.0,0.0,0.0,0.0,0.0,0.0,0.0,0.0,0.0,0.0,0.0,0.0,0.0,0.0,0.0,0.0,0.0,0.0,0.0,0.0,0.0,0.0,0.0,0.0,0.0,-3.8344,-4.0766,-4.4148,-4.6142,-4.6279,-4.695,-4.7309,-4.7309,-4.7309,-4.7309,-4.7309,-4.7309,-4.7309,-4.7309,-4.7309,-4.7309,-4.7309,-4.7352,-4.7581,-4.788,-4.8049,-4.826,-4.8521,-4.8563,-4.8604,-4.8604,-4.8604,-4.8604,-4.8604,-2.4455,-2.4059,0.0,0.0,0.0,0.0,0.0,0.0,0.0,0.0,0.0,0.0,0.0,0.0,0.0,0.0,0.0,-4.7346,-4.4837,0.0,-3.9435,0.0,0.0,-2.888,0.0,0.0,0.0,0.0,0.0,0.0,0.0,0.0,0.0,0.0,0.0,-2.8667,-3.3642,-3.8906,-4.3557,-4.7372,-4.8106,-4.784,-4.6693,0.0,-4.4537,-4.7309,-4.7249,0.0,0.0,-4.4459,-4.4078,0.0,0.0,0.0,0.0,0.0,0.0,0.0,0.0,0.0,0.0,-3.4394,0.0,0.0,0.0,0.0,-2.6448,0.0,0.0,0.0,0.0,0.0,0.0,0.0,0.0,0.0,0.0,0.0,0.0,0.0,0.0,0.0,0.0,0.0,0.0,0.0,0.0,0.0,-3.9529,-4.3289,-4.5633,-4.6249,-4.695,-4.7309,-4.7309,-4.7309,-4.7309,-4.7309,-4.7309,-4.7309,-4.7309,-4.7309,-4.7309,-4.7309,-4.7525,-4.7581,-4.7624,-4.8091,-4.8301,-4.8343,-4.8521,-4.8604,-4.8604,-4.8604,-4.8604,-4.8604,-2.6309,0.0,0.0,0.0,0.0,0.0,0.0,-3.6049,0.0,0.0,0.0,0.0,0.0,-4.8338,-4.8555,0.0,0.0,-5.0098,-4.9029,-4.5783,0.0,0.0,0.0,-3.5652,0.0,0.0,0.0,0.0,0.0,0.0,0.0,0.0,0.0,0.0,0.0,-2.9101,0.0,0.0,0.0,0.0,0.0,-4.7159,-4.5933,0.0,0.0,-4.7309,-4.7309,-4.7309,0.0,-4.5327,-4.5477,-4.6196,-4.5087,-4.4098,-4.3768,-4.5807,-4.3738,0.0,0.0,0.0,-4.2346,-4.0297,0.0,0.0,0.0,0.0,0.0,0.0,0.0,0.0,0.0,0.0,0.0,0.0,0.0,0.0,0.0,0.0,0.0,0.0,0.0,0.0,0.0,0.0,0.0,0.0,0.0,0.0,0.0,-3.8973,-4.2496,-4.3178,-4.5436,-4.686,-4.7309,-4.7309,-4.7309,-4.7309,-4.7309,-4.7309,-4.7309,-4.7309,-4.7396,-4.7495,-4.7581,-4.7794,-4.8091,-4.826,-4.8385,-4.851,-4.8563,-4.8604,-4.8604,-4.8604,-4.8604,-4.8604,-2.715,0.0,0.0,0.0,0.0,0.0,0.0,0.0,0.0,0.0,-4.5981,0.0,-5.0311,0.0,-4.9829,0.0,-5.175,-5.1839,-5.1508,-4.8308,0.0,-4.8913,-4.3836,0.0,0.0,0.0,0.0,0.0,0.0,-2.4074,0.0,0.0,0.0,0.0,0.0,0.0,-3.3186,0.0,-4.2781,0.0,0.0,-4.6863,0.0,0.0,-4.7013,-4.7309,0.0,-4.7309,-4.7189,-4.6292,-4.6591,-4.716,-4.6292,-4.5723,-4.5633,-4.692,-4.5185,-4.321,-4.4915,-4.5065,0.0,-4.3,-4.0134,0.0,-3.5282,0.0,0.0,0.0,0.0,0.0,0.0,0.0,0.0,0.0,0.0,0.0,0.0,-1.7471,0.0,0.0,0.0,0.0,0.0,0.0,0.0,0.0,0.0,0.0,0.0,0.0,-4.0678,-4.1573,-4.4657,-4.6651,-4.7309,-4.7309,-4.7309,-4.7309,-4.7309,-4.7309,-4.7309,-4.7396,-4.7452,-4.7624,-4.7794,-4.8007,-4.8301,-4.8385,-4.848,-4.8604,-4.8604,-4.8604,-4.8604,-4.8604,-4.8604,-4.8604,-2.7116,-2.7275,0.0,0.0,-3.025,0.0,0.0,0.0,-4.4997,0.0,-4.872,-4.9402,-5.1843,-5.0603,-5.0279,-5.1972,-5.2545,-5.2692,-5.2422,-4.9182,0.0,0.0,-4.5457,-4.2758,-4.5277,0.0,0.0,0.0,0.0,0.0,0.0,0.0,0.0,0.0,-2.5334,0.0,-2.9231,-3.6669,-4.1145,-4.3472,-4.6051,-4.7141,-4.7146,-4.6317,-4.6539,-4.7309,-4.7309,-4.7309,-4.7309,-4.7309,-4.7309,-4.7309,-4.7309,-4.7309,-4.7309,-4.7309,-4.7309,-4.7309,-4.7309,-4.7309,-4.6411,-4.2611,-4.1534,0.0,0.0,0.0,-3.8033,0.0,0.0,0.0,0.0,0.0,0.0,0.0,0.0,0.0,0.0,0.0,0.0,0.0,0.0,0.0,0.0,0.0,0.0,0.0,0.0,0.0,0.0,0.0,-3.989,-4.1483,-4.4447,-4.6441,-4.7249,-4.7219,-4.7249,-4.7309,-4.7309,-4.7309,-4.7309,-4.7495,-4.7624,-4.7666,-4.8133,-4.8301,-4.8343,-4.8521,-4.8604,-4.8604,-4.8604,-4.8604,-4.8604,-4.8604,-4.8604,-4.8604,-2.9519,-3.0494,-3.2436,0.0,-3.5765,-3.8203,0.0,0.0,0.0,0.0,-4.948,-4.9864,-5.2165,-5.1688,-5.1508,-5.2311,-5.2763,0.0,0.0,0.0,0.0,-5.2371,-5.052,-4.8795,-4.7395,-4.4916,0.0,-3.9996,0.0,0.0,-3.0058,0.0,0.0,0.0,0.0,0.0,-2.9784,-3.5874,-4.1118,-4.5274,-4.5495,-4.5848,0.0,0.0,-4.6698,-4.7309,-4.7309,-4.7309,-4.7309,-4.7309,-4.7309,-4.7309,-4.7309,-4.7309,-4.7309,-4.7309,-4.7309,-4.7309,-4.7309,-4.7309,-4.707,-4.6052,-4.3569,-4.1115,0.0,0.0,0.0,0.0,0.0,0.0,0.0,0.0,0.0,0.0,0.0,0.0,0.0,0.0,0.0,-1.7709,0.0,0.0,0.0,0.0,0.0,0.0,0.0,0.0,0.0,0.0,0.0,-4.0678,-4.155,-4.3419,-4.6561,-4.6052,-4.6322,-4.7309,-4.7309,-4.7396,-4.7495,-4.7581,-4.7794,-4.8133,-4.826,-4.8355,-4.8521,-4.8563,-4.8604,-4.8604,-4.8604,-4.8604,-4.8604,-4.8604,-4.8604,-4.8604,-3.1446,-3.3571,0.0,-3.8546,0.0,0.0,-4.4189,-4.6766,0.0,-5.1604,-5.1707,0.0,-5.3492,-5.3325,-5.325,-5.3614,-5.3873,0.0,-5.3823,0.0,0.0,-5.2975,-5.2518,-5.1197,-4.8871,-4.7842,0.0,-4.4871,0.0,0.0,-3.3314,0.0,0.0,0.0,0.0,-2.6483,0.0,-3.5962,-4.127,-4.5161,-4.5369,0.0,0.0,-4.6241,-4.6655,-4.7309,-4.7309,-4.7309,-4.7309,-4.7309,-4.7309,-4.7309,-4.7309,-4.7309,-4.7309,-4.7309,-4.7309,-4.7309,-4.7309,-4.7309,-4.7309,-4.7309,-4.5633,-4.3988,-4.3988,-4.309,-4.2073,0.0,0.0,0.0,0.0,0.0,0.0,0.0,0.0,0.0,0.0,0.0,0.0,0.0,0.0,0.0,0.0,0.0,0.0,0.0,0.0,0.0,0.0,0.0,0.0,-3.7459,-4.0261,-4.2611,-4.4586,-4.4496,-4.5125,-4.6441,-4.6441,-4.6869,-4.7581,-4.7709,-4.7964,-4.8271,-4.8385,-4.851,-4.8604,-4.8604,-4.8604,-4.8604,-4.8604,-4.8604,-4.8604,-4.8604,-4.8604,-4.8604,-3.3724,0.0,0.0,0.0,0.0,0.0,0.0,-4.9539,0.0,-5.3765,0.0,-5.4689,-5.5085,-5.4889,-5.4819,-5.5055,0.0,-5.5196,-5.5114,-5.4294,-5.3798,-5.3848,-5.2955,-5.1847,-5.0496,-4.9787,0.0,0.0,0.0,0.0,0.0,0.0,0.0,0.0,0.0,0.0,0.0,-3.6663,-4.1527,-4.4459,-4.5548,-4.6437,-4.7086,-4.6407,-4.6629,-4.7309,-4.7309,-4.7309,-4.7309,-4.7309,-4.7309,-4.7309,-4.7309,-4.7309,-4.7309,-4.7309,-4.7309,-4.7309,-4.7309,-4.7309,-4.7309,-4.7309,-4.7309,-4.7309,-4.7309,-4.7309,-4.7309,-4.7309,-4.686,-4.607,0.0,0.0,0.0,0.0,0.0,0.0,0.0,0.0,0.0,0.0,0.0,0.0,0.0,0.0,0.0,0.0,0.0,0.0,0.0,0.0,0.0,-3.4028,-3.9529,-4.2512,-4.253,0.0,-4.4107,-4.5544,-4.5364,-4.6119,-4.7666,-4.7922,-4.8175,-4.8385,-4.8521,-4.8604,-4.8604,-4.8604,-4.8604,-4.8604,-4.8604,-4.8604,-4.8604,-4.8604,-4.8604,-4.8604,0.0,0.0,0.0,0.0,0.0,-4.954,-5.1424,-5.2499,-5.3658,-5.5214,-5.4766,-5.4525,-5.5147,-5.4662,-5.4503,-5.4867,-5.5076,0.0,0.0,0.0,0.0,-5.4616,-5.4589,-5.4456,-5.4186,-5.331,-5.2906,0.0,0.0,0.0,0.0,0.0,0.0,0.0,0.0,0.0,-3.5528,-3.7834,0.0,-4.5667,-4.5905,-4.6083,-4.6317,-4.6864,-4.7146,-4.7309,-4.7309,-4.7309,-4.7309,-4.7309,-4.7309,-4.7309,-4.7309,-4.7309,-4.7309,-4.7309,-4.7309,-4.7309,-4.7309,-4.7309,-4.7309,-4.7309,-4.7309,-4.7309,-4.7309,-4.7309,-4.7309,-4.7309,-4.7219,-4.707,-4.6787,0.0,0.0,0.0,0.0,0.0,0.0,0.0,0.0,0.0,0.0,0.0,0.0,0.0,0.0,0.0,0.0,0.0,0.0,0.0,0.0,0.0,-3.7411,0.0,0.0,0.0,-4.4463,-4.695,-4.5855,-4.6286,-4.7922,-4.8175,-4.8385,-4.8521,-4.8563,-4.8604,-4.8604,-4.8604,-4.8604,-4.8604,-4.8604,-4.8604,-4.8604,-4.8604,-4.8604,-4.8604,0.0,0.0,0.0,0.0,0.0,0.0,0.0,-5.3967,-5.5036,-5.588,-5.5861,-5.5928,-5.6243,-5.6017,-5.5885,-5.6119,-5.6034,-5.6059,-5.6297,-5.6155,-5.585,-5.5418,-5.5572,0.0,-5.3676,-5.415,-5.3947,-5.3,0.0,0.0,0.0,0.0,0.0,0.0,0.0,-3.1067,0.0,0.0,0.0,-4.562,-4.6748,-4.7388,-4.7746,-4.8207,-4.8327,-4.8327,-4.8327,-4.8327,-4.8207,-4.7549,-4.7309,-4.7309,-4.7309,-4.7309,-4.7309,-4.7309,-4.7309,-4.7309,-4.7309,-4.7309,-4.7309,-4.7309,-4.7309,-4.7309,-4.7309,-4.7309,-4.7309,-4.7309,-4.7309,-4.6758,-4.4982,-4.1969,0.0,0.0,0.0,0.0,0.0,0.0,0.0,0.0,0.0,0.0,0.0,0.0,0.0,0.0,0.0,0.0,0.0,0.0,0.0,0.0,0.0,0.0,0.0,0.0,0.0,-4.6262,-4.58,-4.6411,-4.8007,-4.8218,-4.8396,-4.8604,-4.8604,-4.8604,-4.8604,-4.8604,-4.8604,-4.8604,-4.8604,-4.8604,-4.8604,-4.8604,-4.8604,-4.8604,0.0,-4.7878,0.0,0.0,-5.0627,0.0,-5.3912,-5.5345,-5.6331,-5.6612,-5.7151,-5.7553,-5.7758,-5.772,-5.7606,-5.731,-5.7218,-5.7051,-5.6684,-5.6861,-5.6639,-5.5852,-5.6196,-5.548,-5.3503,-5.4678,-5.4612,0.0,0.0,0.0,0.0,0.0,0.0,0.0,0.0,0.0,0.0,0.0,-4.4471,-4.6122,-4.7804,-4.885,-4.9299,-4.9299,-4.9299,-4.9299,-4.9299,-4.9299,-4.9149,-4.8057,-4.7638,-4.7489,-4.7339,-4.7309,-4.7309,-4.7309,-4.7309,-4.7309,-4.7309,-4.7309,-4.7309,-4.7309,-4.7309,-4.7309,-4.7309,-4.7309,-4.7309,-4.7309,-4.7309,-4.6459,-4.3807,-4.2773,0.0,0.0,0.0,0.0,0.0,0.0,0.0,0.0,0.0,0.0,0.0,0.0,0.0,0.0,0.0,-1.8585,-2.0322,-2.3415,-2.7288,0.0,0.0,-3.8597,-4.1474,0.0,-4.3907,-4.5723,-4.5744,-4.6565,-4.8007,-4.826,-4.8438,-4.8604,-4.8604,-4.8604,-4.8604,-4.8604,-4.8604,-4.8604,-4.8604,-4.8604,-4.8604,-4.8604,-4.8604,-4.8604,0.0,0.0,0.0,0.0,0.0,0.0,-5.7916,-5.7727,-5.7438,-5.8107,-5.8107,-5.8369,-5.9193,-5.9103,-5.8554,-5.74,-5.8514,-5.7895,-5.4706,-5.6849,-5.7454,-5.5698,-5.663,-5.7159,-5.7103,-5.6422,-5.601,0.0,0.0,0.0,0.0,0.0,0.0,0.0,0.0,0.0,0.0,-4.443,-4.6463,-4.8925,-4.9149,-4.9269,-4.9299,-4.9299,-4.9299,-4.9299,-4.9299,-4.9299,-4.9299,-4.9179,-4.8686,-4.8087,-4.7489,-4.7309,-4.7309,-4.7309,-4.7309,-4.7309,-4.7309,-4.7309,-4.7309,-4.7309,-4.7309,-4.7309,-4.7309,-4.7309,-4.7309,-4.7309,-4.7309,-4.7219,-4.689,-4.4732,-4.1822,0.0,0.0,0.0,0.0,0.0,0.0,0.0,0.0,0.0,0.0,-2.1559,0.0,0.0,-1.6824,-1.7987,-2.3452,-2.2301,-2.4511,-3.1102,0.0,-3.5452,-3.8579,-4.0863,-4.3734,-4.71,-4.6331,-4.67,-4.8007,-4.8427,-4.8563,-4.8604,-4.8604,-4.8604,-4.8604,-4.8604,-4.8604,-4.8604,-4.8604,-4.8604,-4.8604,-4.8604,-4.8604,-4.8604,0.0,0.0,0.0,0.0,0.0,0.0,0.0,-5.8421,-5.8584,-5.9425,-5.8979,-5.8727,-5.9106,-5.9059,-5.8866,-5.8477,-5.8993,-5.8781,-5.7453,-5.8449,-5.8541,-5.7348,-5.7811,-5.7984,-5.7588,-5.7211,-5.6966,0.0,0.0,0.0,0.0,0.0,0.0,0.0,0.0,-4.319,-4.4662,-4.6718,-4.8492,-4.9853,-4.9853,-5.0092,-5.0451,-5.0451,-5.0451,-5.0451,-5.0451,-5.0451,-5.0391,-4.9972,-4.9404,-4.8745,-4.8087,-4.7908,-4.7818,-4.7429,-4.7309,-4.7309,-4.7309,-4.7309,-4.7309,-4.7309,-4.7309,-4.7309,-4.7309,-4.7309,-4.7309,-4.7309,-4.7309,-4.7309,-4.7309,-4.6399,-4.4679,0.0,0.0,0.0,0.0,0.0,0.0,0.0,0.0,0.0,0.0,0.0,0.0,0.0,0.0,-1.6808,-2.0273,-2.2374,-2.6348,-3.2697,0.0,-3.8479,-4.3608,-4.3358,-4.4672,-4.7452,-4.7418,-4.7668,-4.8175,-4.8438,-4.8604,-4.8604,-4.8604,-4.8604,-4.8604,-4.8604,-4.8604,-4.8604,-4.8604,-4.8604,-4.8604,-4.8604,-4.8604,-4.8604,-5.5745,0.0,-5.5375,0.0,-5.6915,-5.7273,-5.8668,-5.9152,-5.965,-6.0299,-5.9878,-5.9569,-5.9691,-5.965,-5.9536,-5.93,-5.9698,-5.9598,-5.8741,-5.9412,-5.9388,-5.8347,-5.8696,0.0,-5.7924,-5.7887,-5.7674,-5.7289,-5.1987,0.0,0.0,0.0,0.0,0.0,-4.4691,-4.6326,-4.6812,-4.8955,-5.0092,-5.0495,-5.0495,-5.0764,-5.1229,-5.1229,-5.1229,-5.1229,-5.1229,-5.1229,-5.1139,-5.0644,-5.0212,-4.9703,-4.8835,-4.8446,-4.8207,-4.7728,-4.7459,-4.7309,-4.7309,-4.7309,-4.7309,-4.7309,-4.7309,-4.7309,-4.7309,-4.7309,-4.7309,-4.7309,-4.7309,-4.7309,-4.7309,-4.7309,-4.6403,-4.366,0.0,0.0,0.0,0.0,0.0,0.0,-3.6388,-3.4512,-3.6649,0.0,0.0,0.0,0.0,0.0,-2.0748,-2.2904,-2.6893,0.0,0.0,0.0,-4.4493,-4.3845,-4.4874,-4.7709,-4.8175,-4.8385,-4.8301,-4.848,-4.8604,-4.8604,-4.8604,-4.8604,-4.8604,-4.8604,-4.8604,-4.8604,-4.8604,-4.8604,-4.8604,-4.8604,-4.8604,-4.8604,-5.9466,-5.9427,-5.9499,-5.9693,-5.9737,-5.9822,-5.9961,-6.0291,-6.0554,-6.053,-6.0824,-6.1219,-6.1595,-6.1473,-6.087,-5.9588,-6.0837,-6.0289,-5.692,-5.9133,-5.9844,0.0,0.0,-5.9247,-5.8698,-5.8509,-5.8026,-5.7289,0.0,0.0,-5.0095,0.0,-4.6797,-4.5895,-4.9691,-5.1273,-5.1092,-5.1169,-5.1199,-5.1199,-5.1199,-5.1199,-5.1229,-5.1229,-5.1229,-5.1229,-5.1229,-5.1229,-5.1229,-5.1199,-5.1199,-5.096,-4.9673,-4.8805,-4.8297,-4.8267,-4.7818,-4.7309,-4.7309,-4.7309,-4.7309,-4.7309,-4.7309,-4.7309,-4.7309,-4.7309,-4.7309,-4.7309,-4.7309,-4.7309,-4.7309,-4.7309,-4.6117,-4.2525,0.0,0.0,0.0,0.0,0.0,0.0,-3.1907,-3.057,-3.5364,0.0,0.0,0.0,0.0,0.0,0.0,0.0,0.0,-3.1226,-3.0987,0.0,-3.8068,-4.0677,-4.3947,-4.8007,-4.8396,-4.848,-4.8301,-4.848,-4.8604,-4.8604,-4.8604,-4.8604,-4.8604,-4.8604,-4.8604,-4.8604,-4.8604,-4.8604,-4.8604,-4.8604,-4.8604,-4.8604,-5.6895,-5.8847,-6.0427,-5.9422,-6.0251,-6.11,-6.1168,-6.1027,-6.097,-6.1117,-6.1227,-6.1417,-6.1669,-6.1417,-6.1094,0.0,-6.0256,-5.9987,0.0,-6.0032,-5.9994,-6.0004,-5.8885,-5.7943,-5.7258,-5.5839,-5.5237,-5.5651,0.0,0.0,0.0,-4.852,-4.8669,-4.9536,-5.0741,-5.1269,-5.1229,-5.1229,-5.1229,-5.1229,-5.1229,-5.1229,-5.1229,-5.1229,-5.1229,-5.1229,-5.1229,-5.1229,-5.1229,-5.1229,-5.1229,-5.1139,-5.072,-5.0152,-4.9434,-4.8536,-4.8147,-4.7878,-4.7429,-4.7309,-4.7309,-4.7309,-4.7309,-4.7309,-4.7309,-4.7309,-4.7309,-4.7309,-4.7309,-4.7309,-4.7309,-4.7309,-4.6373,-4.363,-4.4715,0.0,0.0,0.0,0.0,0.0,-3.7275,-3.6084,0.0,-3.4922,0.0,0.0,0.0,0.0,0.0,0.0,0.0,0.0,-3.8929,0.0,-4.4488,-4.4098,-4.5304,-4.8218,-4.8438,-4.8563,-4.848,-4.8563,-4.8604,-4.8604,-4.8604,-4.8604,-4.8604,-4.8604,-4.8604,-4.8604,-4.8604,-4.8604,-4.8604,-4.8604,-4.8604,-4.8604,-5.7872,-5.968,-6.1126,-6.0101,-6.0943,-6.1736,-6.1434,-6.1426,-6.1401,-6.1183,-6.1351,-6.1547,-6.1669,-6.1417,0.0,-6.1383,-6.045,-6.0365,-6.1506,-6.0795,-6.0605,-6.1199,-5.9916,-5.8684,-5.756,-5.6188,0.0,-5.5399,-5.3008,-5.125,-5.0079,-5.0079,-5.0483,-5.1229,-5.1229,-5.1229,-5.1229,-5.1229,-5.1229,-5.1229,-5.1229,-5.1229,-5.1229,-5.1229,-5.1229,-5.1229,-5.1229,-5.1229,-5.1229,-5.1229,-5.1229,-5.1229,-5.1229,-5.0883,-5.0345,-4.9344,-4.8656,-4.8207,-4.7788,-4.7489,-4.7309,-4.7309,-4.7309,-4.7309,-4.7309,-4.7309,-4.7309,-4.7309,-4.7309,-4.7309,-4.7309,-4.7309,-4.6847,-4.5466,-4.6386,-4.686,-4.5603,0.0,0.0,0.0,0.0,0.0,0.0,-3.9313,-3.7655,0.0,0.0,0.0,0.0,0.0,0.0,-3.9454,-4.1763,0.0,-4.652,-4.5606,-4.6255,-4.8396,-4.8521,-4.8604,-4.8604,-4.8604,-4.8604,-4.8604,-4.8604,-4.8604,-4.8604,-4.8604,-4.8604,-4.8604,-4.8604,-4.8604,-4.8604,-4.8604,-4.8604,-4.8604,-6.1227,-6.1465,-6.1669,-6.1383,-6.1676,-6.1721,-6.1012,-6.1542,-6.1781,-6.1023,-6.1408,-6.181,-6.1776,-6.158,-6.1424,-6.1383,0.0,0.0,-6.1342,-6.1301,-6.1383,-6.1669,-6.1521,-6.0712,-5.9081,-5.8635,-5.7634,-5.5999,-5.5311,-5.4166,-5.2577,-5.2577,-5.2079,-5.1229,-5.1229,-5.1229,-5.1229,-5.1229,-5.1229,-5.1229,-5.1229,-5.1229,-5.1229,-5.1229,-5.1229,-5.1229,-5.1229,-5.1229,-5.1229,-5.1229,-5.1229,-5.1229,-5.1229,-5.1229,-5.1079,-5.0375,-4.9344,-4.8356,-4.8297,-4.7818,-4.7309,-4.7309,-4.7309,-4.7309,-4.7309,-4.7309,-4.7309,-4.7309,-4.7309,-4.7309,-4.7309,-4.7309,-4.7352,-4.7538,-4.7409,-4.7306,-4.7297,0.0,0.0,0.0,0.0,0.0,-4.2333,-4.2891,-4.3256,0.0,0.0,0.0,0.0,0.0,-3.3147,-3.9262,-4.0774,-4.2641,-4.5031,-4.5597,-4.6813,-4.8604,-4.8604,-4.8604,-4.8604,-4.8604,-4.8604,-4.8604,-4.8604,-4.8604,-4.8604,-4.8604,-4.8604,-4.8604,-4.8604,-4.8604,-4.8604,-4.8604,-4.8604,-4.8604,0.0,0.0,-6.187,-6.067,-6.1324,-6.1951,-6.1721,-6.2245,-6.2539,-6.2341,-6.2647,-6.2784,-6.2587,-6.2003,-6.1547,-6.1424,-6.0289,-6.0032,-6.1086,-6.0332,-6.0341,-6.1424,-5.9891,-5.883,-5.8421,-5.6203,-5.4683,-5.3884,-5.4437,-5.3868,-5.2279,-5.2279,-5.1914,-5.1229,-5.1229,-5.1229,-5.1229,-5.1229,-5.1229,-5.1229,-5.1229,-5.1229,-5.1229,-5.1229,-5.1229,-5.1229,-5.1229,-5.1229,-5.1229,-5.1229,-5.1229,-5.1229,-5.1229,-5.1229,-5.1079,-5.0375,-4.9673,-4.897,-4.8416,-4.7818,-4.7309,-4.7309,-4.7309,-4.7309,-4.7309,-4.7309,-4.7309,-4.7309,-4.7309,-4.7309,-4.7309,-4.7309,-4.7309,-4.7352,-4.7482,-4.6719,-4.4404,-4.3489,0.0,0.0,-4.1024,-4.2338,-4.3499,-4.5606,-4.5707,0.0,0.0,0.0,0.0,-4.013,-4.1009,-4.5686,-4.6314,-4.6874,-4.7485,-4.7762,-4.8131,-4.8604,-4.8604,-4.8604,-4.8604,-4.8604,-4.8604,-4.8604,-4.8604,-4.8604,-4.8604,-4.8604,-4.8604,-4.8604,-4.8604,-4.8604,-4.8604,-4.8604,-4.8604,-4.8604,-6.0218,-6.1576,-6.2589,-6.204,-6.2557,-6.3081,-6.3081,-6.3377,-6.3646,-6.3646,-6.3761,-6.3802,-6.3646,-6.277,-6.2171,-6.2048,-6.0816,-6.0312,-6.1044,-6.0525,-6.0492,-6.1252,-6.0163,-5.9317,-5.8852,-5.7317,-5.5814,-5.437,-5.44,-5.3827,-5.2665,-5.2665,-5.2306,-5.1678,-5.1678,-5.1498,-5.1229,-5.1229,-5.1229,-5.1229,-5.1229,-5.1229,-5.1229,-5.1229,-5.1229,-5.1229,-5.1229,-5.1229,-5.1229,-5.1229,-5.1229,-5.1229,-5.1229,-5.1229,-5.1139,-5.0734,-5.0212,-4.9553,-4.8925,-4.8267,-4.7668,-4.7369,-4.7309,-4.7309,-4.7309,-4.7309,-4.7309,-4.7309,-4.7309,-4.7309,-4.7309,-4.7309,-4.7352,-4.7439,-4.6373,-4.506,-4.3482,-4.1962,0.0,-4.1172,-4.2342,-4.3922,-4.5868,-4.7497,-4.7466,-4.5065,-4.3728,0.0,-4.4655,-4.365,-4.4597,-4.8042,-4.8343,-4.8469,-4.8469,-4.8521,-4.8604,-4.8604,-4.8604,-4.8604,-4.8604,-4.8604,-4.8604,-4.8604,-4.8604,-4.8604,-4.8604,-4.8604,-4.8604,-4.8604,-4.8604,-4.8604,-4.8604,-4.8604,-4.8604,-4.8604,-6.2682,-6.2782,-6.3024,-6.3693,-6.3961,-6.4128,-6.4293,-6.4559,-6.4783,-6.4708,-6.4783,-6.4742,-6.466,-6.3624,-6.2915,-6.2698,-6.1792,-6.1218,-6.1119,-6.1161,-6.1161,-6.1119,-6.0961,-6.0473,-5.9619,-5.9323,-5.7969,-5.5616,-5.4756,-5.4012,-5.3324,-5.3324,-5.2965,-5.2336,-5.2336,-5.1977,-5.1379,-5.1379,-5.1319,-5.1229,-5.1229,-5.1229,-5.1229,-5.1229,-5.1229,-5.1229,-5.1229,-5.1229,-5.1229,-5.1229,-5.1229,-5.1229,-5.1229,-5.1229,-5.1229,-5.1229,-5.0794,-5.0196,-4.9583,-4.8865,-4.8117,-4.7459,-4.7309,-4.7309,-4.7309,-4.7309,-4.7309,-4.7309,-4.7309,-4.7309,-4.7309,-4.7309,-4.7233,-4.6976,-4.4892,-4.3236,-4.2949,0.0,-4.0178,-4.3467,-4.3717,-4.4895,-4.8286,-4.8604,-4.8521,-4.8385,-4.6325,-4.6072,-4.8221,-4.6295,-4.6102,-4.8282,-4.848,-4.8604,-4.8604,-4.8604,-4.8604,-4.8604,-4.8604,-4.8604,-4.8604,-4.8604,-4.8604,-4.8604,-4.8604,-4.8604,-4.8604,-4.8604,-4.8604,-4.8604,-4.8604,-4.8604,-4.8604,-4.8604,-4.8604,-4.8604,-6.07,-6.0977,-6.1498,-6.2716,-6.2924,-6.3311,-6.4375,-6.5121,-6.5486,-6.5312,-6.5403,-6.532,-6.4771,-6.4103,-6.3359,-6.2381,-6.2164,-6.1748,-6.1152,-6.1252,-6.1293,-6.1119,-6.0302,-5.9751,-5.9587,-5.7932,-5.6462,-5.528,-5.513,-5.47,-5.4042,-5.4042,-5.3683,-5.3025,-5.3025,-5.2665,-5.2037,-5.2037,-5.1738,-5.1229,-5.1229,-5.1229,-5.1229,-5.1229,-5.1229,-5.1229,-5.1229,-5.1229,-5.1229,-5.1229,-5.1229,-5.1229,-5.1229,-5.1229,-5.1229,-5.1229,-5.1139,-5.0883,-5.0226,-4.9194,-4.8117,-4.7459,-4.7309,-4.7309,-4.7309,-4.7309,-4.7309,-4.7309,-4.7309,-4.7309,-4.7309,-4.7409,-4.6783,-4.4255,-4.385,-4.2806,-4.0012,0.0,-4.3369,-4.3617,-4.6062,-4.7896,-4.8532,-4.8604,-4.8563,-4.8563,-4.8203,-4.8142,-4.8521,-4.8173,-4.8142,-4.8521,-4.8563,-4.8604,-4.8604,-4.8604,-4.8604,-4.8604,-4.8604,-4.8604,-4.8604,-4.8604,-4.8604,-4.8604,-4.8604,-4.8604,-4.8604,-4.8604,-4.8604,-4.8604,-4.8604,-4.8604,-4.8604,-4.8604,-4.8604,-4.8604,-6.1074,-6.128,-6.1658,-6.2682,-6.2885,-6.3069,-6.3645,-6.452,-6.5049,-6.4995,-6.5517,-6.5807,-6.5464,-6.4786,-6.4133,-6.3587,-6.2233,-6.1251,-6.0924,-6.1117,-6.121,-6.1119,-6.013,-5.9367,-5.8799,-5.7371,-5.6427,-5.5967,-5.5481,-5.5029,-5.473,-5.473,-5.4371,-5.3743,-5.3743,-5.3354,-5.2725,-5.2725,-5.2336,-5.1738,-5.1738,-5.1528,-5.1229,-5.1229,-5.1229,-5.1229,-5.1229,-5.1229,-5.1229,-5.1229,-5.1229,-5.1229,-5.1229,-5.1229,-5.1229,-5.1229,-5.0913,-5.0584,-5.0285,-4.9284,-4.8207,-4.7908,-4.7578,-4.7309,-4.7309,-4.7309,-4.7309,-4.7309,-4.7309,-4.7309,-4.7309,-4.7396,-4.7023,-4.5798,-4.4561,0.0,0.0,-4.3089,-4.4148,-4.3968,-4.6712,-4.8604,-4.8604,-4.8604,-4.8604,-4.8604,-4.8604,-4.8604,-4.8604,-4.8604,-4.8604,-4.8604,-4.8604,-4.8604,-4.8604,-4.8604,-4.8604,-4.8604,-4.8604,-4.8604,-4.8604,-4.8604,-4.8604,-4.8604,-4.8604,-4.8604,-4.8604,-4.8604,-4.8604,-4.8604,-4.8604,-4.8604,-4.8604,-4.8604,-4.8604,-4.8604,-6.1145,-6.1239,-6.1495,-6.2392,-6.2536,-6.2634,-6.2956,-6.3671,-6.4203,-6.4124,-6.4844,-6.5415,-6.5581,-6.4774,-6.4244,-6.4288,-6.202,-6.0625,-6.0688,-6.0522,-6.0388,-6.0388,-5.9411,-5.8437,-5.7465,-5.6686,-5.628,-5.628,-5.5551,-5.5179,-5.5179,-5.5179,-5.491,-5.4431,-5.4431,-5.4072,-5.3414,-5.3414,-5.3025,-5.2426,-5.2426,-5.2037,-5.1439,-5.1439,-5.1349,-5.1229,-5.1229,-5.1229,-5.1229,-5.1229,-5.1229,-5.1229,-5.1229,-5.1229,-5.1229,-5.1229,-5.0823,-5.0375,-5.0226,-4.9404,-4.8476,-4.8327,-4.7788,-4.7309,-4.7309,-4.7309,-4.7309,-4.7309,-4.7309,-4.7309,-4.7309,-4.7396,-4.7259,-4.6736,0.0,0.0,0.0,-4.4075,-4.4458,-4.5141,-4.721,-4.8604,-4.8604,-4.8604,-4.8604,-4.8604,-4.8604,-4.8604,-4.8604,-4.8604,-4.8604,-4.8604,-4.8604,-4.8604,-4.8604,-4.8604,-4.8604,-4.8604,-4.8604,-4.8604,-4.8604,-4.8604,-4.8604,-4.8604,-4.8604,-4.8604,-4.8604,-4.8604,-4.8604,-4.8604,-4.8604,-4.8604,-4.8604,-4.8604,-4.8604,-4.8604,-5.9302,-5.9332,-5.9728,-6.0938,-6.1142,-6.1546,-6.2811,-6.3052,-6.3052,-6.2763,-6.3052,-6.3466,-6.3988,-6.3292,-6.278,-6.2904,-6.1261,-6.0372,-6.0599,-5.9183,-5.8346,-5.8346,-5.7371,-5.6378,-5.5431,-5.533,-5.528,-5.528,-5.5229,-5.5179,-5.5179,-5.5179,-5.5149,-5.5119,-5.5119,-5.476,-5.4132,-5.4132,-5.3743,-5.3114,-5.3114,-5.2725,-5.2127,-5.2127,-5.1738,-5.1229,-5.1229,-5.1229,-5.1229,-5.1229,-5.1229,-5.1229,-5.1229,-5.1229,-5.1229,-5.1229,-5.1199,-5.102,-5.0345,-4.9733,-4.909,-4.8446,-4.7788,-4.7309,-4.7309,-4.7309,-4.7309,-4.7309,-4.7309,-4.7309,-4.7309,-4.7666,-4.7033,-4.4341,0.0,0.0,-4.4157,-4.4197,-4.5202,-4.7937,-4.847,-4.8604,-4.8604,-4.8604,-4.8604,-4.8604,-4.8604,-4.8604,-4.8604,-4.8604,-4.8604,-4.8604,-4.8604,-4.8604,-4.8604,-4.8604,-4.8604,-4.8604,-4.8604,-4.8604,-4.8604,-4.8604,-4.8604,-4.8604,-4.8604,-4.8604,-4.8604,-4.8604,-4.8604,-4.8604,-4.8604,-4.8604,-4.8604,-4.8604,-4.8604,-4.8604,-5.9099,-5.9099,-5.9261,-5.9705,-5.9811,-6.0023,-6.0515,-6.1153,-6.1558,-6.1457,-6.2108,-6.2649,-6.2875,-6.26,-6.2456,-6.2492,-6.0903,-5.9773,-5.9425,-5.785,-5.7002,-5.7165,-5.68,-5.6134,-5.5229,-5.5179,-5.5179,-5.5179,-5.5179,-5.5179,-5.5179,-5.5179,-5.5179,-5.5179,-5.5179,-5.5059,-5.482,-5.482,-5.4431,-5.3832,-5.3832,-5.3414,-5.2815,-5.2815,-5.2396,-5.1828,-5.1828,-5.1558,-5.1229,-5.1229,-5.1229,-5.1229,-5.1229,-5.1229,-5.1229,-5.1229,-5.1229,-5.1122,-5.0853,-5.0361,-4.9703,-4.9045,-4.8386,-4.7818,-4.7399,-4.7309,-4.7309,-4.7309,-4.7309,-4.7352,-4.7452,-4.7624,-4.751,-4.6652,0.0,-4.678,-4.6915,-4.6915,-4.7343,-4.847,-4.8604,-4.8604,-4.8604,-4.8604,-4.8604,-4.8604,-4.8604,-4.8604,-4.8604,-4.8604,-4.8604,-4.8604,-4.8604,-4.8604,-4.8604,-4.8604,-4.8604,-4.8604,-4.8604,-4.8604,-4.8604,-4.8604,-4.8604,-4.8604,-4.8604,-4.8604,-4.8604,-4.8604,-4.8604,-4.8604,-4.8604,-4.8604,-4.8604,-4.8604,-4.8604,-4.8604,-5.9099,-5.9099,-5.9099,-5.9099,-5.9099,-5.9099,-5.9099,-5.9683,-6.018,-6.018,-6.0825,-6.1438,-6.1759,-6.1489,-6.1438,-6.179,-6.0208,-5.9052,-5.8701,-5.7172,-5.6254,-5.6164,-5.6134,-5.5869,-5.5179,-5.5179,-5.5179,-5.5179,-5.5179,-5.5179,-5.5179,-5.5179,-5.5179,-5.5179,-5.5179,-5.5179,-5.5179,-5.5179,-5.494,-5.4521,-5.4521,-5.4102,-5.3503,-5.3503,-5.3084,-5.2516,-5.2516,-5.2097,-5.1528,-5.1528,-5.1379,-5.1229,-5.1229,-5.1229,-5.1229,-5.1229,-5.1229,-5.1229,-5.1229,-5.0853,-5.0345,-4.9733,-4.8925,-4.8177,-4.7728,-4.7459,-4.7309,-4.7309,-4.7309,-4.7352,-4.7452,-4.7624,-4.7837,-4.8175,-4.8343,-4.8438,-4.8563,-4.8604,-4.8604,-4.8604,-4.8604,-4.8604,-4.8604,-4.8604,-4.8604,-4.8604,-4.8604,-4.8604,-4.8604,-4.8604,-4.8604,-4.8604,-4.8604,-4.8604,-4.8604,-4.8604,-4.8604,-4.8604,-4.8604,-4.8604,-4.8604,-4.8604,-4.8604,-4.8604,-4.8604,-4.8604,-4.8604,-4.8604,-4.8604,-4.8604,-4.8604,-4.8604,-4.8604,-4.8604,-4.8604,-4.8604,-5.9099,-5.9099,-5.9099,-5.9099,-5.9099,-5.9099,-5.9099,-5.9099,-5.9099,-5.9099,-5.9099,-5.9499,-6.0598,-5.9736,-5.9553,-6.0598,-5.9108,-5.8233,-5.855,-5.7359,-5.6183,-5.5229,-5.5179,-5.5179,-5.5179,-5.5179,-5.5179,-5.5179,-5.5179,-5.5179,-5.5179,-5.5179,-5.5179,-5.5179,-5.5179,-5.5179,-5.5179,-5.5179,-5.5179,-5.5179,-5.5179,-5.479,-5.4221,-5.4221,-5.3773,-5.3204,-5.3204,-5.2755,-5.2217,-5.2187,-5.1768,-5.1229,-5.1229,-5.1229,-5.1229,-5.1229,-5.1229,-5.1229,-5.1229,-5.1229,-5.105,-5.0345,-4.9254,-4.8297,-4.8297,-4.7788,-4.7309,-4.7309,-4.7309,-4.7309,-4.7309,-4.7666,-4.8007,-4.8007,-4.8343,-4.8604,-4.8604,-4.8604,-4.8604,-4.8604,-4.8604,-4.8604,-4.8604,-4.8604,-4.8604,-4.8604,-4.8604,-4.8604,-4.8604,-4.8604,-4.8604,-4.8604,-4.8604,-4.8604,-4.8604,-4.8604,-4.8604,-4.8604,-4.8604,-4.8604,-4.8604,-4.8604,-4.8604,-4.8604,-4.8604,-4.8604,-4.8604,-4.8604,-4.8604,-4.8604,-4.8604,-4.8604,-4.8604,-4.8604,-4.8604,-4.8604,-5.9099,-5.9099,-5.9099,-5.9099,-5.9099,-5.9099,-5.9099,-5.9099,-5.9099,-5.9099,-5.9099,-5.9207,-5.9553,-5.9315,-5.9261,-5.9553,-5.9135,-5.8428,-5.7592,-5.6798,-5.5983,-5.5209,-5.5179,-5.5179,-5.5179,-5.5179,-5.5179,-5.5179,-5.5179,-5.5179,-5.5179,-5.5179,-5.5179,-5.5179,-5.5179,-5.5179,-5.5179,-5.5179,-5.5179,-5.5179,-5.5179,-5.5059,-5.491,-5.491,-5.4491,-5.3892,-5.3892,-5.3473,-5.2815,-5.2366,-5.2067,-5.1828,-5.1379,-5.1229,-5.1229,-5.1229,-5.1229,-5.1229,-5.1229,-5.1229,-5.105,-5.0345,-4.9897,-4.9404,-4.8506,-4.8147,-4.7848,-4.7399,-4.7309,-4.7352,-4.7452,-4.7794,-4.8049,-4.8175,-4.8427,-4.8604,-4.8604,-4.8604,-4.8604,-4.8604,-4.8604,-4.8604,-4.8604,-4.8604,-4.8604,-4.8604,-4.8604,-4.8604,-4.8604,-4.8604,-4.8604,-4.8604,-4.8604,-4.8604,-4.8604,-4.8604,-4.8604,-4.8604,-4.8604,-4.8604,-4.8604,-4.8604,-4.8604,-4.8604,-4.8604,-4.8604,-4.8604,-4.8604,-4.8604,-4.8604,-4.8604,-4.8604,-4.8604,-4.8604,-4.8604,-4.8604,-5.9099,-5.9099,-5.9099,-5.9099,-5.9099,-5.9099,-5.9099,-5.9099,-5.9099,-5.9099,-5.9099,-5.9099,-5.9099,-5.9099,-5.9099,-5.9099,-5.886,-5.8261,-5.7154,-5.6526,-5.5867,-5.5209,-5.5179,-5.5179,-5.5179,-5.5179,-5.5179,-5.5179,-5.5179,-5.5179,-5.5179,-5.5179,-5.5179,-5.5179,-5.5179,-5.5179,-5.5179,-5.5179,-5.5179,-5.5179,-5.5179,-5.5179,-5.5179,-5.5179,-5.494,-5.461,-5.461,-5.4162,-5.3533,-5.3114,-5.2636,-5.2127,-5.1738,-5.1439,-5.1229,-5.1229,-5.1229,-5.1229,-5.1229,-5.1229,-5.1109,-5.0674,-5.0375,-4.9986,-4.9254,-4.8656,-4.8177,-4.7788,-4.7489,-4.7352,-4.7482,-4.7666,-4.7922,-4.8133,-4.8385,-4.848,-4.8563,-4.8604,-4.8604,-4.8604,-4.8604,-4.8604,-4.8604,-4.8604,-4.8604,-4.8604,-4.8604,-4.8604,-4.8604,-4.8604,-4.8604,-4.8604,-4.8604,-4.8604,-4.8604,-4.8604,-4.8604,-4.8604,-4.8604,-4.8604,-4.8604,-4.8604,-4.8604,-4.8604,-4.8604,-4.8604,-4.8604,-4.8604,-4.8604,-4.8604,-4.8604,-4.8604,-4.8604,-4.8604,-4.8604,-4.8604,-5.9099,-5.9099,-5.9099,-5.9099,-5.9099,-5.9099,-5.9099,-5.9099,-5.9099,-5.9099,-5.9099,-5.9099,-5.9099,-5.9099,-5.9099,-5.9099,-5.856,-5.7932,-5.7244,-5.6585,-5.5957,-5.5299,-5.5209,-5.5179,-5.5179,-5.5179,-5.5179,-5.5179,-5.5179,-5.5179,-5.5179,-5.5179,-5.5179,-5.5179,-5.5179,-5.5179,-5.5179,-5.5179,-5.5179,-5.5179,-5.5179,-5.5179,-5.5179,-5.5179,-5.5179,-5.5179,-5.5179,-5.482,-5.4281,-5.4221,-5.3354,-5.2276,-5.2217,-5.1798,-5.1289,-5.1229,-5.1229,-5.1229,-5.1229,-5.1229,-5.1229,-5.1229,-5.0734,-5.0255,-5.0196,-4.9314,-4.8416,-4.8297,-4.7818,-4.7369,-4.7309,-4.7452,-4.7666,-4.7922,-4.8133,-4.8313,-4.8521,-4.8563,-4.8563,-4.8604,-4.8604,-4.8604,-4.8604,-4.8604,-4.8604,-4.8604,-4.8604,-4.8604,-4.8604,-4.8604,-4.8604,-4.8604,-4.8604,-4.8604,-4.8604,-4.8604,-4.8604,-4.8604,-4.8604,-4.8604,-4.8604,-4.8604,-4.8604,-4.8604,-4.8604,-4.8604,-4.8604,-4.8604,-4.8604,-4.8604,-4.8604,-4.8604,-4.8604,-4.8604,-4.8521,-4.8438,-5.9099,-5.9099,-5.9099,-5.9099,-5.9099,-5.9099,-5.9099,-5.9099,-5.9099,-5.9099,-5.9099,-5.9099,-5.9099,-5.9099,-5.9099,-5.9099,-5.8979,-5.862,-5.7932,-5.7274,-5.6615,-5.5987,-5.5478,-5.5179,-5.5179,-5.5179,-5.5179,-5.5179,-5.5179,-5.5179,-5.5179,-5.5179,-5.5179,-5.5179,-5.5179,-5.5179,-5.5179,-5.5179,-5.5179,-5.5179,-5.5179,-5.5179,-5.5179,-5.5179,-5.5179,-5.5179,-5.5179,-5.5089,-5.491,-5.4371,-5.3653,-5.2875,-5.2366,-5.2097,-5.1887,-5.1379,-5.1229,-5.1229,-5.1229,-5.1229,-5.1229,-5.1229,-5.1109,-5.0823,-5.0315,-4.9986,-4.9523,-4.8506,-4.8177,-4.7908,-4.7399,-4.7452,-4.7624,-4.7666,-4.788,-4.8133,-4.8343,-4.8385,-4.8427,-4.8563,-4.8604,-4.8604,-4.8604,-4.8604,-4.8604,-4.8604,-4.8604,-4.8604,-4.8604,-4.8604,-4.8604,-4.8604,-4.8604,-4.8604,-4.8604,-4.8604,-4.8604,-4.8604,-4.8604,-4.8604,-4.8604,-4.8604,-4.8604,-4.8604,-4.8604,-4.8604,-4.8604,-4.8604,-4.8604,-4.8604,-4.8604,-4.8604,-4.8604,-4.8604,-4.8115,-4.7405,-5.9099,-5.9099,-5.9099,-5.9099,-5.9099,-5.9099,-5.9099,-5.9099,-5.9099,-5.9099,-5.9099,-5.9099,-5.9099,-5.9099,-5.9099,-5.9099,-5.9099,-5.883,-5.8118,-5.7782,-5.7154,-5.6226,-5.5837,-5.5508,-5.5209,-5.5179,-5.5179,-5.5179,-5.5179,-5.5179,-5.5179,-5.5179,-5.5179,-5.5179,-5.5179,-5.5179,-5.5179,-5.5179,-5.5179,-5.5179,-5.5179,-5.5179,-5.5179,-5.5179,-5.5179,-5.5179,-5.5179,-5.5179,-5.5149,-5.479,-5.4221,-5.3623,-5.3264,-5.2725,-5.2127,-5.1798,-5.1468,-5.1229,-5.1229,-5.1229,-5.1229,-5.1229,-5.1229,-5.1139,-5.0734,-5.0405,-4.9986,-4.9344,-4.8985,-4.8566,-4.7908,-4.7845,-4.7899,-4.7812,-4.7794,-4.7964,-4.8355,-4.8301,-4.826,-4.8563,-4.8521,-4.848,-4.8563,-4.8604,-4.8604,-4.8604,-4.8604,-4.8604,-4.8604,-4.8604,-4.8604,-4.8604,-4.8604,-4.8604,-4.8604,-4.8604,-4.8604,-4.8604,-4.8604,-4.8604,-4.8604,-4.8604,-4.8604,-4.8604,-4.8604,-4.8604,-4.8604,-4.8604,-4.8604,-4.8604,-4.8604,-4.8604,-4.8521,-4.8072,-4.7319,-4.6447,-5.9099,-5.9099,-5.9099,-5.9099,-5.9099,-5.9099,-5.9099,-5.9099,-5.9099,-5.9099,-5.9099,-5.9099,-5.9099,-5.9099,-5.9099,-5.9099,-5.9099,-5.886,-5.8321,-5.8171,-5.7573,-5.6376,-5.6278,-5.5867,-5.5209,-5.5179,-5.5179,-5.5179,-5.5179,-5.5179,-5.5179,-5.5179,-5.5179,-5.5179,-5.5179,-5.5179,-5.5179,-5.5179,-5.5179,-5.5179,-5.5179,-5.5179,-5.5179,-5.5179,-5.5179,-5.5179,-5.5179,-5.5179,-5.5179,-5.5179,-5.482,-5.4371,-5.4251,-5.3443,-5.2486,-5.2276,-5.1828,-5.1379,-5.1259,-5.1229,-5.1229,-5.1229,-5.1229,-5.1229,-5.1229,-5.0764,-5.0315,-5.0226,-4.9793,-4.9224,-4.8566,-4.8356,-4.8249,-4.8067,-4.7757,-4.7752,-4.8396,-4.8218,-4.8175,-4.8521,-4.8438,-4.8427,-4.8563,-4.8604,-4.8604,-4.8604,-4.8604,-4.8604,-4.8604,-4.8604,-4.8604,-4.8604,-4.8604,-4.8604,-4.8604,-4.8604,-4.8604,-4.8604,-4.8604,-4.8604,-4.8604,-4.8604,-4.8604,-4.8604,-4.8604,-4.8604,-4.8604,-4.8604,-4.8604,-4.8604,-4.8604,-4.8604,-4.8438,-4.7276,-4.6196,-4.5389,-5.9099,-5.9099,-5.9099,-5.9099,-5.9099,-5.9099,-5.9099,-5.9099,-5.9099,-5.9099,-5.9099,-5.9099,-5.9099,-5.9099,-5.9099,-5.9099,-5.9099,-5.9069,-5.8979,-5.8441,-5.7782,-5.7004,-5.6466,-5.5867,-5.5209,-5.5179,-5.5179,-5.5179,-5.5179,-5.5179,-5.5179,-5.5179,-5.5179,-5.5179,-5.5179,-5.5179,-5.5179,-5.5179,-5.5179,-5.5179,-5.5179,-5.5179,-5.5179,-5.5179,-5.5179,-5.5179,-5.5179,-5.5179,-5.5179,-5.5179,-5.5119,-5.497,-5.4401,-5.4072,-5.3713,-5.2546,-5.2127,-5.1947,-5.1379,-5.1229,-5.1229,-5.1229,-5.1229,-5.1229,-5.1229,-5.1139,-5.0883,-5.0315,-5.0136,-4.9912,-4.9299,-4.87,-4.8311,-4.8265,-4.7755,-4.7495,-4.8007,-4.8049,-4.8175,-4.8521,-4.8563,-4.8563,-4.8604,-4.8604,-4.8604,-4.8604,-4.8604,-4.8604,-4.8604,-4.8604,-4.8604,-4.8604,-4.8604,-4.8604,-4.8604,-4.8604,-4.8604,-4.8604,-4.8604,-4.8604,-4.8604,-4.8604,-4.8604,-4.8604,-4.8604,-4.8604,-4.8604,-4.8604,-4.8604,-4.8604,-4.8604,-4.8604,-4.8324,-4.6093,-4.4645,-4.3693,-5.9099,-5.9099,-5.9099,-5.9099,-5.9099,-5.9099,-5.9099,-5.9099,-5.9099,-5.9099,-5.9099,-5.9099,-5.9099,-5.9099,-5.9099,-5.9099,-5.9099,-5.9099,-5.9099,-5.883,-5.8381,-5.7693,-5.7034,-5.6406,-5.5748,-5.5388,-5.5179,-5.5179,-5.5179,-5.5179,-5.5179,-5.5179,-5.5179,-5.5179,-5.5179,-5.5179,-5.5179,-5.5179,-5.5179,-5.5179,-5.5179,-5.5179,-5.5179,-5.5179,-5.5179,-5.5179,-5.5179,-5.5179,-5.5179,-5.5179,-5.5179,-5.5149,-5.485,-5.4491,-5.4102,-5.3503,-5.2785,-5.2127,-5.1858,-5.1498,-5.1229,-5.1229,-5.1229,-5.1229,-5.1229,-5.1229,-5.1139,-5.0794,-5.0734,-5.0571,-4.9942,-4.9583,-4.9299,-4.9044,-4.8443,-4.8196,-4.867,-4.8292,-4.8091,-4.8427,-4.8521,-4.8604,-4.8604,-4.8604,-4.8604,-4.8604,-4.8604,-4.8604,-4.8604,-4.8604,-4.8604,-4.8604,-4.8604,-4.8604,-4.8604,-4.8604,-4.8604,-4.8604,-4.8604,-4.8604,-4.8604,-4.8604,-4.8604,-4.8604,-4.8604,-4.8604,-4.8604,-4.8604,-4.8604,-4.8604,-4.8604,-4.7946,-4.6886,-4.5467,-4.4022,-4.2598]},{"header":{"parameterUnit":"m.s-1","parameterCategory":1,"la1":30.6,"la2":28.766,"lo1":-90.7593,"lo2":-88.6598,"dy":0.0162,"dx":0.0183,"nx":116,"ny":114,"refTime":"2024-04-20T12:00:00:Z","depth":0,"parameterNumber":3,"parameterNumberName":"V-component_of_WINDS"},"data":[0.0,0.0,0.0,0.0,0.0,0.0,0.0,0.0,0.0,0.0,0.0,0.0,0.0,0.0,0.0,0.0,0.0,0.0,0.0,0.0,0.0,0.0,0.0,0.0,0.0,0.0,0.0,0.0,0.0,0.0,0.0,0.0,0.0,0.0,0.0,0.0,0.0,0.0,0.0,0.0,0.0,0.0,0.0,0.0,0.0,0.0,0.0,0.0,0.0,0.0,0.0,0.0,0.0,0.0,0.0,0.0,0.0,0.0,0.0,0.0,0.0,0.0,0.0,0.0,0.0,0.0,0.0,0.0,0.0,0.0,0.0,0.0,0.0,0.0,0.0,0.0,0.0,0.0,0.0,0.0,0.0,0.0,0.0,0.0,0.0,0.0,0.0,0.0,0.0,0.0,0.0,0.0,0.0,0.0,0.0,0.0,0.0,0.0,0.0,0.0,0.0,0.0,0.0,0.0,0.0,0.0,0.0,0.0,0.0,0.0,0.0,0.0,0.0,0.0,0.0,0.0,0.0,0.0,0.0,0.0,0.0,0.0,0.0,0.0,0.0,0.0,0.0,0.0,0.0,0.0,0.0,0.0,0.0,0.0,0.0,0.0,0.0,0.0,0.0,0.0,0.0,0.0,0.0,0.0,0.0,0.0,0.0,0.0,0.0,0.0,0.0,0.0,0.0,0.0,0.0,0.0,0.0,0.0,0.0,0.0,0.0,0.0,0.0,0.0,0.0,0.0,0.0,0.0,0.0,0.0,0.0,0.0,0.0,0.0,0.0,0.0,0.0,0.0,0.0,0.0,0.0,0.0,0.0,0.0,0.0,0.0,0.0,0.0,0.0,0.0,0.0,0.0,0.0,0.0,0.0,0.0,0.0,0.0,0.0,0.0,0.0,0.0,0.0,0.0,0.0,0.0,0.0,0.0,0.0,0.0,0.0,0.0,0.0,0.0,0.0,0.0,0.0,0.0,0.0,0.0,0.0,0.0,0.0,0.0,0.0,0.0,0.0,0.0,0.0,0.0,0.0,0.0,0.0,0.0,0.0,0.0,0.0,0.0,0.0,0.0,0.0,0.0,0.0,0.0,0.0,0.0,0.0,0.0,0.0,0.0,0.0,0.0,0.0,0.0,0.0,0.0,0.0,0.0,0.0,0.0,0.0,0.0,0.0,0.0,0.0,0.0,0.0,0.0,0.0,0.0,0.0,0.0,0.0,0.0,0.0,0.0,0.0,0.0,0.0,0.0,0.0,0.0,0.0,0.0,0.0,0.0,0.0,0.0,0.0,0.0,0.0,0.0,0.0,0.0,0.0,0.0,0.0,0.0,0.0,0.0,0.0,0.0,0.0,0.0,0.0,0.0,0.0,0.0,0.0,0.0,0.0,0.0,0.0,0.0,0.0,0.0,0.0,0.0,0.0,0.0,0.0,0.0,0.0,0.0,0.0,0.0,0.0,0.0,0.0,0.0,0.0,0.0,0.0,0.0,0.0,0.0,0.0,0.0,0.0,0.0,0.0,0.0,0.0,0.0,0.0,0.0,0.0,0.0,0.0,0.0,0.0,0.0,0.0,0.0,0.0,0.0,0.0,0.0,0.0,0.0,0.0,0.0,0.0,0.0,0.0,0.0,0.0,0.0,0.0,0.0,0.0,0.0,0.0,0.0,0.0,0.0,0.0,0.0,0.0,0.0,0.0,0.0,0.0,0.0,0.0,0.0,0.0,0.0,0.0,0.0,0.0,0.0,0.0,0.0,0.0,0.0,0.0,0.0,0.0,0.0,0.0,0.0,0.0,0.0,0.0,0.0,0.0,0.0,0.0,0.0,0.0,0.0,0.0,0.0,0.0,0.0,0.0,0.0,0.0,0.0,0.0,0.0,0.0,0.0,0.0,0.0,0.0,0.0,0.0,0.0,0.0,0.0,0.0,0.0,0.0,0.0,0.0,0.0,0.0,0.0,0.0,0.0,0.0,0.0,0.0,0.0,0.0,0.0,0.0,0.0,0.0,0.0,0.0,0.0,0.0,0.0,0.0,0.0,0.0,0.0,0.0,0.0,0.0,0.0,0.0,0.0,0.0,0.0,0.0,0.0,0.0,0.0,0.0,0.0,0.0,0.0,0.0,0.0,0.0,0.0,0.0,0.0,0.0,0.0,0.0,0.0,0.0,0.0,0.0,0.0,0.0,0.0,0.0,0.0,0.0,0.0,0.0,0.0,0.0,0.0,0.0,0.0,0.0,0.0,0.0,0.0,0.0,0.0,0.0,0.0,0.0,0.0,0.0,0.0,0.0,0.0,0.0,0.0,0.0,0.0,0.0,0.0,0.0,0.0,0.0,0.0,0.0,0.0,0.0,0.0,0.0,0.0,0.0,0.0,0.0,0.0,0.0,0.0,0.0,0.0,0.0,0.0,0.0,0.0,0.0,0.0,0.0,0.0,0.0,0.0,0.0,0.0,0.0,0.0,0.0,0.0,0.0,0.0,0.0,0.0,0.0,0.0,0.0,0.0,0.0,0.0,0.0,0.0,0.0,0.0,0.0,0.0,0.0,0.0,0.0,0.0,0.0,0.0,0.0,0.0,0.0,0.0,0.0,0.0,0.0,0.0,0.0,0.0,0.0,0.0,0.0,0.0,0.0,0.0,0.0,0.0,0.0,0.0,0.0,0.0,0.0,0.0,0.0,0.0,0.0,0.0,0.0,0.0,0.0,0.0,0.0,0.0,0.0,0.0,0.0,0.0,0.0,0.0,0.0,0.0,0.0,0.0,0.0,0.0,0.0,0.0,0.0,0.0,0.0,0.0,0.0,0.0,0.0,0.0,0.0,0.0,0.0,0.0,0.0,0.0,0.0,0.0,0.0,0.0,0.0,0.0,0.0,0.0,0.0,0.0,0.0,0.0,0.0,0.0,0.0,0.0,0.0,0.0,0.0,0.0,0.0,0.0,0.0,0.0,0.0,0.0,0.0,0.0,0.0,0.0,0.0,0.0,0.0,0.0,0.0,0.0,0.0,0.0,0.0,0.0,0.0,0.0,0.0,0.0,0.0,0.0,0.0,0.0,0.0,0.0,0.0,0.0,0.0,0.0,0.0,0.0,0.0,0.0,0.0,0.0,0.0,0.0,0.0,0.0,0.0,0.0,0.0,0.0,0.0,0.0,0.0,0.0,0.0,0.0,0.0,0.0,0.0,0.0,0.0,0.0,0.0,0.0,0.0,0.0,0.0,0.0,0.0,0.0,0.0,0.0,0.0,0.0,0.0,0.0,0.0,0.0,0.0,0.0,0.0,0.0,0.0,0.0,0.0,0.0,0.0,0.0,0.0,0.0,0.0,0.0,0.0,0.0,0.0,0.0,0.0,0.0,0.0,0.0,0.0,0.0,0.0,0.0,0.0,0.0,0.0,0.0,0.0,0.0,0.0,0.0,0.0,0.0,0.0,0.0,0.0,0.0,0.0,0.0,0.0,0.0,0.0,0.0,0.0,0.0,0.0,0.0,0.0,0.0,0.0,0.0,0.0,0.0,0.0,0.0,0.0,0.0,0.0,0.0,0.0,0.0,0.0,0.0,0.0,0.0,0.0,0.0,0.0,0.0,0.0,0.0,0.0,0.0,0.0,0.0,0.0,0.0,0.0,0.0,0.0,0.0,0.0,0.0,0.0,0.0,0.0,0.0,0.0,0.0,0.0,0.0,0.0,0.0,0.0,0.0,0.0,0.0,0.0,0.0,0.0,0.0,0.0,0.0,0.0,0.0,0.0,0.0,0.0,0.0,0.0,0.0,0.0,0.0,0.0,0.0,0.0,0.0,0.0,0.0,0.0,0.0,0.0,0.0,0.0,0.0,0.0,0.0,0.0,0.0,0.0,0.0,0.0,0.0,0.0,0.0,0.0,0.0,0.0,0.0,0.0,0.0,0.0,0.0,0.0,0.0,0.0,0.0,0.0,0.0,0.0,0.0,0.0,0.0,0.0,0.0,0.0,0.0,0.0,0.0,0.0,0.0,0.0,0.0,0.0,0.0,0.0,0.0,0.0,0.0,0.0,0.0,0.0,0.0,0.0,0.0,0.0,0.0,0.0,0.0,0.0,0.0,0.0,0.0,0.0,0.0,0.0,0.0,0.0,0.0,0.0,0.0,0.0,0.0,0.0,0.0,0.0,0.0,0.0,0.0,0.0,0.0,0.0,0.0,0.0,0.0,0.0,0.0,0.0,0.0,0.0,0.0,0.0,0.0,0.0,0.0,0.0,0.0,0.0,0.0,0.0,0.0,0.0,0.0,0.0,0.0,0.0,0.0,0.0,0.0,0.0,0.0,0.0,0.0,0.0,0.0,0.0,0.0,0.0,0.0,0.0,0.0,0.0,0.0,0.0,0.0,0.0,0.0,0.0,0.0,0.0,0.0,0.0,0.0,0.0,0.0,0.0,0.0,0.0,0.0,0.0,0.0,0.0,0.0,0.0,0.0,0.0,0.0,0.0,0.0,0.0,0.0,0.0,0.0,0.0,0.0,0.0,0.0,0.0,0.0,0.0,0.0,0.0,0.0,0.0,0.0,0.0,0.0,0.0,0.0,0.0,0.0,0.0,0.0,0.0,0.0,0.0,0.0,0.0,0.0,0.0,0.0,0.0,0.0,0.0,0.0,0.0,0.0,0.0,0.0,0.0,0.0,0.0,0.0,0.0,0.0,0.0,0.0,0.0,0.0,0.0,0.0,0.0,0.0,0.0,0.0,0.0,0.0,0.0,0.0,0.0,0.0,0.0,0.0,0.0,0.0,0.0,0.0,0.0,0.0,0.0,0.0,0.0,0.0,0.0,0.0,0.0,0.0,0.0,0.0,0.0,0.0,0.0,0.0,0.0,0.0,0.0,0.0,0.0,0.0,0.0,0.0,0.0,0.0,0.0,0.0,0.0,0.0,0.0,0.0,0.0,0.0,0.0,0.0,0.0,0.0,0.0,0.0,0.0,0.0,0.0,0.0,0.0,0.0,0.0,0.0,0.0,0.0,0.0,0.0,0.0,0.0,0.0,0.0,0.0,0.0,0.0,0.0,0.0,0.0,0.0,0.0,0.0,0.0,0.0,0.0,0.0,0.0,0.0,0.0,0.0,0.0,0.0,0.0,0.0,0.0,0.0,0.0,0.0,0.0,0.0,0.0,0.0,0.0,0.0,0.0,0.0,0.0,0.0,0.0,0.0,0.0,0.0,0.0,0.0,0.0,0.0,0.0,0.0,0.0,0.0,0.0,0.0,0.0,0.0,0.0,0.0,0.0,0.0,0.0,0.0,0.0,0.0,0.0,0.0,0.0,0.0,0.0,0.0,0.0,0.0,0.0,0.0,0.0,0.0,0.0,0.0,0.0,0.0,0.0,0.0,0.0,0.0,0.0,0.0,0.0,0.0,0.0,0.0,0.0,0.0,0.0,0.0,0.0,0.0,0.0,0.0,0.0,0.0,0.0,0.0,0.0,0.0,0.0,0.0,0.0,0.0,0.0,0.0,0.0,0.0,0.0,0.0,0.0,0.0,0.0,0.0,0.0,0.0,0.0,0.0,0.0,0.0,0.0,0.0,0.0,0.0,0.0,0.0,0.0,0.0,0.0,0.0,0.0,0.0,0.0,0.0,0.0,0.0,0.0,0.0,0.0,0.0,0.0,0.0,0.0,0.0,0.0,0.0,0.0,0.0,0.0,0.0,0.0,0.0,0.0,0.0,0.0,0.0,0.0,0.0,0.0,0.0,0.0,0.0,0.0,0.0,0.0,0.0,0.0,0.0,0.0,0.0,0.0,0.0,0.0,0.0,0.0,0.0,0.0,0.0,0.0,0.0,0.0,0.0,0.0,0.0,0.0,0.0,0.0,0.0,0.0,0.0,0.0,0.0,0.0,0.0,0.0,0.0,0.0,0.0,0.0,0.0,0.0,0.0,0.0,0.0,0.0,0.0,0.0,0.0,0.0,0.0,0.0,0.0,0.0,0.0,0.0,0.0,0.0,0.0,0.0,0.0,0.0,0.0,0.0,0.0,0.0,0.0,0.0,0.0,0.0,0.0,0.0,0.0,0.0,0.0,0.0,0.0,0.0,0.0,0.0,0.0,0.0,0.0,0.0,0.0,0.0,0.0,0.0,0.0,0.0,1.2085,0.0,0.0,0.0,0.0,0.0,0.0,0.0,0.0,0.0,0.0,0.0,0.0,0.0,0.0,0.0,0.0,0.0,0.0,0.0,0.0,0.0,0.0,0.0,0.0,1.0883,1.0957,1.0798,1.0872,1.0723,1.0213,1.01,0.0,0.0,0.0,0.0,0.9105,0.9188,0.936,0.9617,1.0415,1.1253,1.2152,1.1631,1.063,0.9185,0.0,0.0,0.0,0.0,0.0,0.0,0.0,0.0,0.0,0.0,0.0,0.0,0.0,0.0,0.0,0.0,0.0,0.0,0.0,0.0,0.0,0.0,0.0,0.0,0.0,0.0,0.0,0.0,0.0,0.0,0.0,0.0,0.0,0.0,0.0,0.0,0.0,0.0,0.0,0.0,0.0,0.0,0.0,0.0,0.0,0.0,0.0,0.0,0.0,0.0,0.0,0.0,0.0,0.0,0.0,0.0,0.0,0.0,0.0,0.0,0.0,0.0,0.0,0.0,0.0,0.0,0.0,0.0,0.0,0.0,0.0,1.3228,0.0,0.0,0.0,0.0,0.0,0.0,0.0,0.0,0.0,0.0,0.0,0.0,0.0,0.0,0.0,0.0,0.0,0.0,0.0,0.0,0.0,1.0436,1.084,1.1175,1.143,1.1481,1.1544,1.1377,1.0914,1.0767,1.0452,0.994,0.9799,0.9602,0.9314,0.9622,1.0064,1.0682,1.2075,1.3454,1.4731,1.4528,1.3379,1.145,1.0795,0.0,0.0,0.0,0.0,0.0,0.0,0.0,0.0,0.0,0.0,0.0,0.0,0.0,0.0,0.0,0.0,0.0,0.0,0.0,0.0,0.0,0.0,0.0,0.0,0.0,0.0,0.0,0.0,0.0,0.0,0.0,0.0,0.0,0.0,0.0,0.0,0.0,0.0,0.0,0.0,0.0,0.0,0.0,0.0,0.0,0.0,0.0,0.0,0.0,0.0,0.0,0.0,0.0,0.0,0.0,0.0,0.0,0.0,0.0,0.0,0.0,0.0,0.0,1.5021,1.5299,1.5498,1.5386,1.5561,1.5973,1.7036,1.6993,1.6055,1.4593,0.0,0.0,0.0,0.0,0.0,0.0,0.0,0.0,0.0,0.0,0.0,0.0,0.0,0.0,0.0,0.0,0.0,0.0,0.0,1.0854,1.1487,1.1904,1.2186,1.2249,1.2317,1.2156,1.1691,1.1488,1.1218,1.0854,1.0712,1.0599,1.0554,1.0768,1.133,1.2224,1.4081,1.5213,1.5716,1.5963,1.5828,1.5287,1.3701,1.2492,1.1511,0.0,0.0,0.0,0.0,0.0,0.0,0.0,0.0,0.0,0.0,0.0,0.0,0.0,0.0,0.0,0.0,0.0,0.0,0.0,0.0,0.0,0.0,0.0,0.0,0.0,0.0,0.0,0.0,0.0,0.0,0.0,0.0,0.0,0.0,0.0,0.0,0.0,0.0,0.0,0.0,0.0,0.9328,0.935,0.0,0.0,0.0,0.0,0.0,0.0,0.0,0.0,0.0,0.0,0.0,0.0,0.0,1.4078,1.469,1.623,1.7041,1.7155,1.8758,1.9509,1.9516,1.9516,1.955,1.954,1.8637,0.0,1.7063,1.63,0.0,0.0,0.0,0.0,0.0,0.0,0.0,0.0,0.0,0.0,0.0,0.0,0.0,0.0,0.0,0.0,0.0,0.0,0.0,0.0,0.0,1.2541,1.3003,1.3075,1.3268,1.3106,1.2399,1.2043,1.1631,1.118,1.0855,1.0783,1.0975,1.1562,1.3086,1.5468,1.7277,1.8351,1.8726,1.8847,1.8816,1.8561,1.7772,1.5995,1.3581,1.2963,0.0,0.0,0.0,0.0,0.0,0.0,0.0,0.0,0.0,0.0,0.0,0.0,0.0,0.0,0.0,0.0,0.0,0.0,0.0,0.0,0.0,0.0,0.0,0.0,0.0,0.0,0.0,0.0,0.0,0.0,0.0,0.0,0.0,0.0,0.0,0.0,0.0,0.0,0.0,0.9992,1.1839,1.2264,1.2818,1.2212,0.0,0.0,0.0,0.0,0.0,0.0,0.0,0.0,0.0,1.4927,1.5717,1.6453,1.7085,1.8644,1.9564,1.9765,2.053,2.0925,2.0925,2.0925,2.0925,2.0908,2.0319,1.982,1.9205,1.777,1.6975,1.6508,0.0,0.0,0.0,0.0,1.259,1.2977,0.0,0.0,0.0,0.0,0.0,0.0,0.0,0.0,0.0,0.0,0.0,0.0,1.2374,1.3314,1.395,1.3999,1.4433,1.4334,1.3437,1.2925,1.2396,1.1762,1.121,1.1076,1.1443,1.2961,1.5241,1.8313,1.9781,2.0689,2.0983,2.0983,2.0857,2.0689,2.0647,1.8892,1.5964,1.5367,1.4082,1.2333,0.0,0.0,0.0,0.0,0.0,0.0,0.0,0.0,0.0,0.0,0.0,0.0,0.0,0.0,0.0,0.0,0.0,0.0,0.0,0.0,0.0,0.0,0.0,0.0,0.0,0.0,0.0,0.0,0.0,0.0,0.0,0.0,0.0,0.0,0.0,0.0,0.0,1.1616,1.3612,1.4409,1.4872,1.4334,0.0,0.0,0.0,0.0,0.0,0.0,1.5304,1.5568,1.6061,1.6844,1.7965,1.8809,1.9307,2.0441,2.1148,2.1405,2.1405,2.1405,2.1405,2.1405,2.1405,2.1405,2.1405,2.1268,2.0896,1.9294,1.8255,1.772,1.7155,1.6245,1.5247,1.516,1.52,1.5373,0.0,0.0,0.0,0.0,0.0,0.0,0.0,0.0,0.0,0.0,0.0,1.2814,1.3559,1.4478,1.5072,1.512,1.5809,1.5891,1.5019,1.4494,1.3823,1.2941,1.2173,1.1952,1.2404,1.5544,1.8,1.9716,2.0675,2.1172,2.1172,2.1172,2.1172,2.115,2.0983,2.0177,1.893,1.8228,1.7132,1.5625,1.3089,0.0,0.0,0.0,0.0,0.0,0.0,0.0,0.0,0.0,0.0,0.0,0.0,0.0,0.0,0.0,0.0,0.0,0.0,0.0,0.0,0.0,0.0,0.0,0.0,0.0,0.0,0.0,0.0,0.0,0.0,0.0,0.0,0.0,0.0,0.0,0.0,0.0,0.0,1.4131,1.729,0.0,0.0,0.0,0.0,1.4462,1.477,1.596,1.8081,1.8316,1.9225,2.1023,2.1156,2.1237,2.1271,2.1371,2.1388,2.1405,2.1405,2.1405,2.1405,2.1405,2.1405,2.1405,2.1405,2.1405,2.1353,2.0913,2.0486,1.9979,1.8524,1.7868,1.7658,1.6234,1.6369,1.7259,0.0,0.0,0.0,0.0,0.0,0.9544,0.9825,0.9954,1.0216,1.0686,1.213,1.3284,1.3727,1.4884,1.5896,1.6618,1.6907,1.6826,1.6266,1.5439,1.4631,1.3931,1.31,1.3492,1.5357,1.7806,1.9704,2.101,2.1954,2.2375,2.2203,2.2203,2.2117,2.1987,2.19,2.1553,2.1018,2.0074,1.8732,1.7158,1.6041,1.3835,0.0,0.0,0.0,0.0,0.0,0.0,0.0,0.0,0.0,0.0,0.0,0.0,0.0,0.0,0.0,0.0,0.0,0.0,0.0,0.0,0.0,0.0,0.0,0.0,0.0,0.0,0.0,0.0,0.0,0.0,0.0,0.0,0.0,0.0,0.0,0.0,0.0,1.6457,1.7782,0.0,1.6992,1.7588,1.7779,1.705,1.8347,1.9479,2.0289,2.0395,2.0813,2.1764,2.1782,2.2021,2.2501,2.2501,2.2638,2.2877,2.2877,2.2877,2.2877,2.286,2.286,2.286,2.286,2.2723,2.2484,2.2156,2.1576,2.093,2.0378,2.005,1.9786,1.929,1.9166,1.9251,0.0,0.0,0.0,0.0,0.0,0.9525,0.9669,0.9959,1.0459,1.1238,1.2711,1.4054,1.5084,1.5909,1.6717,1.7519,1.7814,1.7617,1.6855,1.6102,1.5301,1.4485,1.4232,1.5311,1.7875,1.9384,2.0818,2.2069,2.253,2.275,2.2662,2.2903,2.284,2.253,2.2682,2.2529,2.2138,2.138,2.034,1.9092,1.8276,1.61,1.3226,0.0,0.0,0.0,0.0,0.0,0.0,0.0,0.0,0.0,0.0,0.0,0.0,0.0,0.0,0.0,0.0,0.0,0.0,0.0,0.0,0.0,0.0,0.0,0.0,0.0,0.0,0.0,0.0,0.0,0.0,0.0,0.0,0.0,0.0,0.0,1.5553,1.7749,1.824,1.854,1.8889,1.9207,1.9474,1.9607,2.0857,2.1713,2.197,2.1987,2.2158,2.2552,2.2552,2.2809,2.3306,2.3306,2.3443,2.3699,2.3699,2.3699,2.3682,2.3718,2.3438,2.3003,2.3455,2.325,2.2582,2.2877,2.2671,2.2124,2.161,2.1268,2.1062,2.1062,2.0891,2.0668,0.0,0.0,0.0,0.0,0.0,0.9744,0.9527,1.007,1.1096,1.2726,1.3668,1.5138,1.7585,1.7569,1.7505,1.7732,1.8514,1.8348,1.6746,1.6492,1.5902,1.4753,1.5614,1.7302,1.9682,2.026,2.1284,2.2813,2.2346,2.2258,2.2479,2.3102,2.3217,2.2851,2.3255,2.3083,2.2435,2.2213,2.1991,2.1551,1.9713,1.811,1.6549,0.0,0.0,0.0,0.0,0.0,0.0,0.0,0.0,0.0,0.0,0.0,0.0,0.0,0.0,0.0,0.0,0.0,0.0,0.0,0.0,0.0,0.0,0.0,0.0,0.0,0.0,0.0,0.0,0.0,0.0,0.0,0.0,0.0,1.2067,1.3466,1.5333,1.7818,1.8854,1.9794,2.0815,2.1234,2.161,2.2004,2.2038,2.2364,2.3083,2.3065,2.3236,2.3648,2.3665,2.3629,2.3681,2.3751,2.3751,2.3787,2.3787,2.3787,2.3787,2.3787,2.3001,2.1671,2.3104,2.2948,2.1707,2.3106,2.3735,2.3581,2.2055,2.1456,2.1439,2.1439,2.1405,2.1388,0.0,0.0,0.0,1.0059,0.9902,0.9704,0.9408,1.0006,1.0807,1.166,1.3104,1.4698,1.6422,1.7205,1.7934,1.8776,1.9073,1.8874,1.8004,1.7376,1.6795,1.638,1.7451,1.8697,2.0049,2.1121,2.2036,2.2715,2.2941,2.3319,2.3835,2.4042,2.4088,2.3991,2.4088,2.3813,2.3312,2.2983,2.258,2.2053,2.1254,1.9773,1.7969,0.0,0.0,0.0,0.0,0.0,0.0,0.0,0.0,0.0,0.0,0.0,0.0,0.0,0.0,0.0,0.0,0.0,0.0,0.0,0.0,0.0,0.0,0.0,0.0,0.0,0.0,0.0,0.0,0.0,0.0,0.0,0.0,1.5375,1.5858,1.5304,1.6157,1.9671,1.9652,1.9942,2.1565,2.2021,2.2448,2.2775,2.3049,2.3288,2.3494,2.2523,2.212,2.2445,2.2461,2.2706,2.3243,2.4373,2.5052,2.5309,2.5309,2.5309,2.5309,2.5309,2.4822,2.4022,2.4641,2.4416,2.3623,2.3928,2.4076,2.4008,2.3306,2.2757,2.2242,2.1936,2.149,2.0921,0.0,0.0,0.0,0.9923,0.9862,0.9704,0.9426,1.0023,1.0936,1.2202,1.3545,1.5188,1.7261,1.8018,1.8536,1.9015,1.9417,1.899,1.7384,1.7041,1.7229,1.8024,1.9085,2.0024,2.0799,2.1941,2.2685,2.3002,2.3282,2.3629,2.409,2.4376,2.445,2.4295,2.4563,2.4404,2.3839,2.3518,2.2989,2.2437,2.208,2.0871,1.92,1.8836,1.7615,1.6016,1.5389,1.5039,1.47,1.3407,0.0,0.0,0.0,0.0,0.0,0.0,0.0,0.0,0.0,0.0,0.0,0.0,0.0,0.0,0.0,0.0,0.0,0.0,0.0,0.0,0.0,0.0,0.0,0.0,1.5301,1.7745,1.8523,1.7335,1.7461,2.0295,2.0312,2.07,2.2315,2.2792,2.322,2.3562,2.3785,2.4042,2.4422,2.362,2.2923,2.2464,2.321,2.3478,2.3127,2.4741,2.572,2.5885,2.5885,2.5885,2.5885,2.5885,2.5374,2.4433,2.5246,2.5053,2.4102,2.4365,2.4415,0.0,0.0,0.0,0.0,0.0,2.2312,2.1718,0.0,0.0,0.0,0.9807,0.9823,0.9763,0.9563,1.0088,1.1328,1.3532,1.4515,1.6129,1.9089,1.9366,1.9213,1.8895,1.9677,1.8975,1.6186,1.6484,1.7588,1.9526,2.0455,2.1178,2.1642,2.2633,2.3221,2.3396,2.3512,2.3692,2.3918,2.4488,2.4611,2.4311,2.4886,2.478,2.4198,2.3907,2.3409,2.2758,2.2474,2.1562,2.038,1.9571,1.8888,1.8185,1.6879,1.6496,1.6459,1.5491,0.0,0.0,0.0,0.0,0.0,0.0,0.0,0.0,0.0,0.0,0.0,0.0,0.0,0.0,0.0,0.0,0.0,0.0,0.0,0.0,0.0,0.0,0.0,0.0,1.7206,1.9114,2.0056,1.9514,1.9418,2.0514,2.095,2.1715,2.3099,2.358,2.3956,2.4333,2.4347,2.4727,2.5395,0.0,0.0,0.0,0.0,2.4861,2.3255,2.5043,2.597,2.6062,2.6062,2.6062,2.6062,2.6062,2.526,2.4046,2.5377,2.5193,2.3949,2.462,2.4898,2.4744,2.3973,2.3718,2.3665,2.3506,2.3321,2.3014,0.0,0.0,1.0137,1.0059,1.0,0.9882,0.9703,1.0276,1.1489,1.3532,1.4577,1.6231,1.9089,1.9483,1.9648,1.9942,1.9919,1.9477,1.849,1.8386,1.8933,2.0237,2.0899,2.1292,2.1445,2.2704,2.3355,2.3373,2.4117,2.4737,2.5295,2.5227,2.5257,2.5392,2.5324,2.5208,2.5064,2.465,2.3985,2.315,2.2787,2.2125,2.1427,2.1475,2.1376,2.1262,2.0966,2.0875,2.063,1.8856,1.7963,1.7591,1.8002,0.0,0.0,0.0,0.0,0.0,0.0,0.0,0.0,0.0,0.0,0.0,0.0,0.0,0.0,0.0,0.0,0.0,0.0,0.0,0.0,1.7627,1.9953,2.1262,1.978,2.1366,2.2668,2.2552,2.195,2.213,2.3812,2.4367,2.4744,2.5121,2.5429,2.5611,2.5823,2.4655,2.3869,2.3575,2.3933,2.4136,2.4092,2.5604,2.6542,2.685,0.0,0.0,2.685,2.685,2.6406,2.5679,2.6177,2.5931,2.5186,2.5524,2.536,2.4744,2.3973,2.3682,2.3576,2.2424,2.2461,2.2979,0.0,1.0131,1.0235,1.0098,1.0059,0.998,0.9783,1.0361,1.1344,1.2887,1.4075,1.5896,1.8771,1.8636,1.862,1.9336,1.8638,1.8619,1.9696,1.9731,2.0246,2.1401,2.1938,2.2094,2.1891,2.3229,2.3878,2.3905,2.4793,2.5363,2.5693,2.5547,2.5577,2.5693,2.5547,2.5479,2.5479,2.5005,2.4288,2.3467,2.3001,2.2373,2.1687,2.1839,2.1972,2.2106,2.1972,2.1909,2.1765,2.0712,2.0232,2.0025,2.0331,1.9388,1.7639,0.0,0.0,0.0,0.0,0.0,0.0,0.0,0.0,0.0,0.0,0.0,0.0,0.0,0.0,1.6275,1.7508,0.0,1.8694,1.9193,2.0964,2.1966,2.1146,2.2671,2.3657,2.2938,2.3074,2.3618,2.4706,2.5155,2.5446,2.5634,2.5823,2.6011,2.6199,2.5486,2.4762,2.4001,2.4943,2.5041,2.4301,2.5939,2.6884,2.7073,2.7073,2.7073,2.7073,2.7073,2.691,2.6602,2.6722,2.6619,2.6296,2.6038,2.56,2.5035,2.447,2.4008,2.3646,2.312,2.3115,2.3304,0.0,0.0,1.0312,1.0078,1.0078,1.004,0.9862,1.033,1.1154,1.2379,1.3523,1.5228,1.7974,1.7404,1.7121,1.7788,1.7263,1.7804,1.9991,2.0679,2.1403,2.2359,2.2838,2.2882,2.2397,2.3635,2.4336,2.4414,2.5167,2.5596,2.5693,2.5645,2.5645,2.5693,2.5645,2.5645,2.5577,2.5137,2.4449,2.3579,2.313,2.2511,2.1776,2.1731,2.1883,2.2043,2.1865,2.1776,2.1776,2.1731,2.1687,2.1687,2.1687,2.1687,2.0746,1.5962,1.6293,0.0,0.0,0.0,0.0,0.0,0.0,0.0,0.0,0.0,1.7133,1.7478,1.7765,1.8441,2.0014,1.9895,1.9909,2.0947,2.184,2.2576,2.2879,2.3804,2.4124,2.3226,2.4172,2.5069,2.5446,2.5823,2.6045,2.6045,2.6114,2.6285,2.6593,2.6593,2.6101,2.4881,2.6311,2.6345,2.4881,2.6328,2.7073,2.7073,2.7073,2.7073,2.7073,2.7073,2.7073,2.7073,2.7073,2.7073,2.7021,2.6405,2.5891,2.5446,2.5155,2.4573,2.3922,2.4145,2.399,2.3718,0.0,0.0,0.0,1.0176,1.0098,1.0059,0.998,1.0194,1.1023,1.2871,1.3354,1.4249,1.6198,1.6072,1.5773,1.5574,1.7228,1.8547,1.9141,2.0918,2.2108,2.2397,2.2838,2.2882,2.2397,2.3345,2.4043,2.4414,2.4902,2.5352,2.5693,2.543,2.5479,2.5693,2.543,2.5333,2.5333,2.5284,2.4497,2.3346,2.3299,2.2768,2.2017,2.1776,2.1883,2.2106,2.2061,2.2061,2.2017,2.1776,2.1687,2.1687,2.1687,2.1687,2.1215,1.8785,0.0,1.7614,1.3384,1.1346,0.0,1.2969,1.4993,1.6624,0.0,0.0,2.2394,2.0704,2.2026,2.3729,2.4488,2.4163,2.3954,2.4328,2.4386,2.4306,2.4051,2.4757,2.5241,2.5128,2.5218,2.5463,2.584,2.6217,2.6422,2.6422,2.6747,2.697,2.7004,2.7004,2.6987,2.6755,2.6961,2.6978,2.6755,2.6978,2.7073,2.7073,2.7073,2.7073,2.7073,2.7073,2.7073,2.7073,2.7073,2.7073,2.7073,2.6987,2.6525,2.5816,2.5765,2.536,2.4658,2.435,2.4008,2.3699,0.0,0.0,0.0,1.0467,1.039,1.0332,1.0196,1.0341,1.0913,1.2119,1.2324,1.324,1.5493,1.5404,1.4782,1.3721,1.5703,1.7411,1.84,2.0539,2.2089,2.2775,2.3013,2.3013,2.2838,2.3485,2.3822,2.3815,2.4287,2.4639,2.4871,2.4775,2.4908,2.5235,2.5137,2.4955,2.4726,2.4533,2.3899,2.2945,2.2806,2.2382,2.1865,2.1731,2.1776,2.1721,2.0702,2.025,0.0,0.0,2.0077,2.0136,2.1335,2.0887,1.9756,1.8678,1.7963,0.0,1.6059,0.0,0.0,0.0,1.9182,2.0875,2.1138,2.2706,2.3984,2.3438,2.4049,2.4871,2.5534,2.4514,2.393,0.0,2.4558,2.4204,2.483,2.5453,2.5931,2.6018,2.51,2.4499,2.4589,2.5982,2.6389,2.5284,2.6414,2.7073,2.7073,2.7073,2.7073,2.7073,2.7073,2.7073,2.7073,2.7073,2.7073,2.7073,2.7073,2.7073,2.7073,2.7073,2.7073,2.7073,2.7073,2.7073,2.7073,2.7073,2.6884,2.6576,2.6354,2.5943,2.5321,2.4484,2.4199,2.4188,0.0,0.0,0.0,1.0793,1.0717,1.0602,1.0332,1.0503,1.0873,1.1476,1.1621,1.2379,1.422,1.4054,1.3382,1.2284,1.4343,1.6333,1.7852,2.0094,2.1873,2.2994,2.3013,2.2969,2.2925,2.3216,2.3403,2.3338,2.3645,2.3916,2.4146,2.4146,2.4297,2.4581,2.4581,2.4382,2.4003,2.3812,2.3308,2.2547,2.2364,2.2053,2.1687,2.1687,2.1452,2.0897,1.9513,1.8869,1.8628,0.0,1.8343,1.8922,1.9678,1.941,1.8672,1.8013,1.7074,1.6469,1.7224,0.0,0.0,2.005,2.178,2.3383,2.3835,2.4297,2.4727,2.5156,2.5315,2.5511,2.6148,2.5081,2.4509,2.5738,2.5216,2.4913,2.5782,2.6441,2.6593,2.6073,2.4887,2.3655,2.242,2.4766,2.5997,2.5113,2.6328,2.7073,2.7073,2.7073,2.7073,2.7073,2.7073,2.7073,2.7073,2.7073,2.7073,2.7073,2.7073,2.7073,2.7073,2.7073,2.7073,2.7073,2.7194,2.7194,2.7237,2.7315,2.7375,2.734,2.7046,2.6651,2.6231,2.5199,2.4614,2.4287,0.0,0.0,0.0,0.0,1.0983,1.0755,1.0351,1.0584,1.0947,1.1365,1.17,1.1812,1.1637,1.1488,1.1413,1.144,1.3687,1.5795,1.7423,1.972,2.157,2.2775,2.2794,2.2706,2.2441,2.246,2.265,2.3112,2.3131,2.3339,2.3691,2.3691,2.371,2.3757,2.3757,2.3617,2.3317,2.3317,2.2936,2.2318,2.2272,2.2053,2.1687,2.1687,2.0755,1.9409,1.8884,1.8704,1.834,1.607,1.6941,1.8574,1.6168,1.703,0.0,1.7253,1.5928,0.0,0.0,0.0,1.6392,1.9067,2.081,2.2281,2.4021,2.4727,2.5176,2.5577,2.6025,2.652,2.7078,2.7127,2.7069,2.695,2.7251,2.7382,2.7197,2.782,2.7445,2.503,2.5002,2.3476,0.0,2.22,2.5113,2.6866,2.7056,2.7073,2.7073,2.7073,2.7073,2.7073,2.7073,2.7073,2.7073,2.7073,2.7073,2.7073,2.7073,2.7073,2.7073,2.7073,2.7073,2.7133,2.734,2.7521,2.7521,2.784,2.796,2.796,2.7942,2.7744,2.7382,2.6615,2.5285,2.38,0.0,0.0,0.0,0.0,0.0,1.0945,1.0659,1.0845,1.1116,1.1436,1.1813,0.0,0.0,0.0,0.0,0.0,1.2953,1.4545,1.6187,1.8938,2.0799,2.1547,2.2789,2.3125,2.2441,2.2397,2.2428,2.2445,2.2445,2.2561,2.2751,2.2751,2.2899,2.3177,2.3177,2.2982,2.2658,2.2658,2.2346,2.1888,2.1888,2.1815,2.1624,2.0953,1.9968,1.8644,0.0,1.5294,1.4809,1.3838,1.4006,1.4735,1.534,1.5184,1.4539,1.3588,1.4586,1.605,0.0,0.0,1.9257,2.0748,2.2557,2.4134,2.4711,2.541,2.5878,2.5618,2.5076,2.454,2.4311,2.337,2.3048,2.4366,2.4034,2.4572,2.7249,2.5839,2.5139,2.6689,2.4978,0.0,0.0,0.0,0.0,2.3399,2.5701,2.7073,2.7073,2.7073,2.7073,2.7073,2.7073,2.7073,2.7073,2.7073,2.7073,2.7073,2.7478,2.7719,2.7719,2.7719,2.7496,2.7133,2.7194,2.7358,2.7521,2.7642,2.7762,2.802,2.802,2.796,2.7804,2.754,2.6795,2.572,0.0,0.0,0.0,0.0,0.0,0.0,0.0,0.0,0.0,0.0,0.0,0.0,0.0,0.0,0.0,0.0,0.0,1.3535,1.5284,1.753,1.9199,2.0105,2.1228,2.1514,2.0819,2.148,2.176,2.1631,2.217,2.2511,2.2595,2.2252,2.2217,2.2474,2.2474,2.2327,2.2071,2.2071,2.1925,2.165,2.1036,2.0768,2.0548,1.9281,1.7957,0.0,1.4226,1.2732,1.176,1.1369,1.1819,1.2676,1.3354,1.3007,1.2499,1.3363,1.4874,1.6492,0.0,1.9488,2.139,2.2482,2.4013,2.5237,2.5237,2.5778,2.6237,2.6015,2.552,2.478,2.3641,2.2494,2.2247,2.3781,2.3462,2.4332,2.7975,2.6834,2.6062,2.7393,2.568,0.0,0.0,0.0,0.0,2.2625,2.4949,2.6346,2.6107,2.6287,2.6645,2.7073,2.7315,2.7315,2.7073,2.7073,2.7073,2.7133,2.7719,2.802,2.802,2.8259,2.7681,2.6466,2.7477,2.7364,2.6645,2.7758,2.8199,2.8199,2.8319,2.8259,2.8199,2.8199,2.786,2.7099,0.0,0.0,0.0,0.0,0.0,0.0,0.0,0.0,0.0,0.0,0.0,0.0,0.0,0.0,0.0,0.0,0.0,0.0,1.4572,1.5622,1.6866,1.8368,1.8364,1.8208,1.7955,1.9699,2.0635,2.0595,2.2094,2.2804,2.2761,2.1882,2.1459,2.1459,2.1478,2.1478,2.1415,2.1478,2.1478,2.1324,1.974,1.8971,1.8574,1.6791,1.4968,1.3286,1.2632,0.0,0.0,0.9028,0.0,0.0,0.0,1.1017,1.2814,1.6233,1.6578,1.653,1.9771,2.1435,2.2621,2.4117,2.5009,2.5547,2.5566,2.5888,2.6267,2.6536,2.6993,2.6654,0.0,0.0,2.4018,2.4796,2.5108,2.6284,2.9183,3.0142,2.9563,0.0,0.0,0.0,0.0,0.0,0.0,2.4477,0.0,2.5152,2.46,2.5094,2.5974,2.7177,2.7719,2.7779,2.7194,2.7133,2.7194,2.7254,2.7779,2.808,2.814,2.8737,2.7694,2.5536,2.8237,2.7735,2.5236,2.8274,2.9094,2.8576,2.8934,2.8815,2.8517,2.8517,2.8337,2.7973,0.0,0.0,0.0,0.0,0.0,0.0,0.0,0.0,0.0,0.0,0.0,0.0,0.0,0.0,0.0,0.0,0.0,0.0,1.2946,1.4714,1.5936,1.635,1.7566,1.8027,1.757,1.8031,1.8197,1.8044,1.8446,1.8629,1.8647,1.8372,1.8232,1.8114,1.8371,1.8256,1.7916,1.8331,1.8376,1.8079,1.7666,1.7311,1.6888,1.5527,1.4116,0.0,0.0,0.0,0.0,0.0,0.0,0.0,0.0,1.4607,1.5405,1.5342,1.7063,1.9228,1.9975,2.2166,2.4466,2.5604,2.6013,2.6265,2.6575,2.6962,2.6538,2.3987,2.2894,2.1387,0.0,0.0,0.0,2.0525,2.0881,0.0,2.6244,2.5933,0.0,0.0,0.0,2.6591,2.7152,2.8264,0.0,0.0,2.717,2.7937,2.7819,2.7937,2.8163,2.8498,2.8677,2.8677,2.8498,2.802,2.8259,2.9153,2.8856,2.8975,2.945,2.9568,2.9083,2.8074,2.8824,2.8788,2.8292,2.9102,2.9372,2.9272,2.9331,2.9153,2.8874,2.8874,2.8815,2.8719,0.0,0.0,0.0,0.0,0.0,0.0,0.0,0.0,0.0,0.0,0.0,0.0,0.0,0.0,0.0,0.0,0.0,0.0,0.0,1.3535,1.4351,1.4561,1.5321,1.5629,1.5273,1.61,1.6433,1.626,1.6955,1.728,1.728,1.6862,1.6624,1.6551,1.6739,1.6667,1.6405,1.6874,1.6963,0.0,0.0,1.564,1.508,1.3535,1.2321,0.0,0.0,0.0,0.0,0.0,0.0,1.4682,1.6517,1.7289,1.7656,1.8633,0.0,2.1397,2.2249,2.3846,2.5448,2.622,2.6323,2.6052,2.5138,2.5346,2.4758,2.1253,2.0281,0.0,0.0,0.0,0.0,0.0,0.0,0.0,2.5371,2.5362,2.5321,0.0,2.6549,0.0,2.9161,2.9922,2.9772,0.0,2.8217,2.8056,2.7764,2.8056,2.8396,2.8975,2.9272,2.9272,2.8975,2.8618,2.8797,2.9509,2.945,2.9568,2.9922,3.0235,2.9538,2.825,0.0,2.9108,2.8056,2.9322,2.9667,2.949,2.9627,2.9509,2.9213,2.9331,2.9213,2.9035,0.0,0.0,0.0,0.0,0.0,0.0,0.0,0.0,0.0,0.0,1.3621,0.0,0.0,0.0,0.0,0.0,0.0,0.0,0.0,0.0,0.0,1.3037,1.2751,1.2538,1.2489,0.0,0.0,0.0,0.0,0.0,1.6726,1.5922,1.5514,1.548,1.5532,1.5515,1.5463,1.5807,1.5945,1.5806,1.4645,1.3884,1.3236,0.0,0.0,0.0,0.0,0.0,0.0,0.0,1.5545,1.5723,1.8713,1.9445,1.9849,2.3018,2.3392,2.322,2.4908,2.5528,2.581,2.6348,2.6365,2.5641,2.3578,2.3178,2.2337,1.911,0.0,1.8035,1.5654,0.0,1.6976,1.9722,0.0,2.252,2.4827,2.6204,2.6729,2.6241,2.6804,2.8097,3.012,3.0354,3.0471,3.0879,2.8838,2.738,2.6863,2.7323,2.8129,2.9194,2.9745,2.9804,2.9272,2.9153,2.9153,2.9272,2.9686,2.9922,3.0039,3.0645,2.9679,2.7703,2.9949,0.0,2.7031,2.9483,3.0098,2.9549,2.9863,2.9804,2.9568,2.9804,2.9568,2.9153,0.0,0.0,0.0,0.0,0.0,0.0,0.0,0.0,0.0,0.0,1.4961,1.4393,0.0,0.0,0.0,0.0,0.0,0.0,0.0,0.0,0.0,0.0,1.2119,1.2093,0.0,0.0,0.0,0.0,0.0,0.0,1.2864,1.2706,1.2501,1.2311,1.2542,1.2359,1.1897,1.2348,1.2423,1.2214,1.2086,1.1815,1.1452,0.0,0.0,0.0,0.0,0.0,0.0,0.0,1.7004,1.8294,2.0403,2.1776,2.2417,2.1737,2.303,2.4517,2.3883,2.4688,2.5869,2.6719,2.6851,2.6904,2.7207,2.5305,0.0,0.0,0.0,1.5406,1.4775,1.5345,0.0,1.9945,0.0,0.0,0.0,0.0,2.5656,0.0,0.0,0.0,0.0,0.0,0.0,0.0,0.0,3.018,3.0122,3.0161,3.0374,3.0587,3.0645,3.0704,3.0587,3.0,3.0,3.0587,3.0117,3.0157,3.0704,3.084,3.0684,3.0238,3.0704,0.0,3.0122,3.0587,3.0567,3.0197,3.0274,3.0098,2.9863,2.9863,2.9804,2.9745,0.0,0.0,0.0,0.0,0.0,0.0,0.0,1.4787,1.5628,1.7252,1.7048,1.6675,1.646,1.5241,1.4504,0.0,0.0,0.0,0.0,0.0,0.0,0.0,0.0,0.0,0.0,0.0,0.0,0.0,0.0,0.0,0.0,0.0,0.0,0.0,0.0,0.0,0.0,0.0,0.0,0.0,0.0,0.0,0.0,0.0,0.0,0.0,0.0,0.0,0.0,0.0,1.5891,1.7837,2.122,2.2957,2.3537,2.2357,2.3636,2.5112,2.3876,2.459,2.5888,2.6797,2.7012,2.6381,2.4088,0.0,0.0,0.0,0.0,1.2067,1.1961,0.0,0.0,0.0,0.0,0.0,0.0,0.0,0.0,0.0,0.0,0.0,0.0,0.0,0.0,0.0,0.0,2.9487,3.0801,3.0898,3.0898,3.0898,3.0898,3.0898,3.0898,3.0587,3.0587,3.0898,3.0587,3.0587,3.0898,3.0898,3.0898,3.0898,3.0898,0.0,2.9028,3.0335,3.0006,2.8797,3.0141,3.045,3.0157,3.0157,2.9981,2.9686,0.0,0.0,0.0,0.0,0.0,0.0,0.0,1.5427,1.6508,1.8293,1.8725,1.8592,1.7838,1.6452,1.544,0.0,0.0,0.0,0.0,0.0,0.0,0.0,0.0,0.0,0.0,0.0,0.0,0.0,0.0,0.0,0.0,0.0,0.0,0.0,0.0,0.0,0.0,0.0,0.0,0.0,0.0,0.0,0.0,0.0,0.0,0.0,0.0,0.0,0.0,0.0,1.429,1.616,2.0564,2.2513,2.3094,2.2779,2.3866,2.5004,2.4325,2.4922,2.5869,2.6699,2.6875,2.5681,2.1083,1.956,0.0,0.0,1.0132,0.9721,1.0432,0.0,0.0,0.0,0.0,0.0,0.0,0.0,0.0,0.0,0.0,0.0,0.0,0.0,0.0,0.0,0.0,0.0,3.0801,3.0898,3.0898,3.0898,3.0898,3.0898,3.0898,3.0898,3.0898,3.0898,3.0898,3.0898,3.0898,3.0898,3.0898,3.0898,3.0898,0.0,0.0,2.9852,2.9392,2.7347,2.993,3.0762,3.0509,3.045,3.0098,2.9686,0.0,0.0,0.0,0.0,0.0,0.0,0.0,1.5659,1.7237,1.9193,1.8928,1.8879,1.9749,1.8437,1.7063,0.0,0.0,0.0,0.0,0.0,0.0,0.0,0.0,0.0,0.0,0.0,0.0,0.0,0.0,0.0,0.0,0.0,0.0,0.0,0.0,0.0,0.0,0.0,0.0,0.0,0.0,0.0,0.0,0.0,0.0,0.0,0.0,0.0,0.0,0.0,0.0,1.408,1.7152,1.9041,2.0269,2.1275,0.0,0.0,2.5169,2.5577,2.581,2.6328,2.6445,2.579,2.3237,0.0,0.0,1.453,1.1409,1.0139,1.305,1.3383,1.4777,0.0,0.0,0.0,0.0,0.0,0.0,0.0,0.0,0.0,0.0,0.0,0.0,0.0,0.0,0.0,3.0898,3.0898,3.0898,3.0898,3.0898,3.0898,3.0898,3.0898,3.0898,3.0898,3.0898,3.0898,3.0898,3.0898,3.0898,3.0898,3.0898,0.0,0.0,2.9852,2.9392,2.7347,2.993,3.0898,3.082,3.0509,3.0392,3.0274,0.0,0.0,0.0,0.0,0.0,0.0,1.4913,1.615,1.7618,1.9466,1.9441,1.9369,1.9667,1.8843,1.7754,1.6488,0.0,0.0,0.0,0.0,0.0,0.0,0.0,0.0,0.0,0.0,0.0,0.0,0.0,0.0,0.0,0.0,0.0,0.0,0.0,0.0,0.0,0.0,0.0,0.0,0.0,0.0,0.0,0.0,0.0,0.0,0.0,0.0,0.0,0.0,0.0,0.0,1.3137,1.4423,0.0,0.0,2.0922,2.2934,2.2937,2.4283,2.5791,2.6289,2.6582,2.5702,2.159,0.0,0.0,1.2707,1.0311,0.9469,1.0761,1.0721,1.1903,0.0,0.0,0.0,0.0,0.0,0.0,0.0,0.0,0.0,0.0,0.0,0.0,0.0,0.0,0.0,3.0801,3.0898,3.0898,3.0898,3.0898,3.0898,3.0898,3.0898,3.0898,3.0898,3.0898,3.0898,3.0898,3.0898,3.0898,3.0898,3.0898,0.0,0.0,2.9219,2.8496,2.5258,2.9315,3.0898,3.084,3.0509,3.0274,3.0039,0.0,0.0,0.0,0.0,0.0,1.4627,1.5267,1.6622,1.81,1.9441,1.9562,1.9494,1.9518,1.8524,1.7584,1.6808,1.5906,0.0,0.0,0.0,0.0,0.0,0.0,0.0,0.0,0.0,1.3484,1.3042,1.3114,0.0,0.0,0.0,0.0,0.0,0.0,0.0,0.0,0.0,0.0,0.0,0.0,0.0,0.0,0.0,0.0,0.0,0.0,0.0,0.0,0.0,0.0,0.0,0.0,0.0,0.0,0.0,1.9229,2.1789,2.1643,2.3592,2.5752,2.6113,2.5937,2.4439,0.0,0.0,1.6193,1.0934,0.9308,0.886,0.8898,0.8646,0.97,1.3675,0.0,0.0,0.0,0.0,0.0,0.0,0.0,0.0,0.0,0.0,0.0,0.0,0.0,0.0,3.0801,3.0898,3.0898,3.0898,3.0898,3.0898,3.0898,3.0898,3.0898,3.0898,3.0898,3.0509,2.9775,3.0587,3.0509,2.9833,3.0587,0.0,0.0,2.9124,2.8401,2.4913,2.9219,3.0898,3.084,3.0509,3.0274,3.0039,0.0,0.0,0.0,0.0,0.0,0.0,1.5245,1.7114,1.8654,1.9135,1.8919,1.8976,1.972,1.7665,1.6384,1.6776,1.6018,0.0,0.0,0.0,0.0,0.0,0.0,0.0,0.0,0.0,1.2973,1.2915,1.2769,1.2907,1.3292,0.0,0.0,0.0,0.0,0.0,0.0,0.0,0.0,0.0,0.0,0.0,0.0,0.0,0.0,0.0,0.0,0.0,0.0,0.0,0.0,0.0,0.0,1.1223,1.2012,0.0,1.7429,2.0157,2.2143,2.4183,2.5693,2.5693,2.4083,2.1644,0.0,0.0,1.3278,1.0146,0.8982,0.8532,0.8694,0.8437,0.9454,1.3293,1.4081,0.0,0.0,0.0,0.0,0.0,0.0,0.0,0.0,0.0,0.0,0.0,0.0,0.0,3.0898,3.0898,3.0898,3.0898,3.0898,3.0898,3.0898,3.0898,3.0898,3.0898,3.0898,2.9583,2.7236,2.9756,2.9506,0.0,0.0,0.0,0.0,2.9852,2.9392,2.7329,2.9872,3.0898,3.084,3.0509,3.0392,3.0333,0.0,0.0,0.0,0.0,0.0,0.0,0.0,1.5856,1.6954,1.797,1.7436,1.7388,1.8592,1.7123,1.6214,1.6622,1.587,0.0,0.0,0.0,0.0,0.0,0.0,0.0,0.0,1.4196,1.4348,1.4343,1.4281,1.4181,1.407,1.3995,1.3509,0.0,0.0,0.0,0.0,0.0,0.0,0.0,0.0,0.0,0.0,0.0,0.0,0.0,0.0,0.0,0.0,0.0,0.0,0.0,0.0,0.0,0.0,1.2088,1.452,1.7068,1.7878,1.9534,2.0897,2.0614,2.0454,1.958,1.6492,0.0,1.3703,1.0458,0.9236,0.871,0.8516,0.8411,0.9518,1.3177,1.3622,0.0,0.0,0.0,0.0,0.0,0.0,0.0,0.0,0.0,0.0,0.0,0.0,0.0,3.0801,3.0898,3.0898,3.0898,3.0898,3.0898,3.0898,3.0898,3.0898,3.0898,3.0898,2.9564,2.7179,2.9756,2.9487,0.0,0.0,0.0,0.0,2.9852,2.9392,2.7347,2.993,3.0898,3.0898,3.0762,3.0567,3.0392,0.0,0.0,0.0,0.0,0.0,0.0,0.0,1.5511,1.6456,1.7198,1.6727,1.6732,1.7751,1.6696,1.6015,1.6327,1.5929,0.0,0.0,0.0,0.0,0.0,0.0,0.0,1.435,1.4476,1.4746,1.5143,1.5196,1.5144,1.4955,1.4901,1.4188,1.3041,1.3042,0.0,0.0,0.0,0.0,0.0,0.0,0.0,1.1911,0.0,0.0,0.0,0.0,0.0,0.0,0.0,0.0,0.0,0.0,0.0,0.0,0.0,1.2346,1.4043,0.0,1.7168,1.8638,1.8341,1.8009,0.0,0.0,0.0,1.2382,1.0172,1.0181,1.0167,0.8664,0.9524,1.0831,1.1891,0.0,0.0,0.0,0.0,0.0,0.0,0.0,0.0,0.0,0.0,0.0,0.0,0.0,0.0,3.0801,3.0898,3.0898,3.0898,3.0898,3.0898,3.0898,3.0898,3.0898,3.0898,3.0898,2.9564,2.7179,2.9756,2.9487,0.0,0.0,0.0,0.0,3.0238,2.9949,2.8667,3.0296,3.0898,3.0898,3.0898,3.0762,3.0567,0.0,0.0,0.0,0.0,0.0,0.0,0.0,1.5821,1.6793,1.6688,1.6583,1.6679,1.7077,1.6245,1.5745,1.5971,0.0,0.0,0.0,0.0,0.0,0.0,0.0,0.0,1.4583,1.4094,1.435,1.5429,1.5575,1.5727,1.5924,1.5451,1.4644,1.3617,1.2993,1.2413,1.1909,1.191,1.1428,1.0702,1.1045,1.1468,0.0,0.0,0.0,0.0,0.0,0.0,0.0,0.0,0.0,0.0,0.0,0.0,0.0,0.0,0.0,0.0,0.0,1.6436,1.7987,1.7968,1.6338,1.4652,0.0,0.0,0.0,0.9755,1.1685,1.248,0.9453,1.1815,1.3252,1.0343,0.0,0.0,0.0,0.0,0.0,0.0,0.0,0.0,0.0,0.0,0.0,0.0,0.0,0.0,3.0898,3.0898,3.0898,3.0898,3.0898,3.0898,3.0898,3.0898,3.0801,3.0684,3.0801,2.9487,2.6975,2.966,2.9487,0.0,0.0,0.0,0.0,3.0898,3.0898,3.0898,3.0898,3.0898,3.0898,3.0898,3.0898,3.0898,0.0,0.0,0.0,0.0,0.0,0.0,0.0,0.0,0.0,0.0,1.5101,1.505,1.5492,1.5315,1.5351,0.0,0.0,0.0,0.0,0.0,0.0,0.0,0.0,0.0,1.4381,1.4294,1.4744,1.5708,1.5786,1.6027,1.6434,1.6522,1.5636,1.399,1.3813,1.3118,1.2041,1.1944,1.1694,1.1345,1.1078,1.1409,0.0,0.0,0.0,0.0,1.2749,1.2455,0.0,0.0,0.0,0.0,0.0,0.0,0.0,0.0,1.0996,1.1149,1.1859,0.0,1.3136,1.2785,1.2552,1.2191,0.0,0.0,0.0,0.0,0.0,0.0,0.0,0.0,0.0,0.0,0.0,0.0,0.0,0.0,0.0,0.0,0.0,0.0,0.0,0.0,0.0,0.0,0.0,3.0898,3.0898,3.0898,3.0898,3.0898,3.0898,3.0898,3.0898,3.0898,3.0007,2.829,3.0084,2.8706,2.4704,2.8972,2.9487,0.0,0.0,0.0,3.0898,3.0898,3.0898,3.0898,3.0898,3.0898,3.0898,3.0898,3.0898,3.0898,0.0,0.0,0.0,0.0,0.0,0.0,0.0,0.0,0.0,0.0,0.0,1.4773,1.4713,1.4949,0.0,0.0,0.0,0.0,0.0,0.0,0.0,0.0,0.0,1.3883,1.4435,1.4405,1.5069,1.6412,1.678,1.7056,1.721,1.7252,1.6336,1.4649,1.3976,1.3041,1.1923,1.1898,1.1706,1.1418,1.1434,0.0,0.0,0.0,0.0,0.0,1.2732,1.2527,0.0,1.2308,1.2012,1.1646,0.0,0.0,0.0,0.0,1.0973,1.0872,1.1057,1.1521,1.21,1.266,1.2338,1.1984,1.2327,0.0,0.0,0.0,0.0,0.0,0.0,0.0,0.0,0.0,0.0,0.0,0.0,0.0,0.0,0.0,0.0,0.0,0.0,0.0,0.0,0.0,0.0,3.0898,3.0898,3.0898,3.0898,3.0898,3.0898,3.0898,3.0898,3.0898,2.9853,2.7785,2.9872,2.9106,2.5821,2.9316,3.0142,0.0,0.0,0.0,3.0801,2.9795,2.9988,3.0898,3.0898,3.0898,3.0898,3.0898,3.0898,3.1015,0.0,0.0,0.0,0.0,0.0,0.0,0.0,0.0,0.0,0.0,0.0,0.0,0.0,0.0,0.0,0.0,0.0,0.0,0.0,0.0,0.0,0.0,1.3591,1.3603,1.4582,1.4549,1.5308,1.6927,1.7757,1.8056,1.784,1.7947,1.712,1.542,1.4031,1.2826,1.1816,1.1979,1.1763,1.1342,1.1881,0.0,0.0,0.0,0.0,0.0,0.0,0.0,0.0,1.2464,1.2299,1.214,1.2104,0.0,0.0,0.0,0.0,0.0,1.1141,1.1987,1.3108,1.4698,1.3714,1.2774,1.4539,0.0,0.0,0.0,0.0,0.0,0.0,0.0,0.0,0.0,0.0,0.0,0.0,0.0,0.0,0.0,0.0,0.0,0.0,0.0,0.0,0.0,0.0,3.0898,3.0898,3.0898,3.0898,3.0898,3.0898,3.0898,3.0898,3.0898,2.9911,2.7955,2.993,2.9834,2.7974,3.0007,3.0898,3.0781,0.0,0.0,3.0762,2.8782,2.9067,3.082,3.1054,3.1112,3.1112,3.1112,3.1112,3.1267,0.0,0.0,0.0,0.0,0.0,0.0,0.0,0.0,0.0,0.0,0.0,0.0,0.0,0.0,0.0,0.0,0.0,0.0,0.0,0.0,0.0,1.5282,1.489,1.4645,1.4607,1.4852,1.5379,1.6162,1.7372,1.7816,1.7599,1.9136,1.8426,1.5774,1.4881,1.3651,1.2299,1.2614,1.2375,1.1806,1.2011,0.0,0.0,0.0,0.0,0.0,0.0,0.0,0.0,1.2045,1.1769,1.1461,1.1938,0.0,0.0,0.0,0.0,0.0,1.1823,1.3173,1.4391,1.4956,1.3965,1.3261,1.4737,0.0,0.0,0.0,0.0,0.0,0.0,0.0,0.0,0.0,0.0,0.0,0.0,0.0,0.0,0.0,0.0,0.0,0.0,0.0,0.0,0.0,0.0,3.0898,3.0898,3.0898,3.0898,3.0898,3.0898,3.0898,3.0898,3.0898,2.9776,2.7596,2.9872,2.9699,2.7671,2.9891,3.0898,3.0879,0.0,3.0335,3.0879,3.0257,3.014,3.0626,3.1883,3.2264,3.2015,3.2015,3.2015,3.2187,0.0,0.0,0.0,0.0,0.0,0.0,0.0,0.0,0.0,0.0,0.0,0.0,0.0,0.0,0.0,0.0,0.0,0.0,0.0,0.0,1.5442,1.555,1.5596,1.5442,1.5161,1.5753,1.6592,1.7673,1.8747,1.9225,1.9169,1.935,1.8055,1.5601,1.5121,1.3902,1.2212,1.2437,1.2236,1.1844,0.0,0.0,0.0,0.0,0.0,0.0,0.0,0.0,0.0,0.0,1.2067,1.1914,1.2315,0.0,0.0,0.0,0.0,0.0,1.1385,1.2467,1.3921,1.6615,1.6048,1.5661,1.8786,0.0,0.0,0.0,0.0,0.0,0.0,0.0,0.0,0.0,0.0,0.0,0.0,0.0,0.0,0.0,0.0,0.0,0.0,0.0,0.0,0.0,0.0,0.0,3.0898,3.0898,3.0898,3.0898,3.0898,3.0898,3.0898,3.0898,2.9853,2.7785,2.993,2.9776,2.786,2.9949,3.0898,3.0801,0.0,2.9602,3.0801,2.941,2.993,3.171,3.2399,3.3006,3.336,3.336,3.381,3.4425,0.0,0.0,0.0,0.0,0.0,0.0,0.0,0.0,0.0,0.0,0.0,0.0,0.0,0.0,0.0,0.0,0.0,0.0,0.0,1.585,1.5658,1.5786,1.5835,1.5928,1.6102,1.676,1.7779,1.9157,2.0007,2.061,2.0856,1.9247,1.7492,1.5661,1.5148,1.3824,1.2011,1.2151,1.2006,1.1789,0.0,0.0,0.0,0.0,0.0,0.0,0.0,0.0,0.0,0.0,0.0,0.0,0.0,0.0,0.0,1.1533,1.0893,1.0342,1.1268,1.1991,1.3478,1.7678,0.0,1.7153,2.2088,0.0,0.0,0.0,0.0,0.0,0.0,0.0,0.0,0.0,0.0,0.0,0.0,0.0,0.0,0.0,0.0,0.0,0.0,0.0,0.0,0.0,0.0,0.0,3.0898,3.0898,3.0879,3.0762,3.0762,3.0762,3.0645,3.0645,3.0007,2.8728,3.02,3.0123,2.8728,3.0219,3.0898,3.0781,2.8972,2.9181,3.0781,2.8914,2.991,3.2607,3.2949,3.3741,3.4614,3.4614,3.5223,3.5991,0.0,0.0,0.0,0.0,0.0,0.0,0.0,0.0,0.0,0.0,0.0,0.0,0.0,0.0,0.0,0.0,0.0,0.0,0.0,1.5877,1.565,1.64,1.5578,1.5831,1.7508,1.7676,1.8232,1.9298,2.0165,2.0963,2.1658,1.9144,1.7446,1.6426,1.5001,1.3476,1.2011,1.2151,1.2006,1.1745,1.2255,0.0,0.0,0.0,0.0,0.0,0.0,0.0,0.0,0.0,0.0,0.0,0.0,0.0,1.1373,1.1765,1.1246,1.0881,1.2382,1.3043,1.3995,1.689,1.5873,0.0,2.1926,1.9367,0.0,2.227,0.0,0.0,0.0,0.0,0.0,0.0,0.0,0.0,0.0,0.0,0.0,0.0,0.0,0.0,0.0,0.0,0.0,0.0,0.0,0.0,3.0898,3.0898,3.0762,3.045,3.045,3.0274,2.9981,2.9981,3.0197,3.0684,3.0801,3.0859,3.0684,3.0859,3.0898,3.0879,3.0392,3.0451,3.0879,3.0392,3.0994,3.2358,3.3719,3.4648,3.5233,3.5233,3.5288,3.5421,0.0,0.0,0.0,0.0,0.0,0.0,0.0,0.0,0.0,0.0,0.0,1.7456,1.7121,0.0,0.0,0.0,0.0,0.0,0.0,1.5469,1.5511,1.5687,1.5616,1.6218,1.7603,1.8116,1.9095,2.0603,2.0742,2.0869,2.1019,1.9171,1.7478,1.5895,1.5387,1.4139,1.2368,1.2429,1.2396,1.2358,1.2515,1.2313,0.0,0.0,0.0,0.0,0.0,0.0,0.0,0.0,1.1921,1.2012,1.2066,1.1881,1.1602,1.158,1.0786,1.0192,1.1442,1.2227,1.3552,1.7329,1.6822,0.0,0.0,2.1058,1.9924,0.0,0.0,0.0,0.0,0.0,0.0,0.0,0.0,0.0,0.0,0.0,0.0,0.0,0.0,0.0,0.0,0.0,0.0,0.0,0.0,0.0,3.0898,3.0704,3.0509,3.0392,3.0392,3.0216,2.9922,2.9922,3.0039,3.0294,3.0509,3.0704,3.0898,3.0898,3.0898,3.0937,3.1556,3.1767,3.1787,3.2379,3.3325,3.4558,3.585,3.6526,3.6719,3.6503,3.6557,3.6742,0.0,0.0,0.0,0.0,0.0,0.0,0.0,0.0,1.7197,0.0,0.0,0.0,0.0,1.7347,0.0,0.0,0.0,0.0,1.55,1.5492,1.5503,1.5447,1.5732,1.6371,1.7456,1.8205,1.9459,2.1269,2.1172,2.0887,2.0398,1.8964,1.7493,1.6029,1.565,1.4677,1.326,1.2966,1.289,1.2966,1.2589,1.2268,0.0,0.0,0.0,0.0,0.0,0.0,0.0,0.0,1.1881,1.1982,1.1987,1.2021,1.2021,1.1844,1.125,1.0777,1.1449,1.2072,1.3474,1.7271,0.0,0.0,2.2704,2.2015,0.0,0.0,0.0,0.0,0.0,0.0,0.0,0.0,0.0,0.0,0.0,0.0,0.0,0.0,0.0,0.0,0.0,0.0,0.0,0.0,0.0,0.0,0.0,3.0392,3.0216,3.0098,3.0098,2.9981,2.9627,2.9627,2.9686,2.9804,3.0039,3.0274,3.0587,3.0587,3.0645,3.082,3.1998,3.2379,3.2285,3.3515,3.4692,3.5763,3.6874,3.7328,3.7274,3.7089,3.7143,3.7328,0.0,0.0,0.0,0.0,0.0,0.0,0.0,0.0,1.7033,1.7773,1.7875,0.0,0.0,0.0,0.0,0.0,0.0,0.0,1.6854,1.6009,1.5639,1.5951,1.5856,1.6216,1.7165,1.7898,1.9188,2.0972,2.1369,2.1058,2.0044,1.8377,1.7459,1.711,1.5677,1.4949,1.4744,1.3732,1.3451,1.3524,1.2363,1.2046,1.2204,0.0,0.0,0.0,0.0,0.0,0.0,0.0,1.1793,1.1634,1.2515,1.2708,1.2614,1.2612,1.2842,1.3061,1.2866,1.3078,1.3941,0.0,0.0,0.0,0.0,0.0,0.0,0.0,0.0,0.0,0.0,0.0,0.0,0.0,0.0,0.0,0.0,0.0,0.0,0.0,0.0,0.0,0.0,0.0,0.0,0.0,0.0,0.0,0.0,2.9922,2.9745,2.9509,2.9509,2.9331,2.8975,2.8975,2.9153,2.9509,2.9509,2.9627,2.9922,2.9922,3.0098,3.0509,3.1669,3.2207,3.2342,3.3515,3.458,3.5488,3.6363,3.6712,3.6712,3.6712,3.6712,3.6766,0.0,0.0,0.0,0.0,0.0,0.0,0.0,0.0,1.6199,1.6028,1.6362,0.0,0.0,0.0,0.0,0.0,0.0,0.0,1.4954,1.5007,1.5041,1.5031,1.528,1.5687,1.6212,1.7351,1.8518,1.9674,1.9464,1.895,1.8171,1.7683,1.6883,1.5937,1.7588,1.6922,1.4648,1.5726,1.5383,1.4098,1.3369,1.3114,1.315,0.0,0.0,0.0,0.0,0.0,0.0,0.0,0.0,0.0,1.1819,1.2515,1.3443,1.4228,1.3649,1.3034,1.4332,1.4486,0.0,0.0,0.0,0.0,0.0,0.0,0.0,0.0,0.0,0.0,0.0,0.0,0.0,0.0,0.0,0.0,0.0,0.0,0.0,0.0,0.0,0.0,0.0,0.0,0.0,0.0,0.0,0.0,0.0,2.9745,2.9568,2.9509,2.9509,2.9331,2.8975,2.8975,2.9035,2.9153,2.9153,2.939,2.9922,2.9922,3.0431,3.1459,3.2623,3.3473,3.419,3.5411,3.6091,3.6309,3.658,3.6712,3.6712,3.6495,3.6549,3.6688,0.0,0.0,0.0,0.0,0.0,0.0,1.5999,1.5864,1.5719,1.5671,1.591,1.6109,0.0,0.0,0.0,0.0,0.0,0.0,0.0,1.4867,1.4866,1.4959,1.5299,1.5667,1.5999,1.6779,1.7364,1.7794,1.8099,1.776,1.6807,1.7275,1.7,1.6215,1.8189,1.7775,1.5684,1.6466,1.6005,1.4715,1.4142,1.3818,1.3628,0.0,0.0,0.0,0.0,0.0,0.0,0.0,0.0,0.0,1.1569,1.3166,1.4992,1.4445,1.4797,1.5502,1.6072,0.0,0.0,0.0,0.0,0.0,0.0,0.0,0.0,0.0,0.0,0.0,0.0,0.0,0.0,0.0,0.0,0.0,0.0,0.0,0.0,0.0,0.0,0.0,0.0,0.0,0.0,0.0,0.0,0.0,0.0,2.939,2.9272,2.9272,2.9272,2.9213,2.8975,2.8975,2.8975,2.8993,2.9509,2.9903,3.0255,3.0255,3.0995,3.2379,3.3529,3.467,3.563,3.6309,3.6549,3.6549,3.6549,3.6549,3.6526,3.6386,3.6549,3.6796,0.0,0.0,1.7191,1.7732,0.0,0.0,1.6941,1.6043,1.5459,1.6123,1.6063,1.5765,0.0,0.0,0.0,1.5972,1.5954,1.6064,1.6232,1.5328,1.5013,1.5533,1.5747,1.5994,1.6306,1.6244,1.6044,1.5754,1.7123,1.7139,1.5958,1.7002,1.7442,1.7361,1.8001,1.7863,1.7154,1.6374,1.5707,1.5104,1.4554,1.4113,1.3709,1.3123,0.0,0.0,0.0,0.0,0.0,0.0,0.0,0.0,1.1601,1.4048,1.6322,1.3815,1.6074,1.9081,1.7817,0.0,0.0,0.0,0.0,0.0,0.0,0.0,0.0,0.0,0.0,0.0,0.0,0.0,0.0,0.0,0.0,0.0,0.0,0.0,0.0,0.0,0.0,0.0,0.0,0.0,0.0,0.0,0.0,0.0,0.0,2.8975,2.8975,2.8975,2.8975,2.8975,2.8975,2.8975,2.9035,2.9153,3.0314,3.0937,3.1111,3.0995,3.1805,3.3289,3.4525,3.563,3.6634,3.6386,3.6332,3.6332,3.6332,3.6332,3.6332,3.6332,3.6657,3.7012,0.0,0.0,1.6629,1.7164,0.0,0.0,1.5696,1.5086,1.4615,1.4746,1.4713,1.4816,1.5158,1.5829,0.0,1.6082,1.6386,1.6399,1.5928,1.5597,1.5533,1.5877,1.6169,1.6353,1.6371,1.6265,1.5893,1.5266,1.5879,1.6149,1.6055,1.6657,1.6958,1.7002,1.8626,1.8009,1.5823,1.6696,1.5866,1.3956,1.382,1.3705,1.3587,1.3104,1.2831,0.0,0.0,0.0,0.0,0.0,0.0,0.0,1.1287,1.2181,1.3324,1.4251,1.5972,1.7757,0.0,1.9253,0.0,0.0,0.0,0.0,0.0,0.0,0.0,0.0,0.0,0.0,0.0,0.0,0.0,0.0,0.0,0.0,0.0,0.0,0.0,0.0,0.0,0.0,0.0,0.0,0.0,0.0,0.0,0.0,2.8975,2.8975,2.8975,2.8975,2.8975,2.8975,2.8975,2.8975,2.9509,0.0,3.0645,3.1805,3.3685,3.268,3.2907,3.4246,3.5488,3.6168,3.6386,3.6332,3.6332,3.6332,3.6332,3.6332,3.6332,3.6332,3.6657,3.7066,0.0,0.0,0.0,0.0,0.0,0.0,0.0,0.0,1.4883,1.4823,1.5012,1.526,1.5505,1.6072,0.0,0.0,1.6606,1.6556,1.6243,1.5517,1.5261,1.5587,1.6344,1.6524,1.6082,1.5745,1.543,1.5156,1.5163,1.5358,1.573,1.6885,1.7384,1.7375,1.8539,1.7848,1.5842,1.6213,1.5314,1.3638,1.4121,1.4029,1.357,1.3337,1.2946,1.2422,1.1791,0.0,0.0,0.0,0.0,0.0,0.0,0.0,1.3982,1.3679,1.5436,1.7672,0.0,0.0,0.0,0.0,0.0,0.0,0.0,0.0,0.0,0.0,0.0,0.0,0.0,0.0,0.0,0.0,0.0,0.0,0.0,0.0,0.0,0.0,0.0,0.0,0.0,0.0,0.0,0.0,0.0,2.8975,2.8975,2.8975,2.8975,2.8975,2.8975,2.8975,2.8975,2.8975,2.9627,3.082,3.1381,3.2985,3.5323,3.467,3.4725,3.5378,3.6036,3.6332,3.6332,3.6332,3.6332,3.6332,3.6332,3.6332,3.6332,3.6332,3.6796,3.7495,0.0,0.0,0.0,0.0,0.0,0.0,0.0,0.0,0.0,1.5504,1.5864,1.6064,1.59,1.6456,1.6752,0.0,0.0,0.0,1.6524,1.5488,1.4972,1.5197,1.6237,1.6391,1.5527,1.5076,1.4943,1.5177,1.4898,1.5207,1.6006,1.7584,1.8339,1.8329,1.8405,1.7607,1.6128,1.536,1.441,1.3449,1.4257,1.4096,1.3357,1.336,1.2831,1.2031,1.1513,1.1302,1.137,1.1602,0.0,0.0,0.0,0.0,1.4801,1.2489,1.4536,1.744,0.0,0.0,0.0,0.0,0.0,0.0,0.0,0.0,0.0,0.0,0.0,0.0,0.0,0.0,0.0,0.0,0.0,0.0,0.0,0.0,0.0,0.0,0.0,0.0,0.0,0.0,0.0,0.0,0.0,2.8975,2.8975,2.8975,2.8975,2.8975,2.8975,2.9094,2.9331,2.9331,3.002,3.1439,3.268,3.4314,3.6332,3.6332,3.6332,3.6332,3.6332,3.6332,3.6332,3.6332,3.6332,3.6332,3.6386,3.644,3.644,3.644,3.7173,3.8027,0.0,0.0,0.0,0.0,0.0,0.0,0.0,0.0,0.0,0.0,1.6064,1.6064,1.59,1.6456,1.6571,1.5968,1.6242,1.627,1.5872,0.0,0.0,1.5223,1.5732,1.5628,1.476,1.4686,1.4768,1.5034,1.5308,1.6617,1.877,1.9083,1.9554,2.003,1.9306,1.7589,1.5223,1.4427,1.3419,1.2413,1.2533,1.2529,1.2371,1.2339,1.2229,1.2054,1.1864,1.1827,1.1741,1.1327,1.1198,0.0,0.0,0.0,0.0,1.1063,1.2999,1.5038,0.0,0.0,0.0,0.0,0.0,0.0,0.0,0.0,0.0,0.0,0.0,0.0,0.0,0.0,0.0,0.0,0.0,0.0,0.0,0.0,0.0,0.0,0.0,0.0,0.0,0.0,0.0,0.0,2.8975,2.8975,2.8975,2.8975,2.8975,2.8975,2.8975,2.9509,3.0529,3.0529,3.1747,3.4022,3.5245,3.5982,3.6332,3.6332,3.6332,3.6332,3.6332,3.6332,3.6332,3.6332,3.6332,3.6332,3.682,3.6958,3.6958,3.6958,3.7708,3.8631,0.0,0.0,0.0,0.0,0.0,0.0,0.0,0.0,0.0,0.0,0.0,1.6862,1.6764,1.6684,1.6505,1.6228,1.6014,1.5649,1.5082,1.5477,1.5459,1.478,1.5424,1.5462,1.4773,1.4656,1.4641,1.472,1.4566,1.6451,2.0198,2.0198,2.0676,2.1504,2.1303,1.9541,1.6632,1.5857,1.44,1.2645,1.2607,1.3116,1.3828,1.2893,1.3061,0.0,0.0,0.0,0.0,0.0,1.1667,1.1667,1.1667,0.0,0.0,0.0,0.0,0.0,0.0,0.0,0.0,0.0,0.0,0.0,0.0,0.0,0.0,0.0,0.0,0.0,0.0,0.0,0.0,0.0,0.0,0.0,0.0,0.0,0.0,0.0,0.0,0.0,0.0,0.0,0.0,0.0,2.8975,2.8975,2.8975,2.8975,2.8975,2.8975,2.8975,2.9568,3.0762,3.082,3.2015,3.4525,3.5708,3.6495,3.6742,3.6742,3.6603,3.6332,3.6332,3.6332,3.6332,3.6332,3.6332,3.6332,3.6874,3.7089,3.7143,3.7495,3.808,3.8788,0.0,0.0,0.0,0.0,0.0,0.0,0.0,0.0,0.0,0.0,0.0,0.0,1.718,0.0,0.0,0.0,1.5545,1.4956,1.4278,1.5071,1.5137,1.4172,1.5138,1.5316,1.4444,1.4403,1.4337,1.4254,1.3972,1.6173,2.0665,2.0872,2.1778,2.3213,2.3138,2.1454,1.871,1.8063,1.6294,1.4009,1.447,1.4971,1.5405,0.0,0.0,1.582,1.4018,0.0,0.0,0.0,0.0,0.0,0.0,0.0,0.0,0.0,0.0,0.0,0.0,0.0,0.0,0.0,0.0,0.0,0.0,0.0,0.0,0.0,0.0,0.0,0.0,0.0,0.0,0.0,0.0,0.0,0.0,0.0,0.0,0.0,0.0,0.0,0.0,0.0,0.0,0.0,2.8975,2.8975,2.8975,2.8975,2.8975,2.8975,2.9272,3.002,3.1265,3.19,3.3155,3.4991,3.5982,3.6688,3.7143,3.7251,3.712,3.6688,3.6603,3.6495,3.6495,3.6386,3.6332,3.6386,3.7089,3.7334,3.7388,3.7974,3.8579,3.8998,0.0,0.0,0.0,0.0,0.0,0.0,0.0,0.0,0.0,0.0,0.0,0.0,1.6619,1.652,1.6007,1.4786,1.4618,1.4252,1.3616,1.5075,1.5235,1.3522,1.4916,0.0,1.3236,1.3563,1.3716,1.3642,1.4128,1.6315,2.0062,2.1029,2.2905,2.5478,2.415,2.262,2.0999,2.0642,0.0,0.0,0.0,0.0,0.0,0.0,0.0,0.0,0.0,0.0,0.0,0.0,0.0,0.0,0.0,0.0,0.0,0.0,0.0,0.0,0.0,0.0,0.0,0.0,0.0,0.0,0.0,0.0,0.0,0.0,0.0,0.0,0.0,0.0,0.0,0.0,0.0,0.0,0.0,0.0,0.0,0.0,0.0,0.0,0.0,0.0,0.0,0.0,2.8975,2.8975,2.8975,2.8975,2.8975,2.8975,3.0138,3.1265,3.2509,3.4836,3.6091,3.6223,3.6796,3.7066,3.712,3.7708,3.7921,3.7868,3.7281,3.7089,3.7036,3.6495,3.6332,3.644,3.7495,3.7921,3.8027,3.8579,3.9154,3.9594,0.0,0.0,0.0,0.0,0.0,0.0,0.0,0.0,0.0,0.0,0.0,0.0,0.0,1.6632,1.6225,1.5665,1.4872,1.4113,1.3548,1.4034,1.421,1.3938,1.4644,1.4662,1.3767,1.4351,1.4244,1.3357,1.3925,1.561,1.8344,1.9179,2.1117,2.3981,2.536,2.4459,2.1869,2.2626,0.0,0.0,0.0,0.0,0.0,0.0,0.0,0.0,0.0,0.0,0.0,0.0,0.0,0.0,0.0,0.0,0.0,0.0,0.0,0.0,0.0,0.0,0.0,0.0,0.0,0.0,0.0,0.0,0.0,0.0,0.0,0.0,0.0,0.0,0.0,0.0,0.0,0.0,0.0,0.0,0.0,0.0,0.0,0.0,0.0,0.0,0.0,0.0,0.0,2.8832,2.9016,2.8849,2.9199,3.0119,3.0587,3.1785,3.3776,3.5466,3.6332,3.6332,3.685,3.7281,3.7708,3.8262,3.8736,3.905,3.8473,3.7998,3.7655,3.7441,3.7388,3.7441,3.821,3.8526,3.8579,3.9154,3.9517,3.9645,0.0,0.0,0.0,1.7876,0.0,1.7701,1.7453,1.7412,1.737,1.7329,0.0,0.0,0.0,0.0,1.6664,1.6169,1.5485,1.4789,1.4042,1.4276,1.4423,1.4423,1.4923,1.4933,1.4374,1.4765,1.446,1.3403,1.3769,1.4962,1.6846,1.7683,1.9462,2.205,2.3998,2.4399,0.0,0.0,0.0,2.0093,0.0,0.0,2.2625,0.0,0.0,0.0,0.0,0.0,0.0,0.0,0.0,0.0,0.0,0.0,0.0,0.0,0.0,0.0,0.0,0.0,0.0,0.0,0.0,0.0,0.0,0.0,0.0,0.0,0.0,0.0,0.0,0.0,0.0,0.0,0.0,0.0,0.0,0.0,0.0,0.0,0.0,0.0,0.0,0.0,0.0,0.0,0.0,0.0,3.0198,3.0044,3.0576,3.1994,3.2015,3.3042,3.5102,3.5872,3.6332,3.6332,3.685,3.7388,3.8027,3.8579,3.9102,3.9697,3.9258,3.8788,3.8238,3.808,3.7974,3.8027,3.8579,3.8788,3.8893,3.949,3.9645,3.9542,1.8675,1.8639,1.844,1.8409,1.8414,1.8142,1.735,1.7334,1.7355,1.7251,0.0,0.0,0.0,0.0,0.0,1.6135,1.646,1.6241,1.5075,1.591,1.5994,1.4959,1.5736,1.5789,1.4934,1.4656,1.4288,1.381,1.3748,1.438,1.5669,1.6677,1.8157,2.0007,2.0045,2.2321,2.6288,0.0,2.7235,2.5612,0.0,2.7517,2.6576,0.0,0.0,0.0,2.9307,2.7968,0.0,2.5566,0.0,0.0,0.0,0.0,0.0,0.0,0.0,0.0,0.0,0.0,0.0,0.0,0.0,0.0,0.0,0.0,0.0,0.0,0.0,0.0,0.0,0.0,0.0,0.0,0.0,0.0,0.0,0.0,0.0,0.0,0.0,0.0,0.0,0.0,0.0,0.0,3.1917,3.2582,3.2623,3.2623,3.3191,3.4469,3.4525,3.5102,3.6277,3.6332,3.6332,3.6332,3.6874,3.7441,3.8027,3.8579,3.9154,3.9697,3.9697,3.9387,3.8788,3.8238,3.8027,3.808,3.8631,3.8841,3.8893,3.949,3.9542,3.931,1.9638,1.9595,1.9393,1.8854,1.8753,1.8659,1.8319,1.7978,1.7852,0.0,0.0,0.0,1.8067,1.8512,1.8338,1.7171,1.7159,1.6561,1.5023,1.5205,1.5387,1.5467,1.5624,1.5587,1.5351,1.5204,1.472,1.3859,1.4135,1.4514,1.4984,1.5512,1.6408,1.761,1.8584,1.9966,2.1729,2.47,0.0,2.2287,2.7457,2.7913,0.0,0.0,0.0,0.0,0.0,3.0264,2.8972,0.0,2.4988,2.0803,0.0,0.0,0.0,0.0,0.0,0.0,1.1734,0.0,0.0,0.0,0.0,0.0,0.0,1.9106,0.0,0.0,0.0,0.0,0.0,0.0,0.0,0.0,0.0,0.0,0.0,0.0,0.0,0.0,0.0,0.0,0.0,0.0,0.0,0.0,3.2246,3.2385,3.2582,3.3473,3.4134,3.4469,3.5378,3.5927,3.6332,3.6688,3.6688,3.6332,3.7655,3.8185,3.8027,3.8998,3.9542,3.9697,3.9697,3.9594,3.9438,3.9258,3.9206,3.9258,3.9387,3.9413,3.949,3.9645,3.9542,3.9258,2.0019,1.9906,1.9736,1.9632,1.9558,1.9462,1.9344,1.9059,1.8982,0.0,0.0,0.0,1.9712,2.0394,2.0191,1.8601,1.8226,1.7451,1.604,1.5713,1.5693,1.6019,1.5919,1.6022,1.6289,1.5694,1.5213,1.4854,1.4646,1.4455,1.4291,1.4533,1.4963,1.5493,1.6055,1.6865,0.0,0.0,0.0,0.0,2.7119,0.0,0.0,3.0697,3.1716,0.0,0.0,0.0,3.2307,3.2087,2.8491,0.0,0.0,0.0,0.0,0.0,0.0,0.0,0.0,0.0,0.0,0.0,0.0,0.0,1.5607,1.895,2.2385,0.0,0.0,0.0,0.0,0.0,0.0,0.0,0.0,0.0,0.0,0.0,0.0,0.0,0.0,0.0,0.0,3.3077,3.336,3.336,3.3703,3.3967,3.4125,3.4858,3.5268,3.5268,3.5927,3.6332,3.6332,3.6796,3.6928,3.6657,3.7868,3.8421,3.8368,3.8998,3.949,3.9697,3.9697,3.9697,3.9697,3.9697,3.9697,3.9697,3.9697,3.9697,3.9697,3.9569,3.9362,3.905,0.0,1.9845,1.9756,2.0524,2.0552,2.045,2.045,2.0399,2.0399,0.0,2.0877,2.135,2.1898,2.2723,2.2393,2.0439,1.961,1.8756,1.775,1.6999,1.6647,1.6676,1.656,1.676,1.7353,1.6132,1.5684,1.6102,1.504,1.4277,1.384,1.3884,1.3896,1.3871,1.3382,1.3865,1.5229,0.0,0.0,2.5933,2.6584,2.8688,0.0,0.0,3.2913,3.3196,3.566,3.6041,3.5429,3.5987,3.2297,0.0,0.0,0.0,0.0,0.0,1.7991,0.0,0.0,0.0,0.0,0.0,0.0,0.0,1.6397,2.0175,2.3531,0.0,0.0,0.0,0.0,0.0,0.0,0.0,0.0,0.0,0.0,0.0,0.0,0.0,0.0,0.0,3.3022,3.3948,3.4626,3.4626,3.5685,3.6332,3.6386,3.6386,3.644,3.6495,3.6495,3.6495,3.6495,3.7036,3.7251,3.7197,3.7868,3.8421,3.8788,3.8841,3.9206,3.9697,3.9697,3.9697,3.9697,3.9697,3.9697,3.9645,3.9645,3.9645,3.9645,3.9362,3.905,3.8736,2.0888,2.045,2.0246,2.0887,2.0964,2.1218,2.1947,2.1337,2.1181,2.238,2.303,2.3759,2.4682,2.423,2.3653,2.3226,2.1471,2.0088,1.9384,1.8003,1.7426,1.7852,1.7335,1.7047,1.708,1.6394,1.588,1.5561,1.4532,1.4237,1.465,1.4132,1.3896,1.3896,1.3607,1.3899,1.4663,0.0,0.0,2.3408,2.5613,0.0,3.0277,3.2822,3.3519,3.3534,3.6579,3.7094,3.6109,0.0,3.3152,3.0353,0.0,0.0,0.0,0.0,0.0,0.0,0.0,0.0,0.0,0.0,0.0,0.0,1.4294,1.5518,1.7594,0.0,0.0,0.0,0.0,0.0,0.0,0.0,0.0,0.0,0.0,0.0,0.0,0.0,0.0,0.0,3.5037,3.5192,3.5282,3.5282,3.5916,3.6495,3.6904,3.6928,3.7173,3.7655,3.7655,3.7655,3.7655,3.8185,3.8262,3.7814,3.8893,3.9154,3.8841,3.931,3.9594,3.9697,3.9697,3.9697,3.9697,3.9697,3.9594,3.9362,3.9362,3.9362,3.931,3.8998,3.8841,3.8736,2.0655,2.0296,2.0295,2.1239,2.1364,2.184,2.3422,2.2963,2.3085,2.4958,2.5937,2.6339,2.6097,2.5787,0.0,0.0,0.0,0.0,0.0,1.853,1.7802,1.7802,1.7205,1.7087,1.7591,1.6752,1.6433,1.6705,1.5658,1.5152,1.5192,1.4937,0.0,0.0,1.4814,0.0,0.0,0.0,1.9,2.2502,2.5201,0.0,3.0264,3.3232,3.4216,3.431,3.7022,3.7691,3.7096,3.6048,3.4649,0.0,0.0,2.8225,2.5384,0.0,2.2007,2.1475,0.0,0.0,0.0,1.841,0.0,0.0,0.0,1.6928,1.8532,0.0,0.0,0.0,0.0,0.0,0.0,0.0,0.0,0.0,0.0,0.0,0.0,0.0,0.0,0.0,3.5951,3.5907,3.5905,3.5922,3.6443,3.6861,3.7066,3.7411,3.7708,3.7974,3.7974,3.7974,3.7974,3.8526,3.8684,3.8421,3.9258,3.9542,3.9258,3.9542,3.9697,3.9697,3.9697,3.9645,3.949,3.949,3.9258,3.8893,3.9154,3.9206,3.8998,3.8736,3.8579,3.8579,2.0246,2.0041,2.0138,2.1306,2.1577,2.2297,2.4173,2.4205,2.4782,2.6992,2.8348,0.0,0.0,0.0,0.0,0.0,0.0,0.0,0.0,0.0,1.866,1.8251,1.7426,1.7426,1.8329,1.726,1.704,1.7689,1.6694,1.5998,1.5554,1.5698,0.0,0.0,0.0,0.0,0.0,0.0,0.0,2.3641,0.0,2.8294,3.0079,3.352,3.4734,3.4867,3.7392,3.8341,3.8141,3.7094,0.0,3.4799,3.479,3.2251,0.0,0.0,0.0,0.0,0.0,0.0,0.0,0.0,0.0,1.8898,0.0,0.0,0.0,0.0,0.0,0.0,0.0,0.0,0.0,0.0,0.0,0.0,0.0,0.0,0.0,0.0,0.0,0.0,0.0,3.5059,3.5649,3.6237,3.6777,3.712,3.7275,3.7724,3.8089,3.8291,3.8315,3.8315,3.8315,3.8736,3.8945,3.8998,3.949,3.9697,3.9697,3.9697,3.9697,3.9697,3.9697,3.9594,3.9362,3.931,3.8998,3.8526,3.8945,3.8945,3.8684,3.8421,3.8368,3.8368,2.0543,2.0189,2.0012,2.0693,2.1597,2.2443,2.317,2.3703,2.4782,0.0,0.0,0.0,0.0,0.0,0.0,0.0,0.0,0.0,2.648,0.0,0.0,2.123,1.9611,1.8807,1.9006,1.8209,1.7416,1.6592,1.5906,1.5624,1.5673,1.582,0.0,0.0,1.7272,0.0,0.0,0.0,2.5128,0.0,3.0651,2.9917,0.0,3.3439,3.4797,3.439,3.8139,3.9496,3.9195,0.0,3.6073,3.5453,0.0,3.1116,2.9638,0.0,0.0,0.0,0.0,0.0,0.0,0.0,2.2004,0.0,0.0,0.0,0.0,0.0,0.0,0.0,0.0,0.0,0.0,0.0,0.0,0.0,0.0,0.0,0.0,0.0,0.0,0.0,0.0,3.0714,3.3434,3.6087,3.6357,3.6853,3.7822,3.7974,3.8452,3.9465,3.9542,3.9542,3.9542,3.9594,3.9594,3.9594,3.9645,3.9697,3.9697,3.9697,3.9697,3.9697,3.9697,3.9697,3.9645,3.9413,3.9102,3.8736,3.8579,3.8473,3.8421,3.8133,3.8185,3.8368,2.0214,1.9962,1.9987,2.0591,2.1069,2.197,2.3797,2.6766,0.0,0.0,0.0,0.0,0.0,0.0,0.0,0.0,0.0,2.7295,0.0,0.0,0.0,0.0,0.0,0.0,1.951,1.8582,1.7733,1.6979,1.645,1.6195,1.617,0.0,0.0,0.0,1.9406,0.0,2.3078,0.0,2.6016,0.0,0.0,0.0,0.0,3.4769,3.706,3.7344,3.8241,3.9043,3.9346,0.0,3.6994,0.0,0.0,0.0,0.0,0.0,0.0,0.0,0.0,0.0,0.0,0.0,0.0,0.0,2.1819,0.0,1.8343,0.0,0.0,0.0,0.0,0.0,0.0,0.0,0.0,0.0,0.0,0.0,0.0,0.0,0.0,0.0,0.0,0.0,0.0,0.0,3.3482,3.3836,3.4821,3.7221,3.8766,3.922,3.9521,3.9697,3.9697,3.9697,3.9697,3.9697,3.9697,3.9697,3.9697,3.9697,3.9697,3.9697,3.9697,3.949,3.9154,3.905,3.8736,3.8315,3.8185,3.8185,3.8133,3.8027,3.808,3.8133,2.0087,0.0,0.0,0.0,0.0,2.2074,2.4833,0.0,0.0,0.0,0.0,0.0,3.296,3.2458,0.0,0.0,3.021,2.9262,0.0,0.0,2.5154,0.0,0.0,0.0,0.0,0.0,1.8453,1.7398,1.7106,1.6903,1.6748,0.0,0.0,0.0,0.0,2.2884,2.5157,0.0,0.0,2.924,3.099,3.1996,3.2789,3.6037,3.828,3.9597,3.8566,3.8842,3.9294,3.6869,3.7342,0.0,3.6363,0.0,0.0,0.0,0.0,0.0,2.9766,0.0,0.0,0.0,0.0,0.0,0.0,0.0,0.0,0.0,0.0,0.0,0.0,0.0,0.0,0.0,0.0,0.0,0.0,0.0,0.0,0.0,0.0,0.0,0.0,0.0,0.0,0.0,0.0,3.1538,3.2645,3.6474,3.8718,3.8919,3.9396,3.9697,3.9697,3.9697,3.9697,3.9697,3.9697,3.9697,3.9697,3.9697,3.9697,3.9697,3.9645,3.931,3.8945,3.8736,3.8473,3.808,3.8027,3.7974,3.7974,3.7974,3.7974,3.7974,2.0566,2.0188,0.0,0.0,0.0,0.0,0.0,0.0,0.0,0.0,0.0,0.0,0.0,0.0,0.0,0.0,0.0,3.432,3.2056,0.0,2.8193,0.0,0.0,2.386,0.0,0.0,0.0,0.0,0.0,0.0,0.0,0.0,0.0,0.0,0.0,2.4054,2.6225,3.0465,3.3197,3.4814,3.683,3.831,3.9094,0.0,3.7288,3.9697,3.9647,0.0,0.0,3.6894,3.6497,0.0,0.0,0.0,0.0,0.0,0.0,0.0,0.0,0.0,0.0,2.8039,0.0,0.0,0.0,0.0,2.1465,0.0,0.0,0.0,0.0,0.0,0.0,0.0,0.0,0.0,0.0,0.0,0.0,0.0,0.0,0.0,0.0,0.0,0.0,0.0,0.0,0.0,3.2803,3.6163,3.8291,3.8894,3.9396,3.9697,3.9697,3.9697,3.9697,3.9697,3.9697,3.9697,3.9697,3.9697,3.9697,3.9697,3.9438,3.931,3.9258,3.8684,3.8421,3.8368,3.808,3.7974,3.7974,3.7974,3.7974,3.7974,2.1881,0.0,0.0,0.0,0.0,0.0,0.0,2.9717,0.0,0.0,0.0,0.0,0.0,3.4479,3.4714,0.0,0.0,3.3159,3.3697,3.1246,0.0,0.0,0.0,2.6683,0.0,0.0,0.0,0.0,0.0,0.0,0.0,0.0,0.0,0.0,0.0,2.469,0.0,0.0,0.0,0.0,0.0,3.7849,3.8542,0.0,0.0,3.9697,3.9697,3.9697,0.0,3.7866,3.7991,3.8592,3.7665,3.6839,3.6563,3.8266,3.6538,0.0,0.0,0.0,3.5219,3.3589,0.0,0.0,0.0,0.0,0.0,0.0,0.0,0.0,0.0,0.0,0.0,0.0,0.0,0.0,0.0,0.0,0.0,0.0,0.0,0.0,0.0,0.0,0.0,0.0,0.0,0.0,0.0,3.2127,3.5344,3.5991,3.8041,3.932,3.9697,3.9697,3.9697,3.9697,3.9697,3.9697,3.9697,3.9697,3.9594,3.9413,3.931,3.905,3.8684,3.8473,3.8315,3.8157,3.8027,3.7974,3.7974,3.7974,3.7974,3.7974,2.258,0.0,0.0,0.0,0.0,0.0,0.0,0.0,0.0,0.0,3.5044,0.0,3.4659,0.0,3.4326,0.0,3.4415,3.4068,3.3931,3.3435,0.0,3.1689,3.0765,0.0,0.0,0.0,0.0,0.0,0.0,2.0652,0.0,0.0,0.0,0.0,0.0,0.0,2.7478,0.0,3.3877,0.0,0.0,3.778,0.0,0.0,3.9624,3.9697,0.0,3.9697,3.9597,3.8843,3.9094,3.9572,3.8843,3.8366,3.8291,3.9371,3.7914,3.6257,3.7688,3.7814,0.0,3.6081,3.3602,0.0,2.954,0.0,0.0,0.0,0.0,0.0,0.0,0.0,0.0,0.0,0.0,0.0,0.0,1.4053,0.0,0.0,0.0,0.0,0.0,0.0,0.0,0.0,0.0,0.0,0.0,0.0,3.3682,3.4499,3.7389,3.9145,3.9697,3.9697,3.9697,3.9697,3.9697,3.9697,3.9697,3.9594,3.9465,3.9258,3.905,3.8788,3.8421,3.8315,3.8133,3.7974,3.7974,3.7974,3.7974,3.7974,3.7974,3.7974,2.2803,2.3039,0.0,0.0,2.5327,0.0,0.0,0.0,3.3754,0.0,3.4751,3.581,3.5464,3.6012,3.6196,3.5553,3.7393,3.6981,3.3236,3.5979,0.0,0.0,3.2799,3.1856,2.9685,0.0,0.0,0.0,0.0,0.0,0.0,0.0,0.0,0.0,2.2711,0.0,2.6205,3.1946,3.4525,3.489,3.6795,3.843,3.9648,3.9297,3.9398,3.9697,3.9697,3.9697,3.9697,3.9697,3.9697,3.9697,3.9697,3.9697,3.9697,3.9697,3.9697,3.9697,3.9697,3.9697,3.8944,3.5755,3.4851,0.0,0.0,0.0,3.1913,0.0,0.0,0.0,0.0,0.0,0.0,0.0,0.0,0.0,0.0,0.0,0.0,0.0,0.0,0.0,0.0,0.0,0.0,0.0,0.0,0.0,0.0,0.0,3.3102,3.4424,3.7213,3.8969,3.9647,3.9622,3.9647,3.9697,3.9697,3.9697,3.9697,3.9413,3.9258,3.9206,3.8631,3.8421,3.8368,3.808,3.7974,3.7974,3.7974,3.7974,3.7974,3.7974,3.7974,3.7974,2.4496,2.5644,2.7097,0.0,2.8704,2.9714,0.0,0.0,0.0,0.0,3.5702,3.5568,3.6441,3.5276,3.54,3.7919,3.7289,0.0,0.0,0.0,0.0,3.2804,3.273,3.2297,3.137,3.0368,0.0,2.7941,0.0,0.0,2.3326,0.0,0.0,0.0,0.0,0.0,2.6759,3.1253,3.5041,3.799,3.8091,3.8642,0.0,0.0,3.9271,3.9697,3.9697,3.9697,3.9697,3.9697,3.9697,3.9697,3.9697,3.9697,3.9697,3.9697,3.9697,3.9697,3.9697,3.9697,3.9496,3.8642,3.6558,3.45,0.0,0.0,0.0,0.0,0.0,0.0,0.0,0.0,0.0,0.0,0.0,0.0,0.0,0.0,0.0,1.5293,0.0,0.0,0.0,0.0,0.0,0.0,0.0,0.0,0.0,0.0,0.0,3.3682,3.471,3.6433,3.9069,3.8642,3.8868,3.9697,3.9697,3.9594,3.9413,3.931,3.905,3.8631,3.8473,3.8291,3.808,3.8027,3.7974,3.7974,3.7974,3.7974,3.7974,3.7974,3.7974,3.7974,2.6211,2.8357,0.0,3.1846,0.0,0.0,3.2549,3.4055,0.0,3.5467,3.5455,0.0,3.5322,3.4218,3.4334,3.6333,3.7199,0.0,3.6304,0.0,0.0,3.2942,3.3377,3.3407,3.2887,3.1967,0.0,3.1056,0.0,0.0,2.5047,0.0,0.0,0.0,0.0,2.4003,0.0,3.133,3.5404,3.8486,3.8664,0.0,0.0,3.9146,3.9322,3.9697,3.9697,3.9697,3.9697,3.9697,3.9697,3.9697,3.9697,3.9697,3.9697,3.9697,3.9697,3.9697,3.9697,3.9697,3.9697,3.9697,3.8291,3.691,3.691,3.6157,3.5303,0.0,0.0,0.0,0.0,0.0,0.0,0.0,0.0,0.0,0.0,0.0,0.0,0.0,0.0,0.0,0.0,0.0,0.0,0.0,0.0,0.0,0.0,0.0,0.0,3.1016,3.3633,3.5755,3.7412,3.7337,3.7864,3.8969,3.8969,3.9067,3.931,3.9154,3.8841,3.8396,3.8315,3.8157,3.7974,3.7974,3.7974,3.7974,3.7974,3.7974,3.7974,3.7974,3.7974,3.7974,2.8298,0.0,0.0,0.0,0.0,0.0,0.0,3.4607,0.0,3.3596,0.0,3.5346,3.3839,3.3636,3.3675,3.3738,0.0,3.7758,3.394,3.8371,3.8729,3.3241,3.4143,3.448,3.39,3.3345,0.0,0.0,0.0,0.0,0.0,0.0,0.0,0.0,0.0,0.0,0.0,3.2012,3.5703,3.7804,3.8816,3.9399,3.9598,3.9373,3.9474,3.9697,3.9697,3.9697,3.9697,3.9697,3.9697,3.9697,3.9697,3.9697,3.9697,3.9697,3.9697,3.9697,3.9697,3.9697,3.9697,3.9697,3.9697,3.9697,3.9697,3.9697,3.9697,3.9697,3.932,3.8743,0.0,0.0,0.0,0.0,0.0,0.0,0.0,0.0,0.0,0.0,0.0,0.0,0.0,0.0,0.0,0.0,0.0,0.0,0.0,0.0,0.0,2.8238,3.3169,3.5751,3.5608,0.0,3.701,3.8216,3.8065,3.8442,3.9206,3.8893,3.8579,3.8315,3.808,3.7974,3.7974,3.7974,3.7974,3.7974,3.7974,3.7974,3.7974,3.7974,3.7974,3.7974,0.0,0.0,0.0,0.0,0.0,3.7331,3.4199,3.3769,3.4349,3.5685,3.5227,3.524,3.6501,3.5244,3.5058,3.6921,3.7588,0.0,0.0,0.0,0.0,3.3633,3.3452,3.337,3.3287,3.307,3.2979,0.0,0.0,0.0,0.0,0.0,0.0,0.0,0.0,0.0,3.0816,3.3106,0.0,3.8917,3.912,3.9272,3.9297,3.9498,3.9648,3.9697,3.9697,3.9697,3.9697,3.9697,3.9697,3.9697,3.9697,3.9697,3.9697,3.9697,3.9697,3.9697,3.9697,3.9697,3.9697,3.9697,3.9697,3.9697,3.9697,3.9697,3.9697,3.9697,3.9622,3.9496,3.9346,0.0,0.0,0.0,0.0,0.0,0.0,0.0,0.0,0.0,0.0,0.0,0.0,0.0,0.0,0.0,0.0,0.0,0.0,0.0,0.0,0.0,3.1741,0.0,0.0,0.0,3.7558,3.9396,3.8392,3.824,3.8893,3.8579,3.8315,3.808,3.8027,3.7974,3.7974,3.7974,3.7974,3.7974,3.7974,3.7974,3.7974,3.7974,3.7974,3.7974,0.0,0.0,0.0,0.0,0.0,0.0,0.0,3.488,3.4141,3.5002,3.4737,3.4778,3.5745,3.5004,3.4921,3.6011,3.7001,3.7105,3.5951,3.6817,3.6356,3.4043,3.3639,0.0,3.4031,3.3346,3.3302,3.3928,0.0,0.0,0.0,0.0,0.0,0.0,0.0,2.7668,0.0,0.0,0.0,3.8791,3.9575,4.0028,4.0331,4.045,4.0551,4.0551,4.0551,4.0551,4.045,3.9898,3.9697,3.9697,3.9697,3.9697,3.9697,3.9697,3.9697,3.9697,3.9697,3.9697,3.9697,3.9697,3.9697,3.9697,3.9697,3.9697,3.9697,3.9697,3.9697,3.9321,3.7912,3.5608,0.0,0.0,0.0,0.0,0.0,0.0,0.0,0.0,0.0,0.0,0.0,0.0,0.0,0.0,0.0,0.0,0.0,0.0,0.0,0.0,0.0,0.0,0.0,0.0,0.0,3.8818,3.8091,3.8088,3.8788,3.8526,3.8238,3.7974,3.7974,3.7974,3.7974,3.7974,3.7974,3.7974,3.7974,3.7974,3.7974,3.7974,3.7974,3.7974,0.0,3.8512,0.0,0.0,3.8935,0.0,3.7487,3.62,3.4944,3.4184,3.4425,3.4667,3.4705,3.4768,3.4956,3.5292,3.654,3.6873,3.5851,3.6662,3.6431,3.49,3.4268,3.4165,3.4662,3.3754,3.3713,0.0,0.0,0.0,0.0,0.0,0.0,0.0,0.0,0.0,0.0,0.0,3.7731,3.9045,4.0201,4.0899,4.1275,4.1275,4.1275,4.1275,4.1275,4.1275,4.115,4.0325,3.9973,3.9848,3.9722,3.9697,3.9697,3.9697,3.9697,3.9697,3.9697,3.9697,3.9697,3.9697,3.9697,3.9697,3.9697,3.9697,3.9697,3.9697,3.9697,3.907,3.7003,3.629,0.0,0.0,0.0,0.0,0.0,0.0,0.0,0.0,0.0,0.0,0.0,0.0,0.0,0.0,0.0,1.6191,1.7705,2.0399,2.3565,0.0,0.0,3.2819,3.4801,0.0,3.7006,3.8366,3.7792,3.7961,3.8788,3.8473,3.8185,3.7974,3.7974,3.7974,3.7974,3.7974,3.7974,3.7974,3.7974,3.7974,3.7974,3.7974,3.7974,3.7974,0.0,0.0,0.0,0.0,0.0,0.0,3.4972,3.6687,3.7568,3.526,3.526,3.5506,3.5654,3.5953,3.6767,3.8263,3.6831,3.715,4.0204,3.7183,3.5727,3.6517,3.5129,3.426,3.3973,3.3818,3.3821,0.0,0.0,0.0,0.0,0.0,0.0,0.0,0.0,0.0,0.0,3.7779,3.9247,4.1053,4.115,4.125,4.1275,4.1275,4.1275,4.1275,4.1275,4.1275,4.1275,4.1175,4.0852,4.035,3.9848,3.9697,3.9697,3.9697,3.9697,3.9697,3.9697,3.9697,3.9697,3.9697,3.9697,3.9697,3.9697,3.9697,3.9697,3.9697,3.9697,3.9622,3.9346,3.7785,3.572,0.0,0.0,0.0,0.0,0.0,0.0,0.0,0.0,0.0,0.0,1.8783,0.0,0.0,1.5115,1.5984,2.0476,1.9773,2.1638,2.6799,0.0,3.1023,3.2659,3.4978,3.727,3.9521,3.7939,3.7733,3.8788,3.8262,3.8027,3.7974,3.7974,3.7974,3.7974,3.7974,3.7974,3.7974,3.7974,3.7974,3.7974,3.7974,3.7974,3.7974,0.0,0.0,0.0,0.0,0.0,0.0,0.0,3.7487,3.7232,3.6326,3.6231,3.6342,3.6398,3.6547,3.6784,3.7254,3.6506,3.6552,3.7758,3.6346,3.5524,3.5748,3.4995,3.4326,3.3922,3.3868,3.3975,0.0,0.0,0.0,0.0,0.0,0.0,0.0,0.0,3.6402,3.8229,3.955,4.0779,4.1831,4.1831,4.2032,4.2333,4.2333,4.2333,4.2333,4.2333,4.2333,4.2283,4.1932,4.1455,4.0902,4.035,4.0199,4.0124,3.9798,3.9697,3.9697,3.9697,3.9697,3.9697,3.9697,3.9697,3.9697,3.9697,3.9697,3.9697,3.9697,3.9697,3.9697,3.9697,3.902,3.7907,0.0,0.0,0.0,0.0,0.0,0.0,0.0,0.0,0.0,0.0,0.0,0.0,0.0,0.0,1.5134,1.8174,1.9926,2.3157,2.8298,0.0,3.3376,3.6754,3.6868,3.7734,3.9465,3.8398,3.8087,3.8579,3.8185,3.7974,3.7974,3.7974,3.7974,3.7974,3.7974,3.7974,3.7974,3.7974,3.7974,3.7974,3.7974,3.7974,3.7974,3.6374,0.0,3.7703,0.0,3.7582,3.7105,3.9108,3.7866,3.7003,3.7954,3.7598,3.7133,3.6938,3.7003,3.7112,3.7415,3.6852,3.679,3.7422,3.6497,3.586,3.5842,3.5268,0.0,3.412,3.4183,3.4312,3.4423,3.441,0.0,0.0,0.0,0.0,0.0,3.7834,3.9045,3.9982,4.126,4.2032,4.2464,4.2464,4.269,4.2986,4.2986,4.2986,4.2986,4.2986,4.2986,4.2911,4.259,4.2133,4.1706,4.0978,4.0651,4.045,4.0049,3.9823,3.9697,3.9697,3.9697,3.9697,3.9697,3.9697,3.9697,3.9697,3.9697,3.9697,3.9697,3.9697,3.9697,3.9697,3.9697,3.9196,3.7537,0.0,0.0,0.0,0.0,0.0,0.0,3.1911,3.0199,3.1371,0.0,0.0,0.0,0.0,0.0,1.8929,2.0623,2.3897,0.0,0.0,0.0,3.7583,3.72,3.7737,3.9154,3.8579,3.8315,3.8421,3.8133,3.7974,3.7974,3.7974,3.7974,3.7974,3.7974,3.7974,3.7974,3.7974,3.7974,3.7974,3.7974,3.7974,3.7974,3.5731,3.5796,3.5751,3.5426,3.5276,3.6123,3.8846,3.7674,3.7472,4.054,3.9311,3.7883,3.7193,3.7394,3.8221,3.991,3.82,3.8408,4.1545,3.8401,3.6763,0.0,0.0,3.5336,3.4576,3.4896,3.4866,3.4423,0.0,0.0,3.3235,0.0,3.648,3.9371,4.006,4.1335,4.2967,4.2936,4.2961,4.2961,4.2961,4.2961,4.2986,4.2986,4.2986,4.2986,4.2986,4.2986,4.2986,4.2961,4.2961,4.276,4.1681,4.0953,4.0526,4.0501,4.0124,3.9697,3.9697,3.9697,3.9697,3.9697,3.9697,3.9697,3.9697,3.9697,3.9697,3.9697,3.9697,3.9697,3.9697,3.9697,3.8869,3.64,0.0,0.0,0.0,0.0,0.0,0.0,2.8604,2.7345,3.0945,0.0,0.0,0.0,0.0,0.0,0.0,0.0,0.0,2.8426,2.9086,0.0,3.2657,3.4895,3.6958,3.8788,3.8238,3.8133,3.8421,3.8133,3.7974,3.7974,3.7974,3.7974,3.7974,3.7974,3.7974,3.7974,3.7974,3.7974,3.7974,3.7974,3.7974,3.7974,3.9286,3.74,3.595,3.7221,3.6922,3.6803,3.7668,3.7673,3.7914,3.8562,3.8166,3.7636,3.7146,3.7636,3.8083,0.0,3.9038,3.9236,0.0,3.8521,3.7853,3.6501,3.6974,3.7002,3.6478,3.7575,3.7698,3.666,0.0,0.0,0.0,3.9643,4.0567,4.1843,4.2108,4.2451,4.2986,4.2986,4.2986,4.2986,4.2986,4.2986,4.2986,4.2986,4.2986,4.2986,4.2986,4.2986,4.2986,4.2986,4.2986,4.2911,4.2559,4.2082,4.148,4.0727,4.04,4.0174,3.9798,3.9697,3.9697,3.9697,3.9697,3.9697,3.9697,3.9697,3.9697,3.9697,3.9697,3.9697,3.9697,3.9697,3.9171,3.7512,3.8106,0.0,0.0,0.0,0.0,0.0,3.2618,3.1784,0.0,3.0025,0.0,0.0,0.0,0.0,0.0,0.0,0.0,0.0,3.399,0.0,3.7165,3.6595,3.7097,3.8526,3.8185,3.8027,3.8133,3.8027,3.7974,3.7974,3.7974,3.7974,3.7974,3.7974,3.7974,3.7974,3.7974,3.7974,3.7974,3.7974,3.7974,3.7974,3.9589,3.7838,3.6456,3.7829,3.7437,3.7186,3.8202,3.7919,3.7811,3.8604,3.7965,3.7348,3.7146,3.7636,0.0,3.7616,3.8882,3.9014,3.7415,3.8266,3.8055,3.641,3.7167,3.7656,3.7738,3.8798,0.0,3.8701,3.9673,4.0675,4.1743,4.1743,4.2173,4.2986,4.2986,4.2986,4.2986,4.2986,4.2986,4.2986,4.2986,4.2986,4.2986,4.2986,4.2986,4.2986,4.2986,4.2986,4.2986,4.2986,4.2986,4.2986,4.2986,4.2791,4.2338,4.1404,4.0827,4.045,4.0099,3.9848,3.9697,3.9697,3.9697,3.9697,3.9697,3.9697,3.9697,3.9697,3.9697,3.9697,3.9697,3.9697,3.9397,3.849,3.9095,3.932,3.8266,0.0,0.0,0.0,0.0,0.0,0.0,3.3061,3.1877,0.0,0.0,0.0,0.0,0.0,0.0,3.3921,3.5669,0.0,3.8263,3.7345,3.729,3.8238,3.808,3.7974,3.7974,3.7974,3.7974,3.7974,3.7974,3.7974,3.7974,3.7974,3.7974,3.7974,3.7974,3.7974,3.7974,3.7974,3.7974,3.7974,3.7796,3.7482,3.7146,3.7616,3.7059,3.7361,3.9811,3.8176,3.7489,4.0008,3.8465,3.7139,3.7119,3.7368,3.7549,3.7616,0.0,0.0,3.7683,3.775,3.7616,3.7146,3.724,3.7662,3.8551,3.9086,3.9796,4.0686,4.037,4.0539,4.1263,4.1263,4.1891,4.2986,4.2986,4.2986,4.2986,4.2986,4.2986,4.2986,4.2986,4.2986,4.2986,4.2986,4.2986,4.2986,4.2986,4.2986,4.2986,4.2986,4.2986,4.2986,4.2986,4.2986,4.2861,4.2363,4.1404,4.0576,4.0526,4.0124,3.9697,3.9697,3.9697,3.9697,3.9697,3.9697,3.9697,3.9697,3.9697,3.9697,3.9697,3.9697,3.9645,3.9362,3.9517,3.9519,3.9162,0.0,0.0,0.0,0.0,0.0,3.5052,3.5357,3.5896,0.0,0.0,0.0,0.0,0.0,2.9326,3.3905,3.4902,3.578,3.6628,3.7171,3.7655,3.7974,3.7974,3.7974,3.7974,3.7974,3.7974,3.7974,3.7974,3.7974,3.7974,3.7974,3.7974,3.7974,3.7974,3.7974,3.7974,3.7974,3.7974,3.7974,0.0,0.0,3.6809,3.8465,3.7488,3.6674,3.7361,3.7401,3.767,3.8296,3.7642,3.726,3.7513,3.7347,3.7348,3.7549,3.9059,3.9453,3.8171,3.8993,3.8906,3.7549,3.8523,3.9216,3.9406,4.1399,4.2819,4.3634,4.2627,4.2466,4.3191,4.3191,4.308,4.2986,4.2986,4.2986,4.2986,4.2986,4.2986,4.2986,4.2986,4.2986,4.2986,4.2986,4.2986,4.2986,4.2986,4.2986,4.2986,4.2986,4.2986,4.2986,4.2986,4.2986,4.2861,4.2363,4.1681,4.1,4.0626,4.0124,3.9697,3.9697,3.9697,3.9697,3.9697,3.9697,3.9697,3.9697,3.9697,3.9697,3.9697,3.9697,3.9697,3.9645,3.949,3.8942,3.7507,3.6653,0.0,0.0,3.4729,3.529,3.554,3.6849,3.6848,0.0,0.0,0.0,0.0,3.3302,3.3956,3.7494,3.7588,3.7704,3.7941,3.7907,3.7944,3.7974,3.7974,3.7974,3.7974,3.7974,3.7974,3.7974,3.7974,3.7974,3.7974,3.7974,3.7974,3.7974,3.7974,3.7974,3.7974,3.7974,3.7974,3.7974,3.9952,3.8197,3.7052,3.8485,3.7867,3.7065,3.7065,3.7332,3.749,3.749,3.7371,3.7302,3.749,3.7437,3.7448,3.7652,3.8744,3.9167,3.8237,3.8838,3.8816,3.7904,3.8606,3.9261,3.9884,4.1263,4.2634,4.4028,4.4052,4.4076,4.4192,4.4192,4.389,4.3363,4.3363,4.3212,4.2986,4.2986,4.2986,4.2986,4.2986,4.2986,4.2986,4.2986,4.2986,4.2986,4.2986,4.2986,4.2986,4.2986,4.2986,4.2986,4.2986,4.2986,4.2911,4.2665,4.2133,4.158,4.1053,4.0501,3.9998,3.9747,3.9697,3.9697,3.9697,3.9697,3.9697,3.9697,3.9697,3.9697,3.9697,3.9697,3.9645,3.9542,3.9171,3.8485,3.7384,3.6157,0.0,3.5398,3.5529,3.5886,3.6648,3.7612,3.7588,3.6088,3.5568,0.0,3.6161,3.5664,3.6357,3.8558,3.8368,3.821,3.821,3.808,3.7974,3.7974,3.7974,3.7974,3.7974,3.7974,3.7974,3.7974,3.7974,3.7974,3.7974,3.7974,3.7974,3.7974,3.7974,3.7974,3.7974,3.7974,3.7974,3.7974,3.8037,3.8097,3.815,3.8555,3.8337,3.8057,3.7777,3.7555,3.7402,3.7453,3.7402,3.7473,3.7614,3.7758,3.7803,3.7859,3.8145,3.8253,3.8191,3.8125,3.8125,3.8191,3.837,3.8991,4.0214,4.0581,4.1828,4.3844,4.5037,4.5321,4.4744,4.4744,4.4443,4.3915,4.3915,4.3614,4.3112,4.3112,4.3062,4.2986,4.2986,4.2986,4.2986,4.2986,4.2986,4.2986,4.2986,4.2986,4.2986,4.2986,4.2986,4.2986,4.2986,4.2986,4.2986,4.2986,4.2715,4.2213,4.1605,4.1003,4.0375,3.9823,3.9697,3.9697,3.9697,3.9697,3.9697,3.9697,3.9697,3.9697,3.9697,3.9697,3.9545,3.9243,3.8681,3.8084,3.7582,0.0,3.5468,3.7042,3.6198,3.6113,3.781,3.7974,3.808,3.8315,3.7513,3.7392,3.8271,3.7489,3.7416,3.8319,3.8133,3.7974,3.7974,3.7974,3.7974,3.7974,3.7974,3.7974,3.7974,3.7974,3.7974,3.7974,3.7974,3.7974,3.7974,3.7974,3.7974,3.7974,3.7974,3.7974,3.7974,3.7974,3.7974,3.7974,4.2503,4.2105,4.1481,4.0051,3.9798,3.9178,3.7637,3.7598,3.7903,3.828,3.8046,3.8189,3.9111,3.8707,3.8352,3.8603,3.8656,3.8585,3.8212,3.7904,3.7837,3.8191,3.9254,4.0018,4.0192,4.2477,4.4412,4.5874,4.6055,4.5899,4.5347,4.5347,4.5045,4.4493,4.4493,4.4192,4.3664,4.3664,4.3413,4.2986,4.2986,4.2986,4.2986,4.2986,4.2986,4.2986,4.2986,4.2986,4.2986,4.2986,4.2986,4.2986,4.2986,4.2986,4.2986,4.2986,4.2911,4.2791,4.2238,4.1279,4.0375,3.9823,3.9697,3.9697,3.9697,3.9697,3.9697,3.9697,3.9697,3.9697,3.9697,3.9517,3.9169,3.864,3.8034,3.7211,3.5948,0.0,3.6553,3.6196,3.6969,3.7674,3.8003,3.7974,3.8027,3.8027,3.7915,3.7867,3.808,3.7891,3.7867,3.808,3.8027,3.7974,3.7974,3.7974,3.7974,3.7974,3.7974,3.7974,3.7974,3.7974,3.7974,3.7974,3.7974,3.7974,3.7974,3.7974,3.7974,3.7974,3.7974,3.7974,3.7974,3.7974,3.7974,3.7974,4.3463,4.3308,4.2973,4.2379,4.2217,4.1943,4.1135,4.0415,4.0156,4.0318,3.9464,3.9054,3.9627,3.9313,3.9109,3.9253,3.9647,3.9872,3.9659,3.8562,3.7971,3.8191,3.9517,4.0516,4.1267,4.3232,4.4583,4.522,4.5939,4.6175,4.5924,4.5924,4.5623,4.5095,4.5095,4.4769,4.4242,4.4242,4.3915,4.3413,4.3413,4.3237,4.2986,4.2986,4.2986,4.2986,4.2986,4.2986,4.2986,4.2986,4.2986,4.2986,4.2986,4.2986,4.2986,4.2986,4.2816,4.2539,4.2288,4.1354,4.045,4.0199,3.9923,3.9697,3.9697,3.9697,3.9697,3.9697,3.9697,3.9697,3.9697,3.9594,3.937,3.8943,3.8227,0.0,0.0,3.6883,3.6962,3.6568,3.7407,3.7974,3.7974,3.7974,3.7974,3.7974,3.7974,3.7974,3.7974,3.7974,3.7974,3.7974,3.7974,3.7974,3.7974,3.7974,3.7974,3.7974,3.7974,3.7974,3.7974,3.7974,3.7974,3.7974,3.7974,3.7974,3.7974,3.7974,3.7974,3.7974,3.7974,3.7974,3.7974,3.7974,3.7974,3.7974,4.4833,4.4902,4.4884,4.471,4.471,4.4573,4.4185,4.3149,4.2495,4.2543,4.1509,4.0678,4.0484,4.0672,4.0633,4.0269,4.105,4.1375,4.0935,3.9774,3.9123,3.9123,4.0452,4.1779,4.3107,4.4189,4.4767,4.4767,4.5793,4.6301,4.6301,4.6301,4.6075,4.5673,4.5673,4.5372,4.4819,4.4819,4.4493,4.3991,4.3991,4.3664,4.3162,4.3162,4.3087,4.2986,4.2986,4.2986,4.2986,4.2986,4.2986,4.2986,4.2986,4.2986,4.2986,4.2986,4.274,4.2363,4.2238,4.1455,4.0676,4.0551,4.0099,3.9697,3.9697,3.9697,3.9697,3.9697,3.9697,3.9697,3.9697,3.9594,3.9392,3.9043,0.0,0.0,0.0,3.723,3.7139,3.7295,3.7721,3.7974,3.7974,3.7974,3.7974,3.7974,3.7974,3.7974,3.7974,3.7974,3.7974,3.7974,3.7974,3.7974,3.7974,3.7974,3.7974,3.7974,3.7974,3.7974,3.7974,3.7974,3.7974,3.7974,3.7974,3.7974,3.7974,3.7974,3.7974,3.7974,3.7974,3.7974,3.7974,3.7974,3.7974,3.7974,4.9102,4.9127,4.8583,4.6865,4.6599,4.6063,4.439,4.4047,4.4047,4.4459,4.4047,4.3517,4.2958,4.3703,4.3755,4.2329,4.2995,4.2766,4.1067,4.1537,4.1906,4.1906,4.3232,4.4645,4.5999,4.612,4.618,4.618,4.624,4.6301,4.6301,4.6301,4.6276,4.625,4.625,4.5949,4.5422,4.5422,4.5095,4.4568,4.4568,4.4242,4.374,4.374,4.3413,4.2986,4.2986,4.2986,4.2986,4.2986,4.2986,4.2986,4.2986,4.2986,4.2986,4.2986,4.2961,4.2811,4.2338,4.1731,4.11,4.0651,4.0099,3.9697,3.9697,3.9697,3.9697,3.9697,3.9697,3.9697,3.9697,3.9206,3.8685,3.8123,0.0,0.0,3.7134,3.7086,3.7344,3.7875,3.7954,3.7974,3.7974,3.7974,3.7974,3.7974,3.7974,3.7974,3.7974,3.7974,3.7974,3.7974,3.7974,3.7974,3.7974,3.7974,3.7974,3.7974,3.7974,3.7974,3.7974,3.7974,3.7974,3.7974,3.7974,3.7974,3.7974,3.7974,3.7974,3.7974,3.7974,3.7974,3.7974,3.7974,3.7974,3.7974,4.959,4.959,4.9396,4.8673,4.8542,4.8281,4.7599,4.6713,4.6177,4.6311,4.5435,4.4687,4.4436,4.4755,4.4755,4.4165,4.4963,4.5042,4.4072,4.4792,4.4736,4.3568,4.3979,4.4951,4.624,4.6301,4.6301,4.6301,4.6301,4.6301,4.6301,4.6301,4.6301,4.6301,4.6301,4.62,4.5999,4.5999,4.5673,4.5171,4.5171,4.4819,4.4317,4.4317,4.3966,4.3489,4.3489,4.3263,4.2986,4.2986,4.2986,4.2986,4.2986,4.2986,4.2986,4.2986,4.2986,4.2992,4.2766,4.2258,4.1706,4.1153,4.0601,4.0124,3.9772,3.9697,3.9697,3.9697,3.9697,3.9645,3.9465,3.9258,3.8904,3.8287,0.0,3.7882,3.7653,3.7653,3.7743,3.7954,3.7974,3.7974,3.7974,3.7974,3.7974,3.7974,3.7974,3.7974,3.7974,3.7974,3.7974,3.7974,3.7974,3.7974,3.7974,3.7974,3.7974,3.7974,3.7974,3.7974,3.7974,3.7974,3.7974,3.7974,3.7974,3.7974,3.7974,3.7974,3.7974,3.7974,3.7974,3.7974,3.7974,3.7974,3.7974,3.7974,4.959,4.959,4.959,4.959,4.959,4.959,4.959,4.8763,4.8084,4.8084,4.7202,4.6402,4.5908,4.6335,4.6402,4.5932,4.6723,4.6867,4.5862,4.6091,4.5859,4.4976,4.4951,4.5342,4.6301,4.6301,4.6301,4.6301,4.6301,4.6301,4.6301,4.6301,4.6301,4.6301,4.6301,4.6301,4.6301,4.6301,4.61,4.5748,4.5748,4.5397,4.4895,4.4895,4.4543,4.4066,4.4066,4.3714,4.3237,4.3237,4.3112,4.2986,4.2986,4.2986,4.2986,4.2986,4.2986,4.2986,4.2986,4.2766,4.2338,4.1731,4.1053,4.0425,4.0049,3.9823,3.9697,3.9697,3.9697,3.9645,3.9465,3.9258,3.8998,3.8579,3.8368,3.8185,3.8027,3.7974,3.7974,3.7974,3.7974,3.7974,3.7974,3.7974,3.7974,3.7974,3.7974,3.7974,3.7974,3.7974,3.7974,3.7974,3.7974,3.7974,3.7974,3.7974,3.7974,3.7974,3.7974,3.7974,3.7974,3.7974,3.7974,3.7974,3.7974,3.7974,3.7974,3.7974,3.7974,3.7974,3.7974,3.7974,3.7974,3.7974,3.7974,3.7974,4.959,4.959,4.959,4.959,4.959,4.959,4.959,4.959,4.959,4.959,4.959,4.9047,4.7557,4.8698,4.8983,4.7557,4.8293,4.8004,4.6054,4.4914,4.489,4.624,4.6301,4.6301,4.6301,4.6301,4.6301,4.6301,4.6301,4.6301,4.6301,4.6301,4.6301,4.6301,4.6301,4.6301,4.6301,4.6301,4.6301,4.6301,4.6301,4.5974,4.5497,4.5497,4.5121,4.4644,4.4644,4.4267,4.3815,4.379,4.3438,4.2986,4.2986,4.2986,4.2986,4.2986,4.2986,4.2986,4.2986,4.2986,4.2836,4.2338,4.1329,4.0526,4.0526,4.0099,3.9697,3.9697,3.9697,3.9697,3.9697,3.9206,3.8788,3.8788,3.8368,3.7974,3.7974,3.7974,3.7974,3.7974,3.7974,3.7974,3.7974,3.7974,3.7974,3.7974,3.7974,3.7974,3.7974,3.7974,3.7974,3.7974,3.7974,3.7974,3.7974,3.7974,3.7974,3.7974,3.7974,3.7974,3.7974,3.7974,3.7974,3.7974,3.7974,3.7974,3.7974,3.7974,3.7974,3.7974,3.7974,3.7974,3.7974,3.7974,3.7974,3.7974,4.959,4.959,4.959,4.959,4.959,4.959,4.959,4.959,4.959,4.959,4.959,4.9461,4.8983,4.9332,4.9396,4.8983,4.9182,4.881,4.737,4.6613,4.6251,4.6326,4.6301,4.6301,4.6301,4.6301,4.6301,4.6301,4.6301,4.6301,4.6301,4.6301,4.6301,4.6301,4.6301,4.6301,4.6301,4.6301,4.6301,4.6301,4.6301,4.62,4.6075,4.6075,4.5723,4.5221,4.5221,4.4869,4.4317,4.394,4.3689,4.3489,4.3112,4.2986,4.2986,4.2986,4.2986,4.2986,4.2986,4.2986,4.2836,4.2338,4.1961,4.1455,4.0701,4.04,4.0149,3.9772,3.9697,3.9645,3.9465,3.905,3.8736,3.8579,3.8262,3.7974,3.7974,3.7974,3.7974,3.7974,3.7974,3.7974,3.7974,3.7974,3.7974,3.7974,3.7974,3.7974,3.7974,3.7974,3.7974,3.7974,3.7974,3.7974,3.7974,3.7974,3.7974,3.7974,3.7974,3.7974,3.7974,3.7974,3.7974,3.7974,3.7974,3.7974,3.7974,3.7974,3.7974,3.7974,3.7974,3.7974,3.7974,3.7974,3.7974,3.7974,4.959,4.959,4.959,4.959,4.959,4.959,4.959,4.959,4.959,4.959,4.959,4.959,4.959,4.959,4.959,4.959,4.9389,4.8887,4.7958,4.7431,4.6878,4.6326,4.6301,4.6301,4.6301,4.6301,4.6301,4.6301,4.6301,4.6301,4.6301,4.6301,4.6301,4.6301,4.6301,4.6301,4.6301,4.6301,4.6301,4.6301,4.6301,4.6301,4.6301,4.6301,4.61,4.5824,4.5824,4.5447,4.492,4.4568,4.4166,4.374,4.3413,4.3162,4.2986,4.2986,4.2986,4.2986,4.2986,4.2986,4.2886,4.2615,4.2363,4.2037,4.1329,4.0827,4.0425,4.0099,3.9848,3.9645,3.949,3.9206,3.8893,3.8631,3.8315,3.8133,3.8027,3.7974,3.7974,3.7974,3.7974,3.7974,3.7974,3.7974,3.7974,3.7974,3.7974,3.7974,3.7974,3.7974,3.7974,3.7974,3.7974,3.7974,3.7974,3.7974,3.7974,3.7974,3.7974,3.7974,3.7974,3.7974,3.7974,3.7974,3.7974,3.7974,3.7974,3.7974,3.7974,3.7974,3.7974,3.7974,3.7974,3.7974,3.7974,3.7974,4.959,4.959,4.959,4.959,4.959,4.959,4.959,4.959,4.959,4.959,4.959,4.959,4.959,4.959,4.959,4.959,4.9138,4.8611,4.8033,4.7481,4.6954,4.6401,4.6326,4.6301,4.6301,4.6301,4.6301,4.6301,4.6301,4.6301,4.6301,4.6301,4.6301,4.6301,4.6301,4.6301,4.6301,4.6301,4.6301,4.6301,4.6301,4.6301,4.6301,4.6301,4.6301,4.6301,4.6301,4.5999,4.5547,4.5497,4.4769,4.3865,4.3815,4.3463,4.3037,4.2986,4.2986,4.2986,4.2986,4.2986,4.2986,4.2986,4.2665,4.2263,4.2213,4.1379,4.0626,4.0526,4.0124,3.9747,3.9697,3.9465,3.9206,3.8893,3.8631,3.8344,3.808,3.8027,3.8027,3.7974,3.7974,3.7974,3.7974,3.7974,3.7974,3.7974,3.7974,3.7974,3.7974,3.7974,3.7974,3.7974,3.7974,3.7974,3.7974,3.7974,3.7974,3.7974,3.7974,3.7974,3.7974,3.7974,3.7974,3.7974,3.7974,3.7974,3.7974,3.7974,3.7974,3.7974,3.7974,3.7974,3.7974,3.7974,3.808,3.8185,4.959,4.959,4.959,4.959,4.959,4.959,4.959,4.959,4.959,4.959,4.959,4.959,4.959,4.959,4.959,4.959,4.949,4.9188,4.8611,4.8058,4.7506,4.6979,4.6552,4.6301,4.6301,4.6301,4.6301,4.6301,4.6301,4.6301,4.6301,4.6301,4.6301,4.6301,4.6301,4.6301,4.6301,4.6301,4.6301,4.6301,4.6301,4.6301,4.6301,4.6301,4.6301,4.6301,4.6301,4.6225,4.6075,4.5623,4.502,4.4367,4.394,4.3714,4.3539,4.3112,4.2986,4.2986,4.2986,4.2986,4.2986,4.2986,4.2886,4.274,4.2313,4.2037,4.1555,4.0701,4.0425,4.0199,3.9772,3.9465,3.9258,3.9206,3.8945,3.8631,3.8368,3.8315,3.8262,3.8027,3.7974,3.7974,3.7974,3.7974,3.7974,3.7974,3.7974,3.7974,3.7974,3.7974,3.7974,3.7974,3.7974,3.7974,3.7974,3.7974,3.7974,3.7974,3.7974,3.7974,3.7974,3.7974,3.7974,3.7974,3.7974,3.7974,3.7974,3.7974,3.7974,3.7974,3.7974,3.7974,3.7974,3.7974,3.853,3.9339,4.959,4.959,4.959,4.959,4.959,4.959,4.959,4.959,4.959,4.959,4.959,4.959,4.959,4.959,4.959,4.959,4.959,4.9364,4.8875,4.8485,4.7958,4.7179,4.6853,4.6577,4.6326,4.6301,4.6301,4.6301,4.6301,4.6301,4.6301,4.6301,4.6301,4.6301,4.6301,4.6301,4.6301,4.6301,4.6301,4.6301,4.6301,4.6301,4.6301,4.6301,4.6301,4.6301,4.6301,4.6301,4.6276,4.5974,4.5497,4.4995,4.4694,4.4242,4.374,4.3463,4.3187,4.2986,4.2986,4.2986,4.2986,4.2986,4.2986,4.2911,4.2665,4.2389,4.2037,4.1404,4.1103,4.0752,4.0199,3.9969,3.9661,3.9151,3.905,3.8841,3.8291,3.8421,3.8473,3.8027,3.808,3.8133,3.8027,3.7974,3.7974,3.7974,3.7974,3.7974,3.7974,3.7974,3.7974,3.7974,3.7974,3.7974,3.7974,3.7974,3.7974,3.7974,3.7974,3.7974,3.7974,3.7974,3.7974,3.7974,3.7974,3.7974,3.7974,3.7974,3.7974,3.7974,3.7974,3.7974,3.808,3.8582,3.9442,4.0465,4.959,4.959,4.959,4.959,4.959,4.959,4.959,4.959,4.959,4.959,4.959,4.959,4.959,4.959,4.959,4.959,4.959,4.9389,4.8937,4.8812,4.8309,4.7305,4.7118,4.6878,4.6326,4.6301,4.6301,4.6301,4.6301,4.6301,4.6301,4.6301,4.6301,4.6301,4.6301,4.6301,4.6301,4.6301,4.6301,4.6301,4.6301,4.6301,4.6301,4.6301,4.6301,4.6301,4.6301,4.6301,4.6301,4.6301,4.5999,4.5623,4.5522,4.4844,4.4041,4.3865,4.3489,4.3112,4.3011,4.2986,4.2986,4.2986,4.2986,4.2986,4.2986,4.269,4.2313,4.2238,4.1781,4.1304,4.0752,4.0576,4.0217,3.9272,3.928,3.9102,3.8238,3.8526,3.8579,3.808,3.8185,3.8262,3.8027,3.7974,3.7974,3.7974,3.7974,3.7974,3.7974,3.7974,3.7974,3.7974,3.7974,3.7974,3.7974,3.7974,3.7974,3.7974,3.7974,3.7974,3.7974,3.7974,3.7974,3.7974,3.7974,3.7974,3.7974,3.7974,3.7974,3.7974,3.7974,3.7974,3.8185,3.9494,4.0692,4.1591,4.959,4.959,4.959,4.959,4.959,4.959,4.959,4.959,4.959,4.959,4.959,4.959,4.959,4.959,4.959,4.959,4.959,4.9565,4.949,4.9038,4.8485,4.7832,4.738,4.6878,4.6326,4.6301,4.6301,4.6301,4.6301,4.6301,4.6301,4.6301,4.6301,4.6301,4.6301,4.6301,4.6301,4.6301,4.6301,4.6301,4.6301,4.6301,4.6301,4.6301,4.6301,4.6301,4.6301,4.6301,4.6301,4.6301,4.625,4.6125,4.5648,4.5372,4.507,4.4091,4.374,4.3589,4.3112,4.2986,4.2986,4.2986,4.2986,4.2986,4.2986,4.2911,4.2791,4.2313,4.2162,4.1882,4.1275,4.0774,4.0448,4.032,3.9894,3.9413,3.8788,3.8736,3.8579,3.808,3.8027,3.8027,3.7974,3.7974,3.7974,3.7974,3.7974,3.7974,3.7974,3.7974,3.7974,3.7974,3.7974,3.7974,3.7974,3.7974,3.7974,3.7974,3.7974,3.7974,3.7974,3.7974,3.7974,3.7974,3.7974,3.7974,3.7974,3.7974,3.7974,3.7974,3.7974,3.7974,3.8267,4.069,4.2274,4.3313,4.959,4.959,4.959,4.959,4.959,4.959,4.959,4.959,4.959,4.959,4.959,4.959,4.959,4.959,4.959,4.959,4.959,4.959,4.959,4.9364,4.8987,4.841,4.7857,4.733,4.6778,4.6476,4.6301,4.6301,4.6301,4.6301,4.6301,4.6301,4.6301,4.6301,4.6301,4.6301,4.6301,4.6301,4.6301,4.6301,4.6301,4.6301,4.6301,4.6301,4.6301,4.6301,4.6301,4.6301,4.6301,4.6301,4.6301,4.6276,4.6024,4.5723,4.5397,4.4895,4.4292,4.374,4.3514,4.3212,4.2986,4.2986,4.2986,4.2986,4.2986,4.2986,4.2911,4.2715,4.2665,4.2434,4.1907,4.1605,4.1275,4.0789,4.029,3.973,3.9149,3.8932,3.8684,3.8262,3.808,3.7974,3.7974,3.7974,3.7974,3.7974,3.7974,3.7974,3.7974,3.7974,3.7974,3.7974,3.7974,3.7974,3.7974,3.7974,3.7974,3.7974,3.7974,3.7974,3.7974,3.7974,3.7974,3.7974,3.7974,3.7974,3.7974,3.7974,3.7974,3.7974,3.7974,3.8739,3.9956,4.139,4.2978,4.4499]}]]